[[{"header":{"parameterUnit":"m.s-1","parameterCategory":1,"la1":30.6,"la2":28.766,"lo1":-90.7593,"lo2":-88.6598,"dy":0.0162,"dx":0.0183,"nx":116,"ny":114,"refTime":"2023-02-26T06:00:00:Z","depth":0,"parameterNumber":2,"parameterNumberName":"U-component_of_WINDS"},"data":[0.0,0.0,0.0,0.0,0.0,0.0,0.0,0.0,0.0,0.0,0.0,0.0,0.0,0.0,0.0,0.0,0.0,0.0,0.0,0.0,0.0,0.0,0.0,0.0,0.0,0.0,0.0,0.0,0.0,0.0,0.0,0.0,0.0,0.0,0.0,0.0,0.0,0.0,0.0,0.0,0.0,0.0,0.0,0.0,0.0,0.0,0.0,0.0,0.0,0.0,0.0,0.0,0.0,0.0,0.0,0.0,0.0,0.0,0.0,0.0,0.0,0.0,0.0,0.0,0.0,0.0,0.0,0.0,0.0,0.0,0.0,0.0,0.0,0.0,0.0,0.0,0.0,0.0,0.0,0.0,0.0,0.0,0.0,0.0,0.0,0.0,0.0,0.0,0.0,0.0,0.0,0.0,0.0,0.0,0.0,0.0,0.0,0.0,0.0,0.0,0.0,0.0,0.0,0.0,0.0,0.0,0.0,0.0,0.0,0.0,0.0,0.0,0.0,0.0,0.0,0.0,0.0,0.0,0.0,0.0,0.0,0.0,0.0,0.0,0.0,0.0,0.0,0.0,0.0,0.0,0.0,0.0,0.0,0.0,0.0,0.0,0.0,0.0,0.0,0.0,0.0,0.0,0.0,0.0,0.0,0.0,0.0,0.0,0.0,0.0,0.0,0.0,0.0,0.0,0.0,0.0,0.0,0.0,0.0,0.0,0.0,0.0,0.0,0.0,0.0,0.0,0.0,0.0,0.0,0.0,0.0,0.0,0.0,0.0,0.0,0.0,0.0,0.0,0.0,0.0,0.0,0.0,0.0,0.0,0.0,0.0,0.0,0.0,0.0,0.0,0.0,0.0,0.0,0.0,0.0,0.0,0.0,0.0,0.0,0.0,0.0,0.0,0.0,0.0,0.0,0.0,0.0,0.0,0.0,0.0,0.0,0.0,0.0,0.0,0.0,0.0,0.0,0.0,0.0,0.0,0.0,0.0,0.0,0.0,0.0,0.0,0.0,0.0,0.0,0.0,0.0,0.0,0.0,0.0,0.0,0.0,0.0,0.0,0.0,0.0,0.0,0.0,0.0,0.0,0.0,0.0,0.0,0.0,0.0,0.0,0.0,0.0,0.0,0.0,0.0,0.0,0.0,0.0,0.0,0.0,0.0,0.0,0.0,0.0,0.0,0.0,0.0,0.0,0.0,0.0,0.0,0.0,0.0,0.0,0.0,0.0,0.0,0.0,0.0,0.0,0.0,0.0,0.0,0.0,0.0,0.0,0.0,0.0,0.0,0.0,0.0,0.0,0.0,0.0,0.0,0.0,0.0,0.0,0.0,0.0,0.0,0.0,0.0,0.0,0.0,0.0,0.0,0.0,0.0,0.0,0.0,0.0,0.0,0.0,0.0,0.0,0.0,0.0,0.0,0.0,0.0,0.0,0.0,0.0,0.0,0.0,0.0,0.0,0.0,0.0,0.0,0.0,0.0,0.0,0.0,0.0,0.0,0.0,0.0,0.0,0.0,0.0,0.0,0.0,0.0,0.0,0.0,0.0,0.0,0.0,0.0,0.0,0.0,0.0,0.0,0.0,0.0,0.0,0.0,0.0,0.0,0.0,0.0,0.0,0.0,0.0,0.0,0.0,0.0,0.0,0.0,0.0,0.0,0.0,0.0,0.0,0.0,0.0,0.0,0.0,0.0,0.0,0.0,0.0,0.0,0.0,0.0,0.0,0.0,0.0,0.0,0.0,0.0,0.0,0.0,0.0,0.0,0.0,0.0,0.0,0.0,0.0,0.0,0.0,0.0,0.0,0.0,0.0,0.0,0.0,0.0,0.0,0.0,0.0,0.0,0.0,0.0,0.0,0.0,0.0,0.0,0.0,0.0,0.0,0.0,0.0,0.0,0.0,0.0,0.0,0.0,0.0,0.0,0.0,0.0,0.0,0.0,0.0,0.0,0.0,0.0,0.0,0.0,0.0,0.0,0.0,0.0,0.0,0.0,0.0,0.0,0.0,0.0,0.0,0.0,0.0,0.0,0.0,0.0,0.0,0.0,0.0,0.0,0.0,0.0,0.0,0.0,0.0,0.0,0.0,0.0,0.0,0.0,0.0,0.0,0.0,0.0,0.0,0.0,0.0,0.0,0.0,0.0,0.0,0.0,0.0,0.0,0.0,0.0,0.0,0.0,0.0,0.0,0.0,0.0,0.0,0.0,0.0,0.0,0.0,0.0,0.0,0.0,0.0,0.0,0.0,0.0,0.0,0.0,0.0,0.0,0.0,0.0,0.0,0.0,0.0,0.0,0.0,0.0,0.0,0.0,0.0,0.0,0.0,0.0,0.0,0.0,0.0,0.0,0.0,0.0,0.0,0.0,0.0,0.0,0.0,0.0,0.0,0.0,0.0,0.0,0.0,0.0,0.0,0.0,0.0,0.0,0.0,0.0,0.0,0.0,0.0,0.0,0.0,0.0,0.0,0.0,0.0,0.0,0.0,0.0,0.0,0.0,0.0,0.0,0.0,0.0,0.0,0.0,0.0,0.0,0.0,0.0,0.0,0.0,0.0,0.0,0.0,0.0,0.0,0.0,0.0,0.0,0.0,0.0,0.0,0.0,0.0,0.0,0.0,0.0,0.0,0.0,0.0,0.0,0.0,0.0,0.0,0.0,0.0,0.0,0.0,0.0,0.0,0.0,0.0,0.0,0.0,0.0,0.0,0.0,0.0,0.0,0.0,0.0,0.0,0.0,0.0,0.0,0.0,0.0,0.0,0.0,0.0,0.0,0.0,0.0,0.0,0.0,0.0,0.0,0.0,0.0,0.0,0.0,0.0,0.0,0.0,0.0,0.0,0.0,0.0,0.0,0.0,0.0,0.0,0.0,0.0,0.0,0.0,0.0,0.0,0.0,0.0,0.0,0.0,0.0,0.0,0.0,0.0,0.0,0.0,0.0,0.0,0.0,0.0,0.0,0.0,0.0,0.0,0.0,0.0,0.0,0.0,0.0,0.0,0.0,0.0,0.0,0.0,0.0,0.0,0.0,0.0,0.0,0.0,0.0,0.0,0.0,0.0,0.0,0.0,0.0,0.0,0.0,0.0,0.0,0.0,0.0,0.0,0.0,0.0,0.0,0.0,0.0,0.0,0.0,0.0,0.0,0.0,0.0,0.0,0.0,0.0,0.0,0.0,0.0,0.0,0.0,0.0,0.0,0.0,0.0,0.0,0.0,0.0,0.0,0.0,0.0,0.0,0.0,0.0,0.0,0.0,0.0,0.0,0.0,0.0,0.0,0.0,0.0,0.0,0.0,0.0,0.0,0.0,0.0,0.0,0.0,0.0,0.0,0.0,0.0,0.0,0.0,0.0,0.0,0.0,0.0,0.0,0.0,0.0,0.0,0.0,0.0,0.0,0.0,0.0,0.0,0.0,0.0,0.0,0.0,0.0,0.0,0.0,0.0,0.0,0.0,0.0,0.0,0.0,0.0,0.0,0.0,0.0,0.0,0.0,0.0,0.0,0.0,0.0,0.0,0.0,0.0,0.0,0.0,0.0,0.0,0.0,0.0,0.0,0.0,0.0,0.0,0.0,0.0,0.0,0.0,0.0,0.0,0.0,0.0,0.0,0.0,0.0,0.0,0.0,0.0,0.0,0.0,0.0,0.0,0.0,0.0,0.0,0.0,0.0,0.0,0.0,0.0,0.0,0.0,0.0,0.0,0.0,0.0,0.0,0.0,0.0,0.0,0.0,0.0,0.0,0.0,0.0,0.0,0.0,0.0,0.0,0.0,0.0,0.0,0.0,0.0,0.0,0.0,0.0,0.0,0.0,0.0,0.0,0.0,0.0,0.0,0.0,0.0,0.0,0.0,0.0,0.0,0.0,0.0,0.0,0.0,0.0,0.0,0.0,0.0,0.0,0.0,0.0,0.0,0.0,0.0,0.0,0.0,0.0,0.0,0.0,0.0,0.0,0.0,0.0,0.0,0.0,0.0,0.0,0.0,0.0,0.0,0.0,0.0,0.0,0.0,0.0,0.0,0.0,0.0,0.0,0.0,0.0,0.0,0.0,0.0,0.0,0.0,0.0,0.0,0.0,0.0,0.0,0.0,0.0,0.0,0.0,0.0,0.0,0.0,0.0,0.0,0.0,0.0,0.0,0.0,0.0,0.0,0.0,0.0,0.0,0.0,0.0,0.0,0.0,0.0,0.0,0.0,0.0,0.0,0.0,0.0,0.0,0.0,0.0,0.0,0.0,0.0,0.0,0.0,0.0,0.0,0.0,0.0,0.0,0.0,0.0,0.0,0.0,0.0,0.0,0.0,0.0,0.0,0.0,0.0,0.0,0.0,0.0,0.0,0.0,0.0,0.0,0.0,0.0,0.0,0.0,0.0,0.0,0.0,0.0,0.0,0.0,0.0,0.0,0.0,0.0,0.0,0.0,0.0,0.0,0.0,0.0,0.0,0.0,0.0,0.0,0.0,0.0,0.0,0.0,0.0,0.0,0.0,0.0,0.0,0.0,0.0,0.0,0.0,0.0,0.0,0.0,0.0,0.0,0.0,0.0,0.0,0.0,0.0,0.0,0.0,0.0,0.0,0.0,0.0,0.0,0.0,0.0,0.0,0.0,0.0,0.0,0.0,0.0,0.0,0.0,0.0,0.0,0.0,0.0,0.0,0.0,0.0,0.0,0.0,0.0,0.0,0.0,0.0,0.0,0.0,0.0,0.0,0.0,0.0,0.0,0.0,0.0,0.0,0.0,0.0,0.0,0.0,0.0,0.0,0.0,0.0,0.0,0.0,0.0,0.0,0.0,0.0,0.0,0.0,0.0,0.0,0.0,0.0,0.0,0.0,0.0,0.0,0.0,0.0,0.0,0.0,0.0,0.0,0.0,0.0,0.0,0.0,0.0,0.0,0.0,0.0,0.0,0.0,0.0,0.0,0.0,0.0,0.0,0.0,0.0,0.0,0.0,0.0,0.0,0.0,0.0,0.0,0.0,0.0,0.0,0.0,0.0,0.0,0.0,0.0,0.0,0.0,0.0,0.0,0.0,0.0,0.0,0.0,0.0,0.0,0.0,0.0,0.0,0.0,0.0,0.0,0.0,0.0,0.0,0.0,0.0,0.0,0.0,0.0,0.0,0.0,0.0,0.0,0.0,0.0,0.0,0.0,0.0,0.0,0.0,0.0,0.0,0.0,0.0,0.0,0.0,0.0,0.0,0.0,0.0,0.0,0.0,0.0,0.0,0.0,0.0,0.0,0.0,0.0,0.0,0.0,0.0,0.0,0.0,0.0,0.0,0.0,0.0,0.0,0.0,0.0,0.0,0.0,0.0,0.0,0.0,0.0,0.0,0.0,0.0,0.0,0.0,0.0,0.0,0.0,0.0,0.0,0.0,0.0,0.0,0.0,0.0,0.0,0.0,0.0,0.0,0.0,0.0,0.0,0.0,0.0,0.0,0.0,0.0,0.0,0.0,0.0,0.0,0.0,0.0,0.0,0.0,0.0,0.0,0.0,0.0,0.0,0.0,0.0,0.0,0.0,0.0,0.0,0.0,0.0,0.0,0.0,0.0,0.0,0.0,0.0,0.0,0.0,0.0,0.0,0.0,0.0,0.0,0.0,0.0,0.0,0.0,0.0,0.0,0.0,0.0,0.0,0.0,0.0,0.0,0.0,0.0,0.0,0.0,0.0,0.0,0.0,0.0,0.0,0.0,0.0,0.0,0.0,0.0,0.0,0.0,0.0,0.0,0.0,0.0,0.0,0.0,0.0,0.0,0.0,0.0,0.0,0.0,0.0,0.0,0.0,0.0,0.0,0.0,0.0,0.0,0.0,0.0,0.0,0.0,0.0,0.0,0.0,0.0,0.0,0.0,0.0,0.0,0.0,0.0,0.0,0.0,0.0,0.0,0.0,0.0,0.0,0.0,0.0,0.0,0.0,0.0,0.0,0.0,0.0,0.0,0.0,0.0,0.0,0.0,0.0,0.0,0.0,0.0,0.0,0.0,0.0,0.0,0.0,0.0,0.0,0.0,0.0,0.0,0.0,0.0,0.0,0.0,0.0,0.0,0.0,0.0,0.0,0.0,0.0,0.0,0.0,0.0,0.0,0.0,0.0,0.0,0.0,0.0,-3.7134,-3.6025,0.0,0.0,0.0,0.0,0.0,0.0,0.0,0.0,0.0,0.0,0.0,0.0,0.0,0.0,0.0,0.0,0.0,0.0,0.0,0.0,0.0,0.0,0.0,0.0,0.0,0.0,0.0,0.0,0.0,0.0,0.0,0.0,0.0,0.0,0.0,0.0,0.0,0.0,0.0,0.0,0.0,0.0,0.0,0.0,0.0,0.0,0.0,0.0,0.0,0.0,0.0,0.0,0.0,0.0,0.0,0.0,0.0,0.0,0.0,0.0,0.0,0.0,0.0,0.0,0.0,0.0,0.0,0.0,0.0,0.0,0.0,0.0,0.0,0.0,0.0,0.0,0.0,0.0,0.0,0.0,0.0,0.0,0.0,0.0,0.0,0.0,0.0,0.0,0.0,0.0,0.0,0.0,0.0,0.0,0.0,0.0,0.0,0.0,0.0,0.0,0.0,0.0,0.0,0.0,0.0,0.0,0.0,0.0,0.0,0.0,0.0,0.0,0.0,0.0,-3.7764,-3.7256,0.0,0.0,0.0,0.0,0.0,0.0,0.0,0.0,0.0,0.0,0.0,0.0,0.0,0.0,0.0,0.0,0.0,0.0,0.0,0.0,0.0,0.0,0.0,0.0,0.0,0.0,0.0,0.0,0.0,0.0,0.0,0.0,0.0,0.0,0.0,0.0,0.0,0.0,0.0,0.0,0.0,0.0,0.0,0.0,0.0,0.0,0.0,0.0,0.0,0.0,0.0,0.0,0.0,0.0,0.0,0.0,0.0,0.0,0.0,0.0,0.0,0.0,0.0,0.0,0.0,0.0,0.0,0.0,0.0,0.0,0.0,0.0,0.0,0.0,0.0,0.0,0.0,0.0,0.0,0.0,0.0,0.0,0.0,0.0,0.0,0.0,0.0,0.0,0.0,0.0,0.0,0.0,0.0,0.0,0.0,0.0,0.0,0.0,0.0,0.0,0.0,0.0,0.0,0.0,0.0,0.0,0.0,0.0,-3.7828,-3.8226,-3.8882,-3.8811,-3.865,-3.8447,-3.8299,-3.8467,-3.8731,-3.7181,0.0,0.0,0.0,0.0,0.0,0.0,0.0,0.0,0.0,0.0,0.0,0.0,0.0,0.0,0.0,0.0,0.0,0.0,0.0,0.0,0.0,0.0,0.0,0.0,0.0,0.0,0.0,0.0,0.0,0.0,0.0,0.0,0.0,0.0,0.0,0.0,0.0,0.0,0.0,0.0,0.0,0.0,0.0,0.0,0.0,0.0,0.0,0.0,0.0,0.0,0.0,0.0,0.0,0.0,0.0,0.0,0.0,0.0,0.0,0.0,0.0,0.0,0.0,0.0,0.0,0.0,0.0,0.0,0.0,0.0,0.0,0.0,0.0,0.0,0.0,0.0,0.0,0.0,0.0,0.0,0.0,0.0,0.0,0.0,0.0,0.0,-3.9369,-3.9815,0.0,0.0,0.0,0.0,0.0,0.0,0.0,0.0,0.0,0.0,0.0,0.0,0.0,-3.7325,-3.7997,-3.8847,-3.9318,-3.9384,-4.0132,-4.0617,-4.0839,-4.0698,-4.0193,-3.9408,-3.9281,0.0,-3.707,-3.7315,0.0,0.0,0.0,0.0,0.0,0.0,0.0,0.0,0.0,0.0,0.0,0.0,0.0,0.0,0.0,0.0,0.0,0.0,0.0,0.0,0.0,0.0,0.0,0.0,0.0,0.0,0.0,0.0,0.0,0.0,0.0,0.0,0.0,0.0,0.0,0.0,0.0,0.0,0.0,0.0,0.0,0.0,0.0,0.0,0.0,0.0,0.0,0.0,0.0,0.0,0.0,0.0,0.0,0.0,0.0,0.0,0.0,0.0,0.0,0.0,0.0,0.0,0.0,0.0,0.0,0.0,0.0,0.0,0.0,0.0,0.0,0.0,0.0,0.0,0.0,0.0,0.0,0.0,0.0,0.0,0.0,0.0,0.0,0.0,0.0,-3.7642,-3.889,-3.9413,-3.9268,-3.8698,0.0,0.0,0.0,0.0,0.0,0.0,0.0,0.0,0.0,-3.6929,-3.7371,-3.7364,-3.6841,-3.7679,-3.8148,-3.8303,-3.8674,-3.9164,-3.9746,-3.9683,-3.9376,-3.8875,-3.8808,-3.7987,-3.6724,-3.6995,-3.6559,-3.5697,0.0,0.0,0.0,0.0,-3.3993,-3.4029,0.0,0.0,0.0,0.0,0.0,0.0,0.0,0.0,0.0,0.0,0.0,0.0,0.0,0.0,0.0,0.0,0.0,0.0,0.0,0.0,0.0,0.0,0.0,0.0,0.0,0.0,0.0,0.0,0.0,0.0,0.0,0.0,0.0,0.0,0.0,0.0,0.0,0.0,0.0,0.0,0.0,0.0,0.0,0.0,0.0,0.0,0.0,0.0,0.0,0.0,0.0,0.0,0.0,0.0,0.0,0.0,0.0,0.0,0.0,0.0,0.0,0.0,0.0,0.0,0.0,0.0,0.0,0.0,0.0,0.0,0.0,0.0,0.0,0.0,0.0,0.0,0.0,-3.7718,-3.8664,-3.9013,-3.9421,-3.9059,0.0,0.0,0.0,0.0,0.0,0.0,-3.7969,-3.7263,-3.6944,-3.7176,-3.7556,-3.7265,-3.6302,-3.6883,-3.7181,-3.7149,-3.7152,-3.7419,-3.793,-3.793,-3.7719,-3.7345,-3.7345,-3.6721,-3.5785,-3.6213,-3.6132,-3.5665,-3.4778,-3.415,-3.3757,-3.3631,-3.3468,-3.3361,0.0,0.0,0.0,0.0,0.0,0.0,0.0,0.0,0.0,0.0,0.0,0.0,0.0,0.0,0.0,0.0,0.0,0.0,0.0,0.0,0.0,0.0,0.0,0.0,0.0,0.0,0.0,0.0,0.0,0.0,0.0,0.0,0.0,0.0,0.0,0.0,0.0,0.0,0.0,0.0,0.0,0.0,0.0,0.0,0.0,0.0,0.0,0.0,0.0,0.0,0.0,0.0,0.0,0.0,0.0,0.0,0.0,0.0,0.0,0.0,0.0,0.0,0.0,0.0,0.0,0.0,0.0,0.0,0.0,0.0,0.0,0.0,0.0,0.0,0.0,0.0,0.0,0.0,0.0,-3.9268,-4.0773,0.0,0.0,0.0,0.0,-3.7526,-3.7758,-3.795,-3.8007,-3.7187,-3.7091,-3.7926,-3.7175,-3.7137,-3.7882,-3.7933,-3.7628,-3.7,-3.7007,-3.6699,-3.6133,-3.6133,-3.5639,-3.478,-3.4728,-3.4113,-3.3305,-3.4905,-3.5058,-3.4191,-3.3077,-3.2613,-3.252,-3.209,-3.1913,-3.1868,0.0,0.0,0.0,0.0,0.0,0.0,0.0,0.0,0.0,0.0,0.0,0.0,0.0,0.0,0.0,0.0,0.0,0.0,0.0,0.0,0.0,0.0,0.0,0.0,0.0,0.0,0.0,0.0,0.0,0.0,0.0,0.0,0.0,0.0,0.0,0.0,0.0,0.0,0.0,0.0,0.0,0.0,0.0,0.0,0.0,0.0,0.0,0.0,0.0,0.0,0.0,0.0,0.0,0.0,0.0,0.0,0.0,0.0,0.0,0.0,0.0,0.0,0.0,0.0,0.0,0.0,0.0,0.0,0.0,0.0,0.0,0.0,0.0,0.0,0.0,0.0,0.0,0.0,0.0,-3.9212,-4.0626,0.0,-3.855,-3.8871,-3.8869,-3.8077,-3.7804,-3.7927,-3.8482,-3.7368,-3.6615,-3.6404,-3.6596,-3.6065,-3.4737,-3.5276,-3.5226,-3.4552,-3.4552,-3.4476,-3.4336,-3.4336,-3.4116,-3.3731,-3.3148,-3.2642,-3.2188,-3.167,-3.2193,-3.3327,-3.2915,-3.2343,-3.1702,-3.1536,-3.0931,-3.0177,0.0,0.0,0.0,0.0,0.0,0.0,0.0,0.0,0.0,0.0,0.0,0.0,0.0,0.0,0.0,0.0,0.0,0.0,0.0,0.0,0.0,0.0,0.0,0.0,0.0,0.0,0.0,0.0,0.0,0.0,0.0,0.0,0.0,0.0,0.0,0.0,0.0,0.0,0.0,0.0,0.0,0.0,-2.7804,0.0,0.0,0.0,0.0,0.0,0.0,0.0,0.0,0.0,0.0,0.0,0.0,0.0,0.0,0.0,0.0,0.0,0.0,0.0,0.0,0.0,0.0,0.0,0.0,0.0,0.0,0.0,0.0,0.0,0.0,0.0,0.0,0.0,0.0,0.0,-3.8647,-3.7717,-3.9669,-4.0206,-3.7968,-3.8976,-3.932,-3.8256,-3.7934,-3.7985,-3.8375,-3.6977,-3.5955,-3.5519,-3.5442,-3.4603,-3.291,-3.3468,-3.3409,-3.2762,-3.2762,-3.268,-3.2559,-3.2246,-3.2087,-3.1993,-3.1103,-3.0655,-3.0467,-2.9279,-2.9752,-3.1218,-3.1218,-3.0778,-3.0147,-3.0044,-2.9455,-2.868,0.0,0.0,0.0,0.0,0.0,0.0,0.0,0.0,0.0,0.0,0.0,0.0,0.0,0.0,0.0,0.0,0.0,0.0,0.0,0.0,0.0,0.0,0.0,0.0,0.0,0.0,0.0,0.0,0.0,0.0,0.0,0.0,0.0,0.0,0.0,0.0,0.0,0.0,0.0,0.0,0.0,0.0,-2.6826,0.0,0.0,0.0,0.0,0.0,0.0,0.0,0.0,0.0,0.0,0.0,0.0,0.0,0.0,0.0,0.0,0.0,0.0,0.0,0.0,0.0,0.0,0.0,0.0,0.0,0.0,0.0,0.0,0.0,0.0,0.0,0.0,0.0,-3.556,-3.6506,-3.6642,-3.5012,-3.8043,-3.9355,-3.6994,-3.8872,-3.9579,-3.8018,-3.8143,-3.8088,-3.7555,-3.5963,-3.5157,-3.5383,-3.3769,-3.2872,-3.2808,-3.2833,-3.2515,-3.1858,-3.1858,-3.1504,-3.082,-2.998,-2.957,-2.9512,-2.856,-2.8111,-2.8049,-2.7958,-2.7889,-2.7818,-2.7876,-2.7876,-2.7835,-2.7574,-2.7457,-2.7357,0.0,0.0,0.0,0.0,0.0,0.0,0.0,0.0,0.0,0.0,0.0,0.0,0.0,0.0,0.0,0.0,0.0,0.0,0.0,0.0,0.0,0.0,0.0,0.0,0.0,0.0,0.0,0.0,0.0,0.0,0.0,0.0,0.0,0.0,0.0,0.0,0.0,0.0,0.0,0.0,0.0,0.0,-2.5513,0.0,0.0,0.0,0.0,0.0,0.0,0.0,0.0,0.0,0.0,0.0,0.0,0.0,0.0,0.0,0.0,0.0,0.0,0.0,0.0,0.0,0.0,0.0,0.0,0.0,0.0,0.0,0.0,0.0,0.0,0.0,0.0,-3.5484,-3.5758,-3.7106,-3.79,-3.744,-3.8799,-3.9439,-3.8526,-3.851,-3.8295,-3.7675,-3.6794,-3.6225,-3.6092,-3.4851,-3.3824,-3.314,-3.2967,-3.2218,-3.0818,-3.1616,-3.1637,-3.0874,-3.0874,-3.0522,-2.9887,-2.9634,-2.9212,-2.8613,-2.7714,-2.7263,-2.7109,-2.646,-2.6126,-2.6135,-2.7409,-2.7505,-2.6942,-2.688,-2.6282,-2.5479,0.0,0.0,0.0,0.0,0.0,0.0,0.0,0.0,0.0,0.0,0.0,0.0,0.0,0.0,0.0,0.0,0.0,0.0,0.0,0.0,0.0,0.0,0.0,0.0,0.0,0.0,0.0,0.0,0.0,0.0,0.0,0.0,0.0,0.0,0.0,0.0,0.0,0.0,0.0,0.0,0.0,0.0,-2.452,-2.5299,-2.6105,-2.6948,-2.7766,-2.8774,-2.9802,-3.0171,0.0,0.0,0.0,0.0,0.0,0.0,0.0,0.0,0.0,0.0,0.0,0.0,0.0,0.0,0.0,0.0,0.0,0.0,0.0,0.0,0.0,0.0,0.0,0.0,-3.4248,-3.4617,-3.4899,-3.6249,-3.7102,-3.6792,-3.7381,-3.7606,-3.711,-3.6984,-3.6725,-3.6249,-3.5312,-3.4686,-3.4449,-3.3188,-3.2241,-3.1713,-3.1688,-3.1139,-3.0006,-3.0765,-3.0926,-3.0503,-3.0529,-3.0172,-2.9484,-2.9145,-2.8531,-2.7715,-2.6836,-2.6373,-2.6216,-2.5707,-2.5415,-2.5404,0.0,0.0,0.0,0.0,-2.5399,-2.4639,0.0,0.0,0.0,0.0,0.0,0.0,0.0,0.0,0.0,0.0,0.0,0.0,0.0,0.0,0.0,0.0,0.0,0.0,0.0,0.0,0.0,0.0,0.0,0.0,0.0,0.0,0.0,0.0,0.0,0.0,0.0,0.0,0.0,0.0,0.0,0.0,0.0,0.0,0.0,0.0,0.0,0.0,-2.3587,-2.4319,-2.5179,-2.6053,-2.6809,-2.7857,-2.9026,-2.9831,0.0,0.0,0.0,0.0,0.0,0.0,0.0,0.0,0.0,0.0,0.0,0.0,0.0,0.0,0.0,0.0,0.0,0.0,0.0,0.0,0.0,0.0,0.0,0.0,-3.3737,-3.3582,-3.3582,-3.455,-3.5037,-3.4447,-3.4864,-3.4938,-3.4272,-3.4871,-3.5015,-3.4318,-3.385,-3.3366,-3.2846,-3.1421,0.0,0.0,0.0,-3.0006,-3.0006,-3.026,-3.0433,-3.0481,-3.045,-3.0063,-2.9301,-2.851,-2.7676,-2.6816,-2.6035,-2.5611,-2.5491,-2.5491,-2.5415,-2.5308,-2.5308,-2.5308,-2.5269,-2.5059,-2.4802,-2.4537,0.0,0.0,0.0,0.0,0.0,0.0,0.0,0.0,0.0,0.0,0.0,0.0,0.0,0.0,0.0,0.0,0.0,0.0,0.0,0.0,0.0,0.0,0.0,0.0,0.0,0.0,0.0,0.0,0.0,0.0,0.0,0.0,0.0,0.0,0.0,0.0,0.0,0.0,0.0,0.0,0.0,0.0,-2.1708,-2.257,-2.3554,-2.4609,-2.5399,-2.656,-2.7857,-2.8667,-2.9383,-3.0238,-3.2084,0.0,0.0,0.0,0.0,0.0,0.0,0.0,0.0,0.0,0.0,0.0,0.0,0.0,0.0,0.0,0.0,0.0,0.0,0.0,0.0,-3.1861,-3.2875,-3.3582,-3.3582,-3.3353,-3.3314,-3.3654,-3.4258,-3.4527,-3.4233,-3.3782,-3.3476,-3.3442,-3.277,-3.217,-3.1728,-3.1002,-3.0615,-3.0677,-3.024,-3.0006,-3.0006,-3.026,-3.0421,-3.0411,-2.9766,0.0,-2.8337,-2.7539,-2.671,-2.5937,-2.5762,-2.5611,-2.5491,-2.5491,-2.5415,-2.5308,-2.5308,-2.5308,-2.5259,-2.4949,-2.4811,-2.4693,0.0,0.0,0.0,0.0,0.0,0.0,0.0,0.0,0.0,0.0,0.0,0.0,0.0,0.0,0.0,0.0,0.0,0.0,0.0,0.0,0.0,0.0,0.0,0.0,0.0,0.0,0.0,0.0,0.0,0.0,0.0,0.0,0.0,0.0,0.0,0.0,0.0,0.0,0.0,0.0,0.0,0.0,-1.7722,-1.9768,-2.1087,-2.1985,-2.3034,-2.439,-2.5909,-2.7317,-2.858,-2.9937,-3.2191,-3.282,-3.2818,0.0,0.0,0.0,0.0,0.0,0.0,0.0,0.0,0.0,0.0,0.0,0.0,0.0,0.0,-3.081,0.0,0.0,-3.1193,-3.228,-3.2511,-3.2431,-3.2102,-3.2092,-3.2306,-3.2882,-3.2951,-3.2883,-3.2703,-3.2181,-3.1882,-3.1933,-3.1234,-3.0704,-3.0503,-3.0048,-2.985,-2.9988,-2.9895,-2.9901,-2.9999,-2.9826,-2.9967,-3.0385,-2.9208,-2.8469,-2.8079,-2.7294,-2.6481,-2.5703,-2.5703,-2.5611,-2.5486,-2.5425,-2.5359,-2.5308,-2.5308,-2.5248,-2.5124,-2.4883,-2.4738,-2.4599,0.0,0.0,0.0,0.0,0.0,0.0,0.0,0.0,0.0,0.0,0.0,0.0,0.0,0.0,0.0,0.0,0.0,0.0,0.0,0.0,0.0,0.0,0.0,0.0,0.0,0.0,0.0,0.0,0.0,0.0,0.0,0.0,0.0,0.0,0.0,0.0,0.0,0.0,0.0,0.0,0.0,0.0,-1.3267,-1.6042,-1.7877,-1.9131,-2.052,-2.2024,-2.3724,-2.5968,-2.7646,-2.928,-3.2036,-3.3265,-3.356,-3.3217,-3.4105,0.0,0.0,0.0,0.0,0.0,0.0,0.0,0.0,0.0,-3.076,-3.0188,-3.0188,-3.0663,-3.1842,-3.1175,-3.1031,-3.2806,-3.2192,-3.1291,-3.0762,-3.1067,-3.158,-3.2115,-3.1726,-3.1357,-3.1219,-3.0959,-3.0802,-3.082,-3.027,-2.9931,-2.9947,-2.9497,-2.9362,-2.9615,-2.9673,-2.9796,-2.9999,-2.9404,-2.9448,-3.014,-2.8567,-2.7831,-2.7809,-2.7051,-2.6347,-2.5683,-2.5663,-2.5598,-2.5463,-2.5342,-2.5308,-2.5308,-2.5308,-2.5203,-2.5047,-2.4862,-2.47,-2.4528,0.0,0.0,0.0,0.0,0.0,0.0,0.0,0.0,0.0,0.0,0.0,0.0,0.0,0.0,0.0,0.0,0.0,0.0,0.0,0.0,0.0,0.0,0.0,0.0,0.0,0.0,0.0,0.0,0.0,0.0,0.0,0.0,0.0,0.0,0.0,0.0,0.0,0.0,0.0,0.0,0.0,0.0,-0.9749,-1.0906,-1.356,-1.69,-1.864,-2.0092,-2.1635,-2.4732,-2.6154,-2.7322,-3.11,-3.2311,-3.2359,-3.2677,0.0,-3.3366,-3.1217,-3.051,-3.0784,-3.2377,-3.1353,-3.0559,0.0,0.0,-3.2258,-3.1518,-3.1979,-3.2203,-3.1368,-3.1101,-3.1169,-3.1645,-3.1548,-3.1382,-3.1305,-3.0858,-3.0764,-3.1341,-3.1413,-3.1357,-3.1219,-3.1164,-3.1169,-3.1223,-3.1156,-3.1148,-3.1199,-3.0491,-3.0203,-3.0453,-2.9964,-2.9796,-2.9999,-2.9404,-2.9146,-2.9223,-2.7621,-2.6866,-2.6831,-2.6094,-2.5704,-2.561,-2.5543,-2.5471,-2.542,-2.533,-2.5308,-2.5308,-2.5308,-2.5298,-2.5238,-2.4929,-2.479,-2.4716,0.0,0.0,0.0,0.0,0.0,0.0,0.0,0.0,0.0,0.0,0.0,0.0,0.0,0.0,0.0,0.0,0.0,0.0,0.0,0.0,0.0,0.0,0.0,0.0,0.0,0.0,0.0,0.0,0.0,0.0,0.0,0.0,0.0,0.0,0.0,0.0,0.0,0.0,0.0,0.0,0.0,0.0,-0.595,-0.708,-0.9122,-1.1868,-1.5359,-1.7932,0.0,0.0,-2.4555,-2.6382,-2.9206,-3.0527,-3.1029,-3.0883,-3.1533,0.0,-3.1221,-2.9933,0.0,0.0,-2.9187,-2.8472,-2.9302,-2.9247,-2.906,-2.9095,-2.9894,-3.0569,-3.0487,-3.0806,-3.1265,0.0,-3.1992,-3.1805,-3.0974,-3.0984,-3.1128,-3.1331,-3.1369,-3.1357,-3.1219,-3.0818,-3.068,-3.0939,-3.0765,-3.0582,-3.0366,-3.0259,-3.0111,-2.9913,-2.9661,-2.9678,-2.9999,-2.9131,-2.8835,-2.9088,-2.731,-2.6543,-2.668,-2.5948,-2.561,-2.5641,-2.5587,-2.5547,-2.55,-2.5447,-2.5395,-2.5354,-2.5354,-2.533,-2.5253,-2.4916,-2.4804,-2.4746,0.0,0.0,0.0,0.0,0.0,0.0,0.0,0.0,0.0,0.0,0.0,0.0,0.0,0.0,0.0,0.0,0.0,0.0,0.0,0.0,0.0,0.0,0.0,0.0,0.0,0.0,0.0,0.0,0.0,0.0,0.0,0.0,0.0,0.0,0.0,0.0,0.0,0.0,0.0,0.0,0.0,0.0,-0.2697,-0.4584,-0.6566,-0.8909,-1.3214,-1.6427,0.0,0.0,-2.3441,-2.545,-2.7588,-2.8856,-2.9513,-2.9197,-2.9358,-2.9657,-2.9707,0.0,0.0,-2.7334,-2.7102,-2.6681,-2.606,-2.6196,-2.6439,-2.6524,-2.7495,-2.8568,-2.9445,-3.0035,-3.0713,-3.1661,-3.202,-3.1921,-3.1155,-3.1444,-3.1804,-3.1923,-3.196,-3.1972,-3.2032,-3.122,-3.0935,-3.1446,-3.1101,-3.0728,-3.0445,-3.0709,-3.047,-2.9649,-2.9696,-2.9748,-2.9829,-2.8879,-2.8484,-2.8635,-2.7033,-2.6297,-2.6292,-2.5809,-2.5613,-2.5662,-2.561,-2.5597,-2.5564,-2.5529,-2.5465,-2.5402,-2.5398,-2.5354,-2.5259,-2.4968,-2.4828,-2.4746,0.0,0.0,0.0,0.0,0.0,0.0,0.0,0.0,0.0,0.0,0.0,0.0,0.0,0.0,0.0,0.0,0.0,0.0,0.0,0.0,0.0,0.0,0.0,0.0,0.0,0.0,0.0,0.0,0.0,0.0,0.0,0.0,0.0,0.0,0.0,0.0,0.0,0.0,0.0,0.0,0.0,0.0,-0.031,-0.3779,-0.6923,-0.9883,-1.3234,0.0,0.0,0.0,-2.3149,-2.4183,-2.6657,-2.755,0.0,-2.8066,-2.6755,0.0,0.0,0.0,-2.4153,-2.5133,-2.5509,-2.5484,-2.4827,-2.5633,-2.6154,-2.4944,-2.5697,-2.699,-2.8398,-2.8625,-2.9148,-3.0839,-3.1085,-3.1371,-3.2304,-3.2407,-3.2602,-3.325,-3.3351,-3.3546,0.0,-3.2972,-3.2591,-3.3441,-3.2838,-3.246,-3.2512,-3.2528,-3.1806,-3.024,-3.0424,-3.0184,-2.9433,-2.8734,-2.8104,-2.754,-2.6631,-2.5898,-2.5361,-2.5444,-2.5548,-2.5603,-2.5602,-2.5561,-2.5493,-2.5491,-2.5468,-2.539,-2.5402,-2.5354,-2.5274,-2.5077,-2.4917,-2.4746,0.0,0.0,0.0,0.0,0.0,0.0,0.0,0.0,0.0,0.0,0.0,0.0,0.0,0.0,0.0,0.0,0.0,0.0,0.0,0.0,0.0,0.0,0.0,0.0,0.0,0.0,0.0,0.0,0.0,0.0,0.0,0.0,0.0,0.0,0.0,0.0,0.0,0.0,0.0,0.0,0.0,0.0,-0.028,-0.2178,-0.6432,-1.1829,0.0,0.0,0.0,0.0,0.0,0.0,-2.578,0.0,0.0,-2.6314,0.0,0.0,0.0,0.0,-2.176,-2.173,-2.162,-2.1498,-2.1264,-2.1566,-2.1982,-2.2324,-2.2911,-2.387,-2.5753,-2.6967,-2.8134,-2.9481,-3.0842,-3.1727,-3.1789,-3.2966,-3.3938,-3.4163,-3.46,0.0,0.0,0.0,0.0,-3.3617,-3.3403,-3.2925,-3.2226,-3.2451,-3.1849,-3.0246,-3.0286,-3.0028,-2.9402,-2.8466,-2.7828,-2.7476,-2.6209,-2.5514,-2.536,-2.5468,-2.554,-2.5603,-2.5644,-2.5659,-2.5634,-2.5634,-2.5564,-2.5418,-2.4874,-2.4937,-2.5216,-2.4465,-2.4511,-2.4872,0.0,0.0,0.0,0.0,0.0,0.0,0.0,0.0,0.0,0.0,0.0,0.0,0.0,0.0,0.0,0.0,0.0,0.0,0.0,0.0,0.0,0.0,0.0,0.0,0.0,0.0,0.0,0.0,0.0,0.0,0.0,0.0,0.0,0.0,0.0,0.0,0.0,0.0,0.0,0.0,0.0,0.0,-0.2441,-0.4683,-0.9549,0.0,0.0,0.0,0.0,0.0,0.0,0.0,0.0,0.0,0.0,0.0,0.0,0.0,0.0,-2.0179,-1.9471,-1.9368,-1.9014,-1.8557,-1.8233,-1.8141,-1.84,-1.9519,-2.051,-2.193,-2.4395,-2.6198,-2.7571,-2.8414,-2.9817,-3.0962,-3.1353,-3.2578,-3.3822,-3.4836,-3.5128,-3.5618,0.0,0.0,0.0,-3.3826,-3.3547,-3.2978,-3.2057,-3.2242,-3.1702,-3.0253,-3.021,-2.9752,-2.8841,-2.821,-2.7625,-2.705,-2.5864,-2.5335,-2.5409,-2.545,-2.5491,-2.5563,-2.5606,-2.5636,-2.5661,-2.5661,-2.5425,-2.505,-2.4821,-2.462,-2.4407,-2.4042,-2.3995,-2.415,0.0,0.0,0.0,0.0,0.0,0.0,0.0,0.0,0.0,0.0,0.0,0.0,0.0,0.0,0.0,0.0,0.0,0.0,0.0,0.0,0.0,0.0,0.0,0.0,0.0,0.0,0.0,0.0,0.0,0.0,0.0,0.0,0.0,0.0,0.0,0.0,0.0,0.0,0.0,0.0,0.0,0.0,-0.6889,-1.0969,0.0,0.0,0.0,0.0,0.0,0.0,0.0,0.0,0.0,0.0,0.0,0.0,0.0,-2.0439,-1.9585,-1.8332,-1.7368,-1.7977,-1.7466,-1.6581,-1.5685,-1.545,-1.567,-1.6704,-1.8627,-2.1113,0.0,0.0,-2.7332,-2.7665,-2.8204,-2.9236,-3.1116,-3.1433,-3.2475,0.0,0.0,0.0,0.0,0.0,0.0,-3.4051,-3.3414,-3.2739,-3.2038,-3.1985,-3.1429,-3.021,-3.0143,-2.9384,-2.7824,-2.7923,-2.7385,-2.6199,-2.559,-2.5326,-2.5383,-2.5383,-2.5438,-2.5506,-2.551,-2.5504,-2.5543,-2.5582,-2.5097,-2.4366,-2.5085,-2.4397,-2.3042,-2.3722,-2.339,-2.2768,0.0,0.0,0.0,0.0,0.0,0.0,0.0,0.0,0.0,0.0,0.0,0.0,0.0,0.0,0.0,0.0,0.0,0.0,0.0,0.0,0.0,0.0,0.0,0.0,0.0,0.0,0.0,0.0,0.0,0.0,0.0,0.0,0.0,0.0,0.0,0.0,0.0,0.0,0.0,0.0,0.0,0.0,-1.5163,0.0,0.0,0.0,0.0,0.0,0.0,0.0,0.0,0.0,0.0,0.0,-2.2704,0.0,0.0,-1.8971,-1.684,-1.6302,-1.6059,-1.4701,-1.3631,-1.2838,-1.287,-1.2649,-1.3396,-1.6682,-1.8246,-2.0076,0.0,0.0,0.0,-2.7535,-2.8868,0.0,-3.0699,-3.1754,0.0,-3.4395,0.0,-3.5279,-3.5807,-3.556,0.0,0.0,-3.3461,-3.3233,-3.1917,-3.1954,-3.1299,-2.9792,-2.9454,-2.8822,-2.7816,-2.6953,-2.5995,-2.4965,-2.5193,-2.5234,-2.5105,-2.5301,-2.5404,-2.5431,-2.549,-2.5171,-2.4682,-2.5327,-2.5097,-2.4269,-2.3807,-2.3728,-2.3734,-2.2589,-2.2814,-2.3706,0.0,0.0,0.0,0.0,0.0,0.0,0.0,0.0,0.0,0.0,0.0,0.0,0.0,0.0,0.0,0.0,0.0,0.0,0.0,0.0,0.0,0.0,0.0,0.0,0.0,0.0,0.0,0.0,0.0,0.0,0.0,0.0,0.0,0.0,0.0,0.0,0.0,0.0,0.0,0.0,0.0,0.0,0.0,0.0,0.0,0.0,0.0,0.0,0.0,0.0,0.0,-2.5448,-2.5547,-2.3903,-2.1904,-2.1531,0.0,-1.8207,-1.6516,-1.5267,-1.42,-1.3179,-1.1222,-0.9899,-1.1138,-1.1065,-1.1981,-1.6427,-1.8882,0.0,0.0,0.0,0.0,0.0,0.0,0.0,-3.0048,-3.1207,-3.252,0.0,-3.4314,0.0,-3.5143,-3.4622,-3.3871,0.0,-3.3461,-3.3063,-3.1409,-3.1051,-3.0339,-2.9106,-2.8506,-2.7771,-2.6878,-2.5861,-2.5107,-2.4631,-2.4993,-2.5105,-2.5016,-2.5255,-2.5359,-2.5363,-2.5398,-2.5178,-2.4814,-2.5333,-2.4847,-2.3768,-2.3629,-2.3142,-2.2444,-2.1752,-2.212,-2.2867,0.0,0.0,0.0,0.0,0.0,0.0,0.0,0.0,0.0,0.0,0.0,0.0,0.0,0.0,0.0,0.0,0.0,0.0,0.0,0.0,0.0,0.0,0.0,0.0,0.0,0.0,0.0,0.0,0.0,0.0,0.0,0.0,0.0,0.0,0.0,0.0,0.0,0.0,0.0,0.0,0.0,0.0,0.0,0.0,0.0,0.0,0.0,0.0,0.0,0.0,-2.819,-2.5701,-2.4347,-2.3052,-2.1873,-2.1326,-1.9683,-1.7911,-1.7259,-1.483,-1.2515,-1.2514,-1.0154,-0.8374,-1.0617,-1.0942,-1.2176,-1.6996,0.0,-2.3519,-2.557,0.0,-2.8929,-2.7438,0.0,-2.863,-2.9768,-3.0569,-3.1746,-3.3647,-3.3627,-3.3667,-3.4171,-3.3231,-3.2751,-3.3086,-3.3028,-3.2292,-3.0715,-2.973,-2.8831,-2.7949,-2.7302,-2.6487,-2.5504,-2.4832,-2.4567,-2.4723,-2.4904,-2.4998,-2.498,-2.5203,-2.5308,-2.5308,-2.5308,-2.5277,-2.5231,-2.5421,-2.4604,-2.3323,-2.3902,-2.2758,-2.0787,-2.1187,-2.1416,-2.1372,0.0,0.0,0.0,0.0,0.0,0.0,0.0,0.0,0.0,0.0,-3.1973,-3.077,0.0,0.0,0.0,0.0,0.0,0.0,0.0,0.0,0.0,0.0,0.0,0.0,0.0,0.0,0.0,0.0,0.0,0.0,0.0,0.0,0.0,0.0,0.0,0.0,0.0,0.0,0.0,0.0,0.0,0.0,0.0,0.0,0.0,0.0,0.0,0.0,0.0,0.0,-2.8993,-2.7501,-2.6103,-2.3994,-2.1806,-2.0822,-1.9449,-1.7912,-1.6376,-1.4879,-1.3294,-1.1585,-1.0807,-1.0842,-1.2339,-1.4242,0.0,0.0,0.0,-2.6327,-2.8875,-2.9377,0.0,-3.0732,0.0,0.0,0.0,0.0,-3.1697,0.0,0.0,0.0,0.0,0.0,0.0,0.0,-3.0907,-3.0633,-3.0219,-2.8595,-2.7005,-2.5546,-2.5634,-2.5307,-2.4477,-2.4493,-2.4426,-2.4312,-2.4783,-2.4937,-2.4842,-2.5154,-2.5308,-2.5308,-2.5308,-2.4925,-2.4392,-2.5188,-2.4937,-2.4044,-2.351,-2.3005,-2.2382,-2.1008,-2.0938,-2.1436,0.0,0.0,0.0,0.0,0.0,0.0,0.0,-3.4791,-3.4134,-3.4464,-3.2806,-3.1791,-3.2323,-3.199,0.0,0.0,0.0,0.0,0.0,0.0,0.0,0.0,0.0,0.0,0.0,0.0,0.0,0.0,0.0,0.0,0.0,0.0,0.0,0.0,0.0,0.0,0.0,0.0,0.0,0.0,0.0,0.0,0.0,0.0,0.0,0.0,0.0,0.0,0.0,0.0,-3.0998,-2.916,-2.609,-2.3839,-2.2154,-2.1133,-1.9943,-1.8753,-1.77,-1.5734,-1.3882,-1.34,-1.2883,-1.3008,-1.4994,0.0,0.0,0.0,0.0,-2.9398,-3.0865,0.0,0.0,0.0,0.0,0.0,0.0,0.0,0.0,0.0,0.0,0.0,0.0,0.0,0.0,-3.0047,-2.9471,-2.9118,-2.9062,-2.7179,-2.5642,-2.4611,-2.4541,-2.4409,-2.4208,-2.4294,-2.4294,-2.4218,-2.4663,-2.4869,-2.4811,-2.5143,-2.5077,-2.4697,-2.5115,-2.4841,-2.4173,-2.5116,-2.5018,-2.4211,-2.3905,-2.346,-2.2883,-2.1998,-2.2156,-2.276,0.0,0.0,0.0,0.0,0.0,0.0,0.0,-3.5222,-3.4848,-3.4769,-3.3872,-3.3295,-3.3449,-3.3112,-3.305,0.0,0.0,0.0,0.0,0.0,0.0,0.0,0.0,0.0,0.0,0.0,0.0,0.0,0.0,0.0,0.0,0.0,0.0,0.0,0.0,0.0,0.0,0.0,0.0,0.0,0.0,0.0,0.0,0.0,0.0,0.0,0.0,0.0,0.0,0.0,-3.2967,-3.0877,-2.6698,-2.4608,-2.3433,-2.2149,-2.1261,-2.0497,-1.9576,-1.7145,-1.5082,-1.5957,-1.5757,-1.5968,-1.848,-2.209,0.0,0.0,-3.0282,-3.2483,-3.3176,0.0,0.0,0.0,0.0,0.0,0.0,0.0,0.0,0.0,0.0,0.0,0.0,0.0,0.0,-2.9152,-2.8065,-2.7423,-2.7337,-2.5855,-2.4667,-2.3982,-2.3713,-2.3714,-2.3986,-2.4064,-2.4094,-2.4094,-2.4534,-2.4738,-2.4746,-2.5043,-2.4842,-2.4291,-2.495,-2.4889,-2.4361,-2.5172,-2.5099,-2.4469,-2.4414,-2.3957,-2.3268,-2.3012,-2.3313,-2.3717,0.0,0.0,0.0,0.0,0.0,0.0,0.0,-3.5749,-3.5728,-3.56,-3.5426,-3.5303,-3.527,-3.363,-3.3038,0.0,0.0,0.0,0.0,0.0,0.0,0.0,0.0,0.0,0.0,0.0,0.0,0.0,0.0,0.0,0.0,0.0,0.0,0.0,0.0,0.0,0.0,0.0,0.0,0.0,0.0,0.0,0.0,0.0,0.0,0.0,0.0,0.0,0.0,0.0,0.0,-3.2802,-3.006,-2.8177,-2.6524,-2.4242,0.0,0.0,-2.1004,-1.8999,-1.7687,-1.7898,-1.9114,-2.0862,-2.3235,0.0,0.0,-3.2742,-3.3997,-3.5324,-3.7132,-3.6345,0.0,0.0,0.0,0.0,0.0,0.0,0.0,0.0,0.0,0.0,0.0,0.0,-2.9154,-2.7881,-2.628,-2.5213,-2.4838,-2.4942,-2.4327,-2.2903,-2.3105,-2.3247,-2.33,-2.3588,-2.3753,-2.3746,-2.4275,-2.4537,-2.4526,-2.4753,-2.4816,-2.4747,-2.4943,-2.499,-2.4948,-2.534,-2.5452,-2.5327,-2.4663,-2.4351,-2.4175,-2.3309,-2.2993,-2.2868,0.0,0.0,0.0,0.0,0.0,0.0,-3.5657,-3.5719,-3.5743,-3.5642,-3.5854,-3.608,-3.6212,-3.5881,-3.5509,0.0,0.0,0.0,0.0,0.0,0.0,0.0,0.0,0.0,0.0,0.0,0.0,0.0,0.0,0.0,0.0,0.0,0.0,0.0,0.0,0.0,0.0,0.0,0.0,0.0,0.0,0.0,0.0,0.0,0.0,0.0,0.0,0.0,0.0,0.0,0.0,0.0,-3.3359,-3.2297,0.0,0.0,-2.6169,-2.6198,-2.4744,-2.3724,-2.3199,-2.3723,-2.469,-2.5807,-2.6821,0.0,0.0,-3.386,-3.5112,-3.6567,-3.8184,-3.7961,-3.7691,0.0,0.0,0.0,0.0,0.0,0.0,0.0,0.0,0.0,0.0,0.0,-2.7645,-2.5802,-2.4678,-2.3787,-2.3096,-2.3675,-2.3638,-2.273,-2.2835,-2.2996,-2.32,-2.3533,-2.3703,-2.3703,-2.4033,-2.4291,-2.4485,-2.4003,-2.3859,-2.4035,-2.4201,-2.4213,-2.4176,-2.5069,-2.5383,-2.5246,-2.4598,-2.4336,-2.4232,-2.3332,-2.298,-2.2879,0.0,0.0,0.0,0.0,0.0,-3.5671,-3.5611,-3.5659,-3.5768,-3.5955,-3.6238,-3.6611,-3.7095,-3.781,-3.7792,-3.6589,0.0,0.0,0.0,0.0,0.0,0.0,0.0,0.0,0.0,0.0,0.0,0.0,0.0,0.0,0.0,0.0,0.0,0.0,0.0,0.0,0.0,0.0,0.0,0.0,0.0,0.0,0.0,0.0,0.0,0.0,0.0,0.0,0.0,0.0,0.0,0.0,0.0,0.0,0.0,0.0,-2.85,-2.8668,-2.771,-2.7411,-2.7579,-2.8326,-2.8849,-2.9349,0.0,0.0,-3.4179,-3.4814,-3.6084,-3.7532,-3.9026,-3.9306,-3.928,0.0,0.0,0.0,0.0,0.0,0.0,0.0,0.0,0.0,0.0,-2.763,-2.6103,-2.456,-2.3778,-2.3023,-2.2191,-2.2799,-2.2929,-2.2395,-2.2502,-2.2691,-2.2933,-2.3242,-2.3403,-2.3403,-2.3645,-2.3809,-2.3887,-2.3222,-2.3081,-2.3364,-2.3554,-2.3712,-2.3865,-2.4879,-2.5263,-2.5112,-2.4531,-2.4309,-2.4232,-2.3602,-2.338,-2.3335,0.0,0.0,0.0,0.0,0.0,0.0,-3.5611,-3.5659,-3.5998,-3.6788,-3.6787,-3.7076,-3.8089,-3.9013,-3.9244,-3.8438,0.0,0.0,0.0,0.0,0.0,0.0,0.0,0.0,0.0,0.0,-3.6945,-3.6883,-3.7836,0.0,0.0,0.0,0.0,0.0,0.0,0.0,0.0,0.0,0.0,0.0,0.0,0.0,0.0,0.0,0.0,0.0,0.0,0.0,0.0,0.0,0.0,0.0,0.0,0.0,0.0,0.0,-3.0967,-3.135,-2.9096,-2.9059,-2.9847,-3.0493,-3.0621,-3.1009,0.0,0.0,-3.4661,-3.6327,-3.7373,-3.8507,-4.0162,-4.0469,-4.0397,0.0,0.0,0.0,0.0,0.0,0.0,0.0,0.0,0.0,-2.7809,-2.5809,-2.4619,-2.459,-2.3777,-2.3006,-2.2327,-2.25,-2.2291,-2.163,-2.2061,-2.231,-2.231,-2.2577,-2.2708,-2.2721,-2.3057,-2.2977,-2.2517,-2.2517,-2.2686,-2.3024,-2.3221,-2.3766,-2.4516,-2.4931,-2.5106,-2.5057,-2.4508,-2.4302,-2.4297,-2.4297,-2.4289,-2.417,0.0,0.0,0.0,0.0,0.0,0.0,0.0,-3.5686,-3.5998,-3.6783,-3.7373,-3.8069,-3.8927,-3.9933,-4.0686,-4.1035,0.0,0.0,0.0,0.0,0.0,0.0,0.0,0.0,0.0,0.0,-3.8717,-3.8618,-3.9489,-4.0023,-4.0176,0.0,0.0,0.0,0.0,0.0,0.0,0.0,0.0,0.0,0.0,0.0,0.0,0.0,0.0,0.0,0.0,0.0,0.0,0.0,0.0,0.0,0.0,0.0,0.0,0.0,0.0,0.0,-3.333,-3.3267,-3.3532,-3.4107,-3.3716,-3.3262,-3.3515,0.0,-3.5455,-3.6489,-3.7873,-3.9227,-4.0304,-4.0496,-4.0281,-3.9652,0.0,0.0,0.0,0.0,0.0,0.0,0.0,0.0,0.0,0.0,-2.3116,-2.2652,-2.236,-2.1719,-2.057,-2.1268,-2.1544,-2.1214,-2.1915,-2.2152,-2.1823,-2.2422,-2.2708,-2.2708,-2.23,-2.2528,-2.3274,-2.1755,-2.1949,-2.344,-2.252,-2.242,-2.292,-2.3832,-2.3728,-2.301,-2.3245,-2.3014,-2.2528,-2.2462,-2.2143,-2.1737,0.0,0.0,0.0,0.0,0.0,0.0,0.0,-3.5732,-3.6168,-3.7273,-3.7904,-3.868,-3.987,-4.0892,-4.1726,-4.2289,0.0,0.0,0.0,0.0,0.0,0.0,0.0,0.0,0.0,-3.914,-3.951,-3.9361,-4.0267,-4.0781,-4.0925,-4.0779,-4.0476,0.0,0.0,0.0,0.0,0.0,0.0,0.0,0.0,0.0,-4.5199,0.0,0.0,0.0,0.0,0.0,0.0,0.0,0.0,0.0,0.0,0.0,0.0,0.0,0.0,0.0,0.0,-3.6003,-3.6143,-3.6583,-3.5649,0.0,0.0,0.0,0.0,-3.6894,-3.8046,-3.9065,-3.99,-4.0345,-4.0386,0.0,0.0,0.0,0.0,0.0,0.0,0.0,0.0,0.0,0.0,-2.3696,-2.2615,-2.2422,-2.2203,-2.161,-2.0516,-2.099,-2.1062,-2.053,-2.137,-2.166,-2.1368,-2.1989,-2.2143,-2.1867,-2.1589,-2.1673,-2.2,-2.0894,-2.1218,-2.2611,-2.2014,-2.2108,0.0,-2.322,-2.3073,-2.2546,-2.2364,-2.2049,-2.1668,-2.1623,-2.1333,-2.1022,0.0,0.0,0.0,0.0,0.0,0.0,0.0,-3.5814,-3.6469,-3.8004,-3.8266,-3.8981,-4.0717,-4.1741,-4.2366,-4.248,0.0,0.0,0.0,0.0,0.0,0.0,0.0,0.0,0.0,-3.9354,-3.9703,-3.9573,-4.0378,-4.0842,-4.098,-4.0781,-4.0777,-4.0886,-4.0636,0.0,0.0,0.0,0.0,0.0,0.0,-4.455,0.0,0.0,0.0,0.0,0.0,0.0,0.0,0.0,0.0,0.0,0.0,0.0,0.0,0.0,0.0,0.0,0.0,0.0,0.0,0.0,0.0,0.0,0.0,0.0,0.0,0.0,0.0,0.0,0.0,0.0,0.0,0.0,0.0,0.0,0.0,0.0,0.0,0.0,0.0,0.0,-2.4544,-2.3413,-2.2914,-2.3432,-2.2957,-2.2328,-2.159,-2.1362,-2.0775,-1.9741,-2.0497,-2.091,-2.0943,-2.1353,-2.1207,-2.0533,-2.0907,-2.0492,-1.9434,-2.0073,-2.0581,-2.099,-2.167,-2.2547,-2.3426,-2.2912,-2.2908,-2.3076,-2.1789,-2.138,-2.1491,-2.1565,-2.1582,-2.1625,0.0,0.0,0.0,0.0,0.0,0.0,0.0,0.0,0.0,0.0,-3.7951,-3.8799,-3.988,-4.1414,-4.2655,0.0,0.0,0.0,0.0,0.0,0.0,0.0,0.0,0.0,0.0,-4.1416,-4.174,-4.22,-4.1767,-4.1977,-4.277,-4.1365,-4.1088,-4.1754,-4.099,-4.0859,0.0,0.0,0.0,0.0,-4.4455,-4.5163,0.0,0.0,0.0,0.0,-4.5547,-4.5469,0.0,0.0,0.0,0.0,0.0,0.0,0.0,0.0,-4.1454,0.0,0.0,0.0,0.0,0.0,0.0,0.0,0.0,0.0,0.0,0.0,0.0,0.0,0.0,0.0,0.0,0.0,0.0,0.0,0.0,0.0,0.0,0.0,-2.5621,-2.4424,-2.3887,-2.3159,-2.2557,-2.2173,-2.2009,-2.143,-2.0232,-2.061,-2.0489,-1.9723,-1.9892,-2.0156,-2.0466,-2.091,-2.1053,-2.0876,-2.016,-2.0114,-2.0599,-2.025,-2.0585,-2.1446,-2.156,-2.1457,-2.1207,-2.1696,-2.122,-2.027,-2.0891,-2.0825,-2.0459,-2.1114,-2.1059,-2.0731,0.0,0.0,0.0,0.0,0.0,0.0,0.0,0.0,0.0,0.0,0.0,0.0,0.0,0.0,0.0,0.0,0.0,0.0,0.0,0.0,0.0,0.0,0.0,0.0,-4.2089,-4.1712,-4.1643,-4.1912,-4.1431,-4.1558,-4.2183,-4.1161,-4.1015,-4.1581,-4.1397,-4.1519,-4.1947,-4.2789,-4.3746,-4.4736,-4.5245,0.0,0.0,0.0,0.0,0.0,-4.5762,-4.5391,0.0,-4.3476,-4.2793,-4.2461,0.0,0.0,0.0,0.0,-4.2156,0.0,0.0,0.0,0.0,0.0,0.0,0.0,0.0,0.0,0.0,0.0,0.0,0.0,0.0,0.0,0.0,0.0,0.0,0.0,0.0,0.0,0.0,0.0,-2.4642,-2.3688,0.0,-2.3044,-2.2558,-2.2188,-2.1859,-2.1246,-2.0213,-2.0213,-2.0064,-1.9708,-1.9708,-1.9803,-2.0017,-2.0449,-2.0622,-2.0495,-2.0098,-2.0129,-2.0551,-2.0551,-2.0671,-2.0881,-2.122,-2.1073,-2.0624,-2.0696,-2.0413,-1.9963,-2.0299,-2.0205,-1.9979,-2.0502,-2.0473,-2.0242,0.0,0.0,0.0,0.0,0.0,0.0,0.0,0.0,0.0,0.0,0.0,0.0,0.0,0.0,0.0,0.0,0.0,0.0,0.0,0.0,0.0,0.0,0.0,-4.2426,-4.2502,-4.1502,-4.1027,-4.1073,-4.0958,-4.1061,-4.136,-4.1064,-4.0931,-4.1051,-4.1854,-4.2216,-4.2324,-4.3893,-4.4755,-4.5139,-4.5845,0.0,0.0,0.0,0.0,0.0,0.0,0.0,0.0,-4.373,-4.2676,-4.1484,-4.2031,0.0,0.0,0.0,0.0,0.0,0.0,0.0,0.0,0.0,0.0,0.0,0.0,0.0,0.0,0.0,0.0,0.0,0.0,0.0,0.0,0.0,0.0,0.0,0.0,0.0,0.0,0.0,-2.3706,0.0,-2.3417,-2.3076,-2.2754,-2.2557,-2.2009,-2.1365,-2.0583,-2.0004,-1.9708,-1.9708,-1.9708,-1.9744,-1.98,-2.0124,-2.0185,-1.9972,-2.0328,-2.0351,-2.0093,-2.0846,-2.0835,-2.0217,-2.0903,-2.1059,-2.077,-2.0138,-2.0138,-2.047,-1.9943,-1.9749,-1.9773,-1.9901,-1.9954,-2.0031,0.0,0.0,0.0,0.0,0.0,0.0,0.0,0.0,0.0,0.0,0.0,0.0,0.0,0.0,0.0,0.0,0.0,0.0,0.0,0.0,0.0,0.0,-4.3652,-4.301,-4.4264,-4.2719,-4.2491,-4.372,-4.3028,-4.3115,-4.3903,-4.2538,-4.1571,-4.1051,-4.2532,-4.3197,-4.3255,-4.438,-4.5258,-4.5939,-4.6166,0.0,0.0,0.0,0.0,0.0,0.0,0.0,0.0,-4.3945,-4.3047,-4.2129,-4.1562,0.0,0.0,0.0,0.0,0.0,-4.0211,0.0,0.0,0.0,0.0,0.0,0.0,0.0,0.0,0.0,0.0,0.0,0.0,0.0,0.0,0.0,0.0,0.0,0.0,0.0,-2.6963,-2.4185,0.0,-2.3299,-2.2877,-2.3231,-2.3016,-2.1934,-2.1754,-2.1156,-1.9932,-1.9768,-1.9708,-1.9708,-1.9708,-1.9856,-2.0195,-2.0263,-2.0285,-2.0243,-2.042,-2.0473,-2.043,-2.0958,-2.1123,-2.1021,-2.114,-2.0926,-2.0495,-2.0657,-2.0148,-1.9355,-2.0083,-2.0056,-1.9636,-1.9643,-1.9815,-2.0034,0.0,0.0,0.0,0.0,0.0,0.0,0.0,0.0,0.0,0.0,0.0,0.0,0.0,0.0,0.0,0.0,0.0,0.0,0.0,0.0,0.0,-4.6199,-4.4596,-4.3787,-4.3985,-4.2299,-4.1914,-4.2951,-4.2585,-4.2888,-4.3763,-4.2708,-4.2034,-4.1757,-4.2978,-4.3763,-4.4273,-4.5165,-4.5794,-4.6203,0.0,0.0,0.0,0.0,0.0,0.0,0.0,0.0,0.0,0.0,-4.2441,-4.1699,-4.1328,0.0,0.0,0.0,0.0,0.0,-4.0373,-3.9178,0.0,0.0,0.0,0.0,0.0,0.0,0.0,0.0,0.0,0.0,0.0,0.0,0.0,0.0,0.0,0.0,-2.8878,-2.7202,-2.5441,0.0,0.0,-2.3137,-2.3176,-2.3152,-2.2733,-2.1769,-2.1365,-2.0737,-1.9753,-1.9708,-1.9708,-1.9708,-1.9708,-1.9782,-1.9965,-2.0177,-2.0534,-2.0991,-2.1072,-2.1236,-2.1485,-2.17,-2.158,-2.1187,-2.0888,-2.0487,-2.0018,-1.9905,-1.9542,-1.9054,-1.9624,-1.9622,-1.9315,-1.9592,-1.983,-2.003,0.0,0.0,0.0,0.0,0.0,0.0,0.0,0.0,0.0,0.0,0.0,0.0,0.0,0.0,0.0,0.0,0.0,0.0,0.0,0.0,-4.6108,-4.6108,-4.5269,-4.4531,-4.3993,-4.2089,-4.1532,-4.2393,-4.22,-4.2591,-4.3505,-4.3253,-4.295,-4.2646,-4.3749,-4.4488,-4.4979,-4.5796,-4.6201,-4.6308,0.0,0.0,0.0,0.0,0.0,0.0,0.0,0.0,0.0,0.0,0.0,0.0,0.0,0.0,0.0,0.0,-4.0734,-4.0457,-4.003,-3.8793,0.0,0.0,0.0,0.0,0.0,0.0,0.0,0.0,0.0,0.0,0.0,0.0,0.0,0.0,0.0,-2.8854,-2.7794,-2.593,-2.4348,-2.3463,-2.309,-2.3092,-2.355,-2.3062,-2.2418,-2.1739,-2.1081,-2.0423,-1.9738,-1.9708,-1.9708,-1.9708,-1.9708,-1.9747,-1.9839,-2.0158,-2.0699,-2.146,-2.1552,-2.1838,-2.231,-2.2377,-2.2092,-2.1523,-2.1024,-2.0595,-2.025,-1.9955,-1.9687,-1.948,-1.978,-1.9543,-1.9134,-1.9625,-1.9871,-2.0021,0.0,0.0,0.0,0.0,0.0,0.0,0.0,0.0,0.0,0.0,0.0,0.0,0.0,0.0,0.0,0.0,0.0,0.0,0.0,0.0,-4.6108,-4.6108,-4.5269,-4.5097,-4.5713,-4.3276,-4.2701,-4.4124,-4.3374,-4.3497,-4.4428,-4.5245,-4.4874,-4.3581,-4.533,-4.5683,-4.5058,-4.5918,-4.6289,-4.6308,-4.6308,0.0,0.0,0.0,0.0,0.0,0.0,0.0,0.0,0.0,0.0,0.0,0.0,0.0,0.0,0.0,0.0,-3.9416,-3.7738,-3.7478,0.0,0.0,0.0,0.0,0.0,0.0,0.0,0.0,0.0,0.0,0.0,0.0,0.0,0.0,0.0,-2.7285,-2.6682,0.0,-2.4976,-2.3724,-2.3556,-2.355,-2.3595,-2.3062,-2.2418,-2.1739,-2.1081,-2.0423,-1.9738,-1.9708,-1.9708,-1.9708,-1.9708,-1.9874,-2.0246,-2.0297,-2.055,-2.1039,-2.1414,-2.1838,-2.231,-2.2563,-2.2652,-2.2561,-2.2166,-2.1961,-2.1952,-2.2242,-2.1724,-2.0822,-2.1398,-2.0666,-1.9327,-1.967,-1.9847,-1.9945,0.0,0.0,0.0,0.0,0.0,0.0,0.0,0.0,0.0,0.0,0.0,0.0,0.0,0.0,0.0,0.0,0.0,0.0,0.0,0.0,-4.5978,-4.5978,-4.5622,-4.5571,-4.5896,-4.34,-4.2864,-4.4423,-4.4583,-4.4596,-4.4505,-4.4958,-4.486,-4.4372,-4.5152,-4.5605,-4.582,-4.6152,-4.6308,-4.6308,-4.6308,-4.6308,0.0,0.0,0.0,0.0,0.0,0.0,0.0,0.0,0.0,0.0,0.0,0.0,0.0,0.0,0.0,-3.9421,-3.8144,-3.7904,0.0,0.0,0.0,0.0,0.0,0.0,0.0,0.0,0.0,0.0,0.0,0.0,0.0,0.0,-2.7977,-2.6841,-2.5513,-2.5105,-2.4608,-2.3706,-2.3595,-2.3445,-2.3077,-2.2463,-2.1799,-2.1141,-2.0468,-1.9959,-1.9708,-1.9708,-1.9708,-1.9708,-1.9708,-1.9764,-1.9927,-1.9927,-2.0294,-2.0991,-2.1399,-2.1936,-2.255,-2.266,-2.2822,-2.2968,-2.2317,-2.2162,-2.231,-2.1956,-2.156,-2.1223,-2.1451,-2.1008,-2.0263,-2.0471,-2.0313,-2.0057,0.0,0.0,0.0,0.0,0.0,0.0,0.0,0.0,0.0,0.0,0.0,0.0,0.0,0.0,0.0,0.0,0.0,0.0,0.0,-4.5504,-4.5782,-4.5529,-4.5689,-4.5813,-4.5876,-4.3936,-4.3467,-4.4558,-4.5034,-4.511,-4.4849,-4.4985,-4.5086,-4.5142,-4.5003,-4.5291,-4.5898,-4.5898,-4.5898,-4.5918,-4.6191,-4.6308,0.0,0.0,0.0,0.0,0.0,0.0,0.0,0.0,0.0,0.0,0.0,0.0,0.0,0.0,0.0,0.0,-3.7804,-3.7487,0.0,0.0,0.0,0.0,0.0,0.0,0.0,0.0,0.0,0.0,0.0,0.0,0.0,0.0,-2.74,-2.6026,-2.5006,-2.4186,-2.3592,-2.3363,-2.3128,-2.2768,-2.2191,-2.1532,-2.0869,-2.0245,-1.9572,-1.9262,-1.9442,-1.9442,-1.953,-1.969,-1.9708,-1.9708,-1.9708,-1.9708,-2.0139,-2.0991,-2.1275,-2.1874,-2.2708,-2.281,-2.3045,-2.3333,-2.2883,-2.2818,-2.2992,-2.244,-2.2096,-2.1907,-2.1852,-2.1427,-2.0828,-2.1023,-2.0852,-2.0523,0.0,0.0,0.0,0.0,0.0,0.0,0.0,0.0,0.0,0.0,0.0,0.0,0.0,0.0,0.0,0.0,0.0,0.0,0.0,-4.5557,-4.5549,-4.4742,-4.5417,-4.5796,-4.5803,-4.5082,-4.4692,-4.4703,-4.4566,-4.4892,-4.5594,-4.5733,-4.583,-4.5864,-4.512,-4.4865,-4.498,-4.498,-4.498,-4.5078,-4.5937,-4.6289,-4.6113,0.0,0.0,0.0,0.0,0.0,0.0,0.0,0.0,0.0,0.0,0.0,0.0,0.0,-3.8652,-3.7108,-3.6168,0.0,0.0,0.0,0.0,0.0,0.0,0.0,0.0,0.0,0.0,0.0,0.0,0.0,0.0,-2.8121,-2.6005,-2.4622,-2.5277,-2.325,-2.1945,-2.2608,-2.2086,-2.1485,-2.0927,-2.0282,-1.966,-1.9135,-1.8477,-1.8341,-1.8855,-1.8893,-1.9151,-1.969,-1.9708,-1.9708,-1.9708,-1.9693,-2.0139,-2.0991,-2.0991,-2.1607,-2.2721,-2.3057,-2.338,-2.3714,-2.4046,-2.4208,-2.419,-2.419,-2.3731,-2.3006,-2.2868,-2.2005,-2.0861,-2.1197,-2.1396,-2.1393,0.0,0.0,0.0,0.0,0.0,0.0,0.0,0.0,0.0,0.0,0.0,0.0,0.0,0.0,0.0,0.0,0.0,0.0,0.0,-4.5223,-4.5549,-4.4742,-4.5324,-4.57,-4.5796,-4.5115,-4.4701,-4.4552,-4.5124,-4.5486,-4.5594,-4.5733,-4.5534,-4.5043,-4.4886,-4.4533,-4.4082,-4.4033,-4.4407,-4.5019,-4.5225,-4.5716,-4.6172,0.0,0.0,0.0,0.0,0.0,0.0,0.0,0.0,0.0,0.0,0.0,0.0,0.0,-3.8144,-3.787,-3.6324,0.0,0.0,0.0,0.0,0.0,0.0,0.0,0.0,0.0,0.0,0.0,0.0,0.0,0.0,-2.6289,-2.467,-2.3421,-2.3239,-2.2021,-2.121,-2.1419,-2.0923,-2.0343,-1.9697,-1.9461,-1.9079,-1.843,-1.8222,-1.8185,-1.8341,-1.8688,-1.8968,-1.9132,-1.9497,-1.9708,-1.9708,-1.9982,-2.0431,-2.0991,-2.1291,-2.1984,-2.3057,-2.3153,-2.3511,-2.4036,-2.3907,-2.3986,-2.419,-2.419,-2.4061,-2.386,-2.3968,-2.3465,-2.2722,-2.2973,-2.2459,-2.1607,0.0,0.0,0.0,0.0,0.0,0.0,0.0,0.0,0.0,0.0,0.0,0.0,0.0,0.0,0.0,0.0,0.0,0.0,0.0,0.0,-4.5389,-4.4232,-4.5088,-4.5677,-4.5836,-4.5441,-4.5175,-4.5066,-4.5254,-4.544,-4.5594,-4.5669,-4.5357,-4.4688,-4.438,-4.3851,-4.3183,-4.3106,-4.3416,-4.3958,-4.4252,-4.492,-4.5659,0.0,0.0,0.0,0.0,0.0,0.0,0.0,0.0,0.0,0.0,0.0,0.0,0.0,-3.7969,-3.7245,0.0,0.0,0.0,0.0,0.0,0.0,0.0,0.0,0.0,0.0,0.0,0.0,0.0,-2.7391,0.0,-2.5786,-2.4017,-2.2679,-2.2622,-2.1346,-2.0438,-2.0493,-2.0008,-1.9339,-1.8508,-1.842,-1.8145,-1.7516,-1.7463,-1.7565,-1.7767,-1.8302,-1.8669,-1.8893,-1.9424,-1.9708,-1.9708,-2.0089,-2.0533,-2.0991,-2.1399,-2.2085,-2.3009,-2.3141,-2.3566,-2.418,-2.3986,-2.4006,-2.419,-2.419,-2.419,-2.4228,-2.4512,-2.417,-2.3532,-2.3822,-2.3398,-2.2585,0.0,0.0,0.0,0.0,0.0,0.0,0.0,0.0,0.0,0.0,0.0,0.0,0.0,0.0,0.0,0.0,0.0,0.0,0.0,0.0,-4.5194,-4.3586,-4.4856,-4.5699,-4.5894,-4.5899,-4.5857,-4.5782,-4.5136,-4.5031,-4.5479,0.0,-4.5107,-4.4418,0.0,-4.2908,-4.2244,-4.218,-4.22,-4.2358,-4.3138,-4.3981,-4.4696,-4.3982,0.0,0.0,0.0,0.0,0.0,0.0,0.0,0.0,0.0,0.0,0.0,-3.9804,-3.8027,0.0,0.0,0.0,0.0,0.0,0.0,0.0,0.0,0.0,0.0,0.0,0.0,0.0,-2.7855,-2.6865,-2.6061,-2.6061,-2.3764,-2.2209,-2.2831,-2.1012,-1.9642,-1.9731,-1.9208,-1.8432,-1.7418,-1.7322,-1.7087,-1.6538,-1.65,-1.671,-1.7188,-1.7787,-1.8322,-1.8817,-1.9387,-1.9708,-1.9708,-2.0141,-2.0583,-2.1023,-2.1445,-2.2034,-2.2708,-2.3045,-2.3566,-2.419,-2.419,-2.419,-2.419,-2.4218,-2.4228,-2.4275,-2.467,-2.432,-2.3686,-2.407,-2.4203,-2.396,0.0,0.0,0.0,0.0,0.0,0.0,0.0,0.0,0.0,0.0,0.0,0.0,0.0,0.0,0.0,0.0,0.0,0.0,0.0,0.0,-4.5471,-4.447,-4.5191,-4.5699,-4.5894,-4.5899,-4.5583,-4.4954,-4.5417,0.0,0.0,0.0,0.0,-4.2571,0.0,-4.1926,-4.1133,-4.1133,-4.1516,-4.2162,-4.236,-4.3005,-4.3874,-4.3747,-4.3828,0.0,0.0,0.0,0.0,0.0,0.0,0.0,0.0,-4.0366,-4.0483,-3.9115,0.0,0.0,0.0,0.0,0.0,0.0,0.0,0.0,0.0,0.0,0.0,0.0,0.0,0.0,-2.7424,-2.6014,-2.4866,-2.4866,-2.2813,-2.1295,-2.1423,-2.0083,-1.8926,-1.8525,-1.7995,-1.7423,-1.6753,-1.6688,-1.6638,-1.65,-1.65,-1.6552,-1.668,-1.7585,-1.8165,-1.8283,-1.9207,-1.9708,-1.9708,-2.0465,-2.0894,-2.1023,-2.1781,-2.2337,-2.2708,-2.3045,-2.3566,-2.419,-2.419,-2.419,-2.4209,-2.4366,-2.4445,-2.4469,-2.4818,-2.4841,-2.4707,-2.4945,-2.4645,-2.3971,0.0,0.0,0.0,0.0,0.0,0.0,0.0,0.0,0.0,0.0,0.0,0.0,0.0,0.0,0.0,0.0,0.0,0.0,0.0,0.0,0.0,0.0,-4.5524,-4.577,-4.5894,-4.5558,-4.5149,-4.4701,0.0,0.0,0.0,0.0,0.0,-4.1995,0.0,-4.1597,-4.0793,-4.0781,-4.101,-4.1427,-4.1462,-4.2045,-4.2897,-4.3022,-4.334,-4.3594,-4.2715,0.0,0.0,0.0,0.0,0.0,0.0,0.0,-4.0736,-3.9374,0.0,0.0,0.0,0.0,0.0,0.0,0.0,0.0,0.0,0.0,0.0,0.0,0.0,-2.7776,-2.7619,-2.6056,-2.479,-2.479,-2.2813,-2.1213,-2.1039,-2.0179,-1.9203,-1.821,-1.7847,-1.7374,-1.6573,-1.65,-1.65,-1.65,-1.65,-1.6616,-1.6879,-1.7666,-1.8224,-1.8477,-1.9262,-1.9708,-1.9708,-2.0565,-2.0991,-2.1023,-2.1886,-2.2517,-2.296,-2.3288,-2.3714,-2.419,-2.419,-2.419,-2.4209,-2.4428,-2.4503,-2.4526,-2.4872,-2.5004,-2.5022,-2.5224,-2.5033,-2.4566,0.0,0.0,0.0,0.0,0.0,0.0,0.0,0.0,0.0,0.0,0.0,0.0,0.0,0.0,0.0,0.0,0.0,0.0,0.0,0.0,0.0,0.0,-4.5809,-4.5847,-4.5899,-4.5175,-4.4687,0.0,0.0,0.0,0.0,0.0,0.0,-4.168,0.0,-4.1394,-4.0757,-4.0704,-4.0686,-4.0674,-4.0743,-4.1213,-4.1898,-4.2094,-4.2617,-4.3164,-4.2441,-4.2187,-4.209,0.0,0.0,0.0,0.0,0.0,-4.0813,0.0,0.0,0.0,0.0,0.0,0.0,0.0,0.0,0.0,0.0,0.0,0.0,0.0,-2.8876,-2.8376,-2.8047,-2.6478,-2.5209,-2.5118,-2.3185,-2.1536,-2.1055,-2.06,-1.9781,-1.8405,-1.8165,-1.7706,-1.6731,-1.6552,-1.65,-1.65,-1.6595,-1.6837,-1.7271,-1.7907,-1.8438,-1.8893,-1.9424,-1.9708,-1.9708,-2.0565,-2.0991,-2.1023,-2.1886,-2.2584,-2.3129,-2.3448,-2.3827,-2.419,-2.419,-2.419,-2.4218,-2.4452,-2.4543,-2.4583,-2.4917,-2.5046,-2.5077,-2.5248,-2.5308,-2.5188,0.0,0.0,0.0,0.0,0.0,0.0,0.0,0.0,0.0,0.0,0.0,0.0,0.0,0.0,0.0,0.0,0.0,0.0,0.0,0.0,0.0,0.0,-4.5855,-4.5885,-4.5899,-4.5175,-4.4394,0.0,0.0,0.0,0.0,0.0,0.0,-4.0376,0.0,0.0,0.0,-4.0649,-4.0636,-4.053,-4.0667,-4.0825,-4.0988,0.0,0.0,0.0,0.0,0.0,0.0,0.0,0.0,0.0,0.0,0.0,0.0,0.0,0.0,0.0,0.0,0.0,0.0,0.0,0.0,0.0,0.0,0.0,0.0,0.0,-2.9673,-2.8669,-2.8389,-2.6939,-2.5629,-2.5167,-2.3366,-2.1782,-2.1102,-2.06,-1.9919,-1.8916,-1.838,-1.7867,-1.725,-1.6774,-1.65,-1.65,-1.693,-1.7209,-1.7312,-1.8263,-1.8836,-1.8893,-1.9424,-1.9708,-1.9708,-2.0565,-2.0991,-2.1023,-2.1886,-2.245,-2.2784,-2.3117,-2.3599,-2.419,-2.419,-2.419,-2.4228,-2.4618,-2.476,-2.4797,-2.5132,-2.5264,-2.5264,-2.5279,-2.5308,-2.5192,0.0,0.0,0.0,0.0,0.0,0.0,0.0,0.0,0.0,0.0,0.0,0.0,0.0,0.0,0.0,0.0,0.0,0.0,0.0,0.0,0.0,0.0,0.0,-4.5764,-4.5233,-4.4547,0.0,0.0,0.0,0.0,0.0,-4.0585,-4.0396,0.0,0.0,0.0,0.0,0.0,0.0,-4.0512,-4.0655,0.0,0.0,0.0,0.0,0.0,0.0,0.0,0.0,0.0,0.0,-4.0527,-4.0893,0.0,0.0,0.0,0.0,0.0,0.0,0.0,0.0,0.0,0.0,0.0,0.0,0.0,0.0,-3.1405,-3.0605,-3.0035,-2.9258,-2.7637,-2.6287,-2.5948,-2.403,-2.2365,-2.1724,-2.107,-2.0333,-1.9405,-1.8598,-1.7887,-1.7353,-1.6816,-1.6616,-1.693,-1.7167,-1.7565,-1.8165,-1.8631,-1.9043,-1.935,-1.9584,-1.9818,-2.0035,-2.0682,-2.1245,-2.1736,-2.2123,-2.2531,-2.2984,-2.3129,-2.3459,-2.3927,-2.4113,-2.419,-2.4228,-2.4631,-2.4804,-2.484,-2.516,-2.5308,-2.5308,-2.5308,-2.5308,-2.524,0.0,0.0,0.0,0.0,0.0,0.0,0.0,0.0,0.0,0.0,0.0,0.0,0.0,0.0,0.0,0.0,0.0,0.0,0.0,0.0,0.0,0.0,0.0,-4.5477,-4.4748,-4.4046,0.0,0.0,0.0,0.0,-4.1084,-4.0325,-4.0215,0.0,-4.0809,0.0,0.0,0.0,0.0,0.0,0.0,0.0,0.0,0.0,0.0,0.0,0.0,0.0,0.0,0.0,0.0,0.0,0.0,0.0,0.0,0.0,0.0,0.0,0.0,0.0,0.0,0.0,0.0,0.0,0.0,0.0,0.0,0.0,-3.184,-3.1493,-3.0452,-2.8669,-2.7186,-2.6616,-2.4806,-2.314,-2.2235,-2.1547,-2.0797,-1.9886,-1.8891,-1.8058,-1.7544,-1.69,-1.671,-1.725,-1.7422,-1.7907,-1.8855,-1.9024,-1.9281,-1.969,-1.9708,-1.9892,-2.0297,-2.0862,-2.1539,-2.2296,-2.236,-2.2647,-2.3081,-2.3247,-2.3459,-2.3714,-2.4046,-2.419,-2.4228,-2.4631,-2.4804,-2.484,-2.516,-2.5308,-2.5293,-2.5327,-2.5317,-2.5313,0.0,0.0,0.0,0.0,0.0,0.0,0.0,0.0,0.0,0.0,0.0,0.0,0.0,0.0,0.0,0.0,0.0,0.0,0.0,0.0,0.0,0.0,0.0,0.0,0.0,0.0,0.0,0.0,0.0,0.0,-4.1374,-4.1074,-4.07,-4.0305,-3.9883,-3.9835,-4.0101,0.0,0.0,0.0,0.0,0.0,0.0,0.0,0.0,0.0,0.0,0.0,0.0,0.0,0.0,0.0,0.0,0.0,0.0,0.0,0.0,0.0,0.0,0.0,0.0,0.0,0.0,0.0,0.0,0.0,0.0,-3.4482,-3.3563,-3.2696,-3.1932,-3.0205,-2.839,-2.6851,-2.5531,-2.4099,-2.2344,-2.1801,-2.1243,-2.0382,-1.9378,-1.8579,-1.8112,-1.7118,-1.671,-1.725,-1.7767,-1.8302,-1.8874,-1.9387,-1.9672,-1.9708,-1.9708,-1.9892,-2.0297,-2.1133,-2.1809,-2.231,-2.2563,-2.2695,-2.2759,-2.338,-2.3682,-2.3714,-2.4046,-2.419,-2.4228,-2.4631,-2.4804,-2.484,-2.516,-2.5308,-2.5303,-2.5364,-2.5354,-2.5322,0.0,0.0,0.0,0.0,0.0,0.0,0.0,0.0,0.0,0.0,0.0,0.0,0.0,0.0,0.0,0.0,0.0,0.0,0.0,0.0,0.0,0.0,0.0,0.0,0.0,0.0,0.0,0.0,0.0,-4.1092,-4.1579,-4.0839,-4.0568,-4.0738,-4.0479,-4.003,-3.9462,-3.9679,0.0,0.0,0.0,0.0,0.0,0.0,0.0,0.0,0.0,0.0,0.0,0.0,0.0,0.0,0.0,0.0,0.0,0.0,0.0,0.0,0.0,0.0,0.0,0.0,0.0,0.0,0.0,0.0,-3.5226,-3.3236,-3.3031,-3.2778,-3.1387,-3.0097,-2.901,-2.8268,-2.6594,-2.5014,-2.3969,-2.2731,-2.1637,-2.0846,-1.9906,-1.9133,-1.8669,-1.7947,-1.7747,-1.8302,-1.8496,-1.8855,-1.9387,-1.9603,-1.9708,-1.9708,-1.9708,-2.005,-2.0732,-2.1615,-2.2135,-2.231,-2.256,-2.2822,-2.3033,-2.35,-2.3816,-2.4036,-2.4275,-2.4393,-2.44,-2.4685,-2.4855,-2.4962,-2.5198,-2.5308,-2.5293,-2.5321,-2.5327,-2.5313,0.0,0.0,0.0,0.0,0.0,0.0,0.0,0.0,0.0,0.0,0.0,0.0,0.0,0.0,0.0,0.0,0.0,0.0,0.0,0.0,0.0,0.0,0.0,0.0,0.0,0.0,0.0,0.0,0.0,0.0,0.0,0.0,-4.0561,-4.0721,-4.0649,-4.0091,0.0,0.0,0.0,-4.0005,0.0,0.0,-3.8413,0.0,0.0,0.0,0.0,0.0,0.0,0.0,0.0,0.0,0.0,0.0,0.0,0.0,0.0,0.0,0.0,0.0,0.0,0.0,0.0,0.0,0.0,0.0,-3.5742,-3.3698,-3.3267,-3.2915,-3.1773,-3.0613,-2.9669,-2.9144,-2.7702,-2.6344,-2.5526,-2.3922,-2.2569,-2.1863,-2.073,-1.9771,-1.92,-1.866,-1.8564,-1.9089,-1.8991,-1.9192,-1.9874,-1.9764,-1.9764,-1.9909,-1.9909,-2.0313,-2.1197,-2.1781,-2.2135,-2.231,-2.2691,-2.2984,-2.323,-2.3671,-2.3996,-2.4209,-2.4419,-2.4503,-2.4528,-2.4771,-2.4923,-2.5022,-2.5219,-2.5308,-2.5293,-2.5336,-2.533,-2.5357,0.0,0.0,0.0,0.0,0.0,0.0,0.0,0.0,0.0,0.0,0.0,0.0,0.0,0.0,0.0,0.0,0.0,0.0,0.0,0.0,0.0,0.0,0.0,0.0,0.0,0.0,0.0,0.0,0.0,0.0,0.0,0.0,-4.0715,0.0,-4.02,-3.9985,-3.9599,0.0,-3.9474,-3.9938,0.0,-3.8231,-3.8994,0.0,0.0,0.0,-3.6846,-3.6699,0.0,-3.6953,0.0,0.0,0.0,0.0,0.0,0.0,0.0,0.0,0.0,0.0,0.0,0.0,0.0,0.0,0.0,0.0,-3.699,-3.6132,-3.4531,-3.3281,-3.3262,-3.1887,-3.0424,-2.9443,-2.8839,-2.8086,-2.6833,-2.5338,-2.4111,-2.3437,-2.1878,-2.0556,-1.9745,-1.9178,-1.9086,-1.9636,-1.9247,-1.9391,-2.0294,-1.9927,-1.9874,-2.0263,-2.0314,-2.0716,-2.1567,-2.1613,-2.1853,-2.2324,-2.292,-2.32,-2.3242,-2.3896,-2.419,-2.4209,-2.4428,-2.4512,-2.4526,-2.4865,-2.4991,-2.5028,-2.5219,-2.5308,-2.5303,-2.5375,-2.5402,-2.5418,0.0,0.0,0.0,0.0,0.0,0.0,0.0,0.0,0.0,0.0,0.0,0.0,0.0,0.0,0.0,0.0,0.0,0.0,0.0,0.0,0.0,0.0,0.0,0.0,0.0,0.0,0.0,0.0,0.0,0.0,0.0,0.0,0.0,0.0,-4.0325,-4.0121,-3.9922,-3.9358,0.0,0.0,-3.8529,-3.8185,0.0,0.0,0.0,0.0,0.0,-3.5638,-3.5937,0.0,-3.584,-3.6328,0.0,0.0,0.0,0.0,0.0,0.0,-3.7381,0.0,0.0,0.0,0.0,0.0,0.0,0.0,-3.7597,-3.5437,-3.508,-3.459,-3.2702,-3.1976,-3.1555,-3.1263,-2.9978,-2.8769,-2.8075,-2.6815,-2.5572,-2.4508,-2.3325,-2.2285,-2.1494,-2.0784,-2.0673,-2.1361,-2.129,-2.12,-2.1175,-2.0236,-1.9747,-1.9856,-2.0482,-2.0926,-2.1166,-2.1796,-2.2271,-2.2599,-2.2996,-2.3335,-2.3577,-2.4006,-2.419,-2.4218,-2.4578,-2.4716,-2.4738,-2.4917,-2.5088,-2.5219,-2.5274,-2.5308,-2.5293,-2.5327,-2.5359,-2.5408,0.0,0.0,0.0,0.0,0.0,0.0,0.0,0.0,0.0,0.0,0.0,0.0,0.0,0.0,0.0,0.0,0.0,0.0,0.0,0.0,0.0,-4.5527,-4.5547,0.0,0.0,0.0,0.0,0.0,0.0,0.0,0.0,0.0,0.0,0.0,0.0,0.0,0.0,0.0,0.0,0.0,-3.846,0.0,0.0,-3.6924,-3.6295,0.0,0.0,0.0,-3.5874,-3.539,-3.5586,0.0,0.0,0.0,0.0,0.0,0.0,0.0,0.0,0.0,0.0,0.0,0.0,0.0,-3.7031,-3.7422,-3.7519,-3.5577,-3.5271,-3.4773,-3.2897,-3.2251,-3.1874,-3.148,-3.0835,-3.0346,-3.0264,-2.8865,-2.7476,-2.6427,-2.5044,-2.3833,-2.2932,-2.2459,-2.2394,-2.2817,-2.2683,-2.2248,-2.1539,-2.0505,-2.0035,-2.0225,-2.0549,-2.0975,-2.1539,-2.1855,-2.2237,-2.2708,-2.3045,-2.338,-2.3703,-2.4054,-2.4256,-2.4339,-2.4662,-2.4828,-2.4891,-2.5053,-2.5184,-2.5308,-2.5308,-2.5308,-2.5293,-2.5326,-2.5379,-2.5443,0.0,0.0,0.0,0.0,0.0,0.0,0.0,0.0,0.0,0.0,0.0,0.0,0.0,0.0,0.0,0.0,0.0,0.0,0.0,0.0,0.0,-4.6308,-4.6211,-4.6191,0.0,0.0,0.0,0.0,0.0,0.0,0.0,0.0,0.0,0.0,0.0,0.0,0.0,0.0,0.0,-3.9872,-3.8289,-3.8251,0.0,0.0,-3.6156,-3.6682,-3.6075,-3.5873,-3.5908,-3.5975,-3.5996,0.0,0.0,0.0,0.0,0.0,-3.5996,0.0,0.0,0.0,0.0,0.0,0.0,0.0,-3.6445,-3.6816,-3.7187,-3.6308,-3.5538,-3.4701,-3.3646,-3.2805,-3.2048,-3.1298,-3.18,-3.2345,-3.2527,-3.0975,-2.9527,-2.8717,-2.688,-2.5293,-2.4353,-2.4114,-2.4066,-2.4149,-2.37,-2.296,-2.1933,-2.1013,-2.0693,-2.1103,-2.0681,-2.1023,-2.2265,-2.1911,-2.2088,-2.2822,-2.3117,-2.3426,-2.3774,-2.4085,-2.4339,-2.452,-2.4738,-2.4884,-2.5016,-2.5214,-2.5308,-2.5308,-2.5308,-2.5298,-2.5322,-2.5383,-2.5434,-2.5506,0.0,0.0,0.0,0.0,0.0,0.0,0.0,0.0,0.0,0.0,0.0,0.0,0.0,0.0,0.0,0.0,0.0,0.0,0.0,0.0,-4.5566,-4.6269,-4.5625,-4.5586,-4.6289,0.0,0.0,0.0,0.0,0.0,0.0,0.0,0.0,0.0,0.0,0.0,0.0,0.0,0.0,-3.9399,-3.8792,0.0,-3.813,-3.6946,-3.6214,-3.5848,-3.5703,-3.5752,-3.5908,-3.5975,-3.5996,-3.5996,0.0,0.0,0.0,-3.5996,0.0,0.0,0.0,0.0,0.0,0.0,0.0,0.0,-3.6797,-3.7715,-3.8085,-3.7152,-3.7336,-3.698,-3.475,-3.4204,-3.4224,-3.4637,-3.4325,-3.3462,-3.1885,-3.1406,-3.0884,-3.0022,-2.8384,-2.7119,-2.6535,-2.5506,-2.5102,-2.5706,-2.5062,-2.4541,-2.4341,-2.2681,-2.179,-2.1889,-2.1519,-2.1594,-2.213,-2.2378,-2.283,-2.3511,-2.3566,-2.3785,-2.4103,-2.4348,-2.4461,-2.4528,-2.4818,-2.498,-2.5016,-2.5214,-2.5308,-2.5308,-2.5308,-2.5335,-2.5383,-2.5395,-2.5437,-2.5505,0.0,0.0,0.0,0.0,0.0,0.0,0.0,0.0,0.0,0.0,0.0,0.0,0.0,0.0,0.0,0.0,0.0,0.0,0.0,0.0,-4.584,-4.6289,-4.5879,-4.5859,-4.6289,-4.6308,0.0,0.0,0.0,0.0,0.0,0.0,0.0,0.0,0.0,0.0,0.0,0.0,-4.0035,-3.925,-3.864,0.0,-3.7257,-3.6423,-3.5862,-3.5544,-3.5585,-3.5721,-3.5908,-3.5975,-3.5996,0.0,-3.5996,-3.5996,-3.5996,0.0,-3.5996,-3.5703,0.0,0.0,0.0,-3.3652,-3.4082,0.0,0.0,-3.668,-3.705,-3.6145,-3.6612,-3.6554,-3.4405,-3.4333,-3.4712,-3.5045,-3.4592,-3.3931,-3.3147,-3.2501,-3.1823,-3.1093,-2.9486,-2.8463,-2.8489,-2.7733,-2.7268,-2.733,-2.6269,-2.5492,-2.5262,-2.4171,-2.3547,-2.3547,-2.2992,-2.2859,-2.3245,-2.3047,-2.32,-2.3703,-2.3803,-2.4031,-2.4348,-2.4569,-2.4682,-2.4754,-2.4937,-2.5078,-2.5207,-2.532,-2.5375,-2.5398,-2.5363,-2.5379,-2.5404,-2.5482,-2.5494,-2.5508,0.0,0.0,0.0,0.0,0.0,0.0,0.0,0.0,0.0,0.0,0.0,0.0,0.0,0.0,0.0,0.0,0.0,0.0,0.0,0.0,-4.5683,-4.6035,-4.6015,-4.6015,-4.6055,-4.6211,0.0,0.0,0.0,0.0,0.0,0.0,0.0,0.0,0.0,0.0,0.0,0.0,0.0,-3.8996,0.0,-3.7488,-3.6615,-3.5808,-3.55,-3.5508,-3.559,-3.5725,-3.5878,-3.5974,-3.5996,-3.5996,-3.5996,-3.5996,0.0,0.0,0.0,0.0,0.0,0.0,0.0,0.0,0.0,-3.4355,0.0,0.0,0.0,-3.5098,0.0,0.0,0.0,0.0,0.0,-3.4943,0.0,0.0,0.0,-3.3894,0.0,-3.2134,-3.0594,-2.9751,-3.0201,-2.9942,-2.9548,-2.8981,-2.7719,-2.6762,-2.6212,-2.566,-2.5337,-2.5337,-2.4576,-2.4269,-2.4497,-2.3886,-2.3674,-2.386,-2.4062,-2.4299,-2.4559,-2.4749,-2.4897,-2.4991,-2.505,-2.5202,-2.5394,-2.5404,-2.5453,-2.5486,-2.5438,-2.5425,-2.5443,-2.5549,-2.5545,-2.55,0.0,0.0,0.0,0.0,0.0,0.0,0.0,0.0,0.0,0.0,0.0,0.0,0.0,0.0,0.0,0.0,0.0,0.0,-4.3805,0.0,0.0,-4.5078,-4.5025,-4.5022,-4.5156,-4.5898,-4.5879,0.0,0.0,0.0,0.0,0.0,0.0,0.0,-3.9572,0.0,0.0,0.0,-3.8722,0.0,-3.8046,-3.7488,0.0,-3.5808,-3.55,-3.5528,-3.5633,-3.5703,-3.5744,0.0,-3.5996,-3.5996,0.0,-3.5996,-3.5859,-3.5078,0.0,0.0,0.0,0.0,0.0,0.0,-3.2871,-3.3086,-3.5332,0.0,-3.5976,-3.5879,0.0,0.0,0.0,0.0,0.0,0.0,0.0,0.0,-3.6054,-3.5376,-3.445,-3.3417,-3.2118,-3.1334,-3.1391,-3.1209,-3.093,-3.0571,-3.0104,-2.9508,-2.8723,-2.7356,-2.6605,-2.6605,-2.5822,-2.521,-2.4856,-2.4928,-2.4779,-2.4408,-2.4612,-2.4727,-2.4775,-2.4904,-2.4992,-2.5003,-2.5253,-2.5372,-2.5397,-2.5454,-2.5484,-2.5491,-2.5481,-2.5513,-2.5575,-2.5524,-2.5516,-2.5483,0.0,0.0,0.0,0.0,0.0,0.0,0.0,0.0,0.0,0.0,0.0,0.0,0.0,0.0,0.0,0.0,0.0,-4.2837,0.0,0.0,0.0,-4.559,-4.5574,-4.5623,-4.5742,-4.6113,-4.6113,0.0,-4.4375,0.0,0.0,0.0,0.0,0.0,-3.9165,0.0,-3.9213,0.0,-3.8447,0.0,0.0,0.0,0.0,-3.5669,-3.5556,-3.5566,-3.5675,-3.5707,-3.5732,0.0,-3.5996,0.0,0.0,0.0,0.0,-3.4961,0.0,0.0,0.0,0.0,0.0,0.0,0.0,-3.3926,-3.5,-3.5644,-3.5859,-3.5351,0.0,0.0,0.0,0.0,0.0,0.0,-3.6408,0.0,0.0,0.0,-3.496,-3.4591,0.0,-3.3635,-3.3631,-3.3401,-3.2718,-3.1373,-3.153,-3.1089,-2.9707,-2.9526,-2.9254,-2.8788,-2.8003,-2.731,-2.6761,-2.5919,-2.5447,-2.538,-2.5064,-2.4923,-2.4911,-2.5132,-2.5226,-2.5235,-2.5392,-2.5471,-2.5526,-2.5549,-2.5572,-2.5628,-2.5628,-2.5605,-2.5607,-2.5566,-2.5533,-2.5481,0.0,0.0,0.0,0.0,0.0,0.0,0.0,0.0,0.0,0.0,0.0,0.0,-4.3258,-4.3181,0.0,0.0,-4.1595,-4.2311,0.0,0.0,-4.4156,-4.464,-4.5537,-4.5648,-4.4861,-4.5778,-4.6034,0.0,0.0,0.0,0.0,0.0,0.0,0.0,0.0,-3.8831,-3.8902,0.0,-3.848,-3.7995,-3.8005,-3.7016,-3.5522,-3.5562,-3.5574,-3.5601,-3.5655,-3.5682,-3.5729,-3.5902,-3.5974,-3.5974,-3.5996,-3.5996,-3.582,0.0,0.0,0.0,-3.3594,0.0,0.0,0.0,-3.3887,-3.4473,-3.4941,-3.5351,-3.5527,-3.5137,-3.5102,0.0,0.0,0.0,0.0,0.0,0.0,-3.6466,0.0,-3.6695,0.0,0.0,0.0,0.0,-3.5954,-3.5488,-3.4567,-3.3087,-3.3141,-3.2549,-3.0954,-3.1358,-3.1323,-3.0664,-2.9932,-2.9229,-2.8568,-2.7236,-2.6387,-2.6074,-2.5641,-2.5321,-2.5121,-2.5316,-2.5417,-2.5425,-2.5508,-2.5556,-2.5602,-2.5629,-2.566,-2.5703,-2.5703,-2.5662,-2.5618,-2.5591,-2.5547,-2.5498,0.0,-4.5594,0.0,0.0,0.0,0.0,0.0,0.0,0.0,0.0,0.0,0.0,0.0,0.0,0.0,0.0,0.0,-3.8986,-4.0724,0.0,-4.1715,0.0,0.0,-4.4341,0.0,-4.4417,0.0,0.0,0.0,0.0,0.0,0.0,0.0,0.0,0.0,-3.9165,-4.0334,-3.8981,-3.8737,-3.9173,-3.8334,-3.7032,-3.559,0.0,-3.554,-3.5611,-3.5596,0.0,-3.572,-3.5867,-3.5903,-3.5911,-3.5975,-3.5996,0.0,0.0,0.0,0.0,0.0,-3.2832,-3.3437,-3.3418,-3.3418,-3.3887,-3.5566,-3.5332,-3.4961,-3.5781,-3.4537,-3.3764,0.0,0.0,0.0,0.0,0.0,0.0,0.0,0.0,0.0,0.0,0.0,0.0,0.0,-3.7071,-3.6362,-3.6437,-3.5321,-3.4179,-3.3157,-3.2506,-3.2042,-3.1755,-3.1232,-3.0542,-2.9754,-2.9061,-2.7883,-2.6295,-2.6469,-2.614,-2.5383,-2.5409,-2.5438,-2.5491,-2.5564,-2.5601,-2.5604,-2.5662,-2.5703,-2.5703,-2.5703,-2.5703,-2.5683,-2.5554,-2.5493,-2.5471,0.0,0.0,0.0,0.0,0.0,0.0,0.0,-4.5504,0.0,0.0,-4.447,0.0,0.0,-4.172,-4.1027,0.0,0.0,-4.0181,-4.1352,-4.2217,0.0,0.0,-4.4594,-4.5094,0.0,0.0,0.0,0.0,0.0,0.0,0.0,0.0,0.0,0.0,0.0,-3.885,0.0,0.0,0.0,0.0,0.0,-3.6157,-3.4724,0.0,-3.5186,-3.4739,-3.4739,-3.4405,-3.398,-3.4074,-3.4101,-3.4123,-3.4146,-3.454,-3.4714,-3.3271,-3.3875,-3.4583,-3.26,-3.2684,-3.3332,-3.3398,-3.3828,-3.4414,-3.5019,-3.4902,-3.4941,-3.582,-3.5003,-3.4457,-3.5503,0.0,0.0,0.0,0.0,0.0,0.0,0.0,0.0,0.0,0.0,0.0,0.0,-3.7277,-3.6498,-3.5921,-3.5426,-3.4693,-3.3647,-3.3638,-3.342,-3.2889,-3.2514,-3.1835,-3.0795,-3.0003,-2.8848,-2.7344,-2.685,-2.6188,-2.5394,-2.5453,-2.5493,-2.5566,-2.5635,-2.5661,-2.5661,-2.5683,-2.5703,-2.5703,-2.5703,-2.5662,-2.5611,-2.5539,-2.5491,-2.5471,-4.5096,0.0,0.0,0.0,0.0,0.0,0.0,0.0,0.0,0.0,-4.3605,0.0,-4.1489,0.0,-4.0566,0.0,-3.99,-4.0439,-4.1277,-4.2143,0.0,-4.2247,-4.3909,-4.4281,0.0,0.0,0.0,0.0,0.0,-4.2925,0.0,0.0,0.0,0.0,0.0,0.0,-3.8688,0.0,-3.8868,0.0,0.0,-3.6161,0.0,0.0,-3.482,-3.3907,-3.4165,-3.3761,-3.3106,-3.3141,-3.3163,-3.317,-3.318,-3.3598,-3.3829,-3.27,-3.3167,-3.3721,-3.2342,-3.2372,-3.2892,-3.3274,-3.3786,-3.4373,-3.5019,-3.4922,-3.4941,-3.582,-3.501,-3.4468,-3.556,0.0,0.0,0.0,0.0,0.0,0.0,-3.9929,0.0,0.0,0.0,0.0,0.0,-3.8029,-3.7274,-3.609,-3.5955,-3.5458,-3.4361,-3.4634,-3.4566,-3.4007,-3.3639,-3.3067,-3.2345,-3.1183,-2.9992,-2.8775,-2.7648,-2.6689,-2.5884,-2.5649,-2.5567,-2.5636,-2.5683,-2.5703,-2.5703,-2.5703,-2.5703,-2.5703,-2.5662,-2.5636,-2.5597,-2.5513,-2.5479,-2.5431,0.0,0.0,0.0,0.0,-4.4872,0.0,0.0,0.0,-4.3989,0.0,-4.2316,-4.145,-4.0535,-3.9765,-3.8957,-3.8084,-3.8796,-3.9631,-4.04,-4.1296,0.0,0.0,-4.2162,-4.2046,-3.9762,0.0,0.0,0.0,0.0,0.0,0.0,0.0,0.0,0.0,-4.0281,0.0,-3.9269,-3.984,-3.9722,-3.9111,-3.8315,-3.6969,-3.5442,-3.5481,-3.4473,-3.3122,-3.3858,-3.3635,-3.2967,-3.2967,-3.2967,-3.299,-3.3034,-3.3083,-3.3122,-3.3063,-3.3083,-3.2944,-3.2068,-3.1834,-3.2066,-3.3007,-3.3274,-3.3753,-3.5526,-3.5293,-3.4941,-3.582,-3.4603,-3.3881,-3.5591,0.0,0.0,0.0,0.0,0.0,0.0,0.0,0.0,0.0,0.0,0.0,0.0,-3.9188,-3.8502,-3.7055,-3.6842,0.0,0.0,-3.5536,-3.552,-3.513,-3.4594,-3.4269,-3.4205,-3.257,-3.1301,-3.0396,-2.883,-2.7639,-2.6787,-2.6011,-2.5674,-2.5703,-2.5703,-2.5703,-2.5703,-2.5703,-2.5703,-2.5683,-2.5632,-2.5599,-2.5573,-2.5526,-2.5404,-2.5308,-4.4327,-4.4001,-4.3852,0.0,-4.4676,-4.481,0.0,0.0,0.0,0.0,-4.1942,-4.1239,-3.9765,-3.9419,-3.8957,-3.8084,-3.8796,0.0,0.0,0.0,0.0,-4.0535,-4.2162,-4.2555,-4.1405,-4.3335,-4.3705,-4.2322,0.0,0.0,-4.1188,0.0,0.0,0.0,0.0,0.0,-3.8392,-3.9165,-3.8693,-3.7411,-3.7834,-3.6603,-3.4603,-3.525,-3.4071,-3.2162,-3.2948,-3.2306,-3.1089,-3.1089,-3.1089,-3.11,-3.1118,-3.1553,-3.1959,-3.1302,-3.1572,-3.1902,-3.1086,-3.0859,-3.1076,-3.2016,-3.2777,-3.3589,-3.4705,-3.4819,-3.4941,-3.582,-3.5117,-3.4663,-3.5713,-3.5665,0.0,0.0,0.0,0.0,0.0,0.0,0.0,-3.8652,0.0,-3.8258,-3.9203,-3.7584,-3.681,-3.7647,-3.6017,-3.5109,-3.5405,-3.6535,-3.6619,-3.5424,-3.5626,-3.5266,-3.4205,-3.3172,-3.1932,-3.0453,-2.95,-2.8281,-2.6876,-2.6652,-2.6241,-2.5703,-2.5703,-2.5703,-2.5703,-2.5703,-2.5703,-2.5683,-2.5632,-2.5545,-2.5456,-2.5434,-2.5364,-2.5308,-4.4073,0.0,0.0,-4.3684,0.0,0.0,-4.3061,-4.3613,0.0,-4.1473,-4.0775,0.0,-3.8865,-3.8084,-3.745,-3.6949,-3.768,0.0,-3.87,0.0,0.0,-4.0496,-4.1104,-4.1261,-4.087,-4.1868,0.0,-4.1685,0.0,0.0,-4.133,0.0,0.0,0.0,0.0,-3.9785,0.0,-3.9092,-3.8507,-3.7315,-3.7796,-3.6699,0.0,-3.5308,-3.4135,-3.2275,-3.2737,-3.1814,-3.0404,-3.0404,-3.0404,-3.0404,-3.0404,-3.0731,-3.1038,-3.0538,-3.075,-3.1024,-3.0586,-3.0452,-3.068,-3.1612,-3.2542,-3.3451,-3.4394,-3.4925,-3.5366,-3.5898,-3.5605,-3.541,-3.5851,-3.5914,0.0,0.0,0.0,0.0,0.0,0.0,0.0,0.0,-3.7735,-3.7887,-3.9176,-3.7007,-3.6192,-3.7873,-3.6412,-3.5624,0.0,-3.7225,-3.7168,-3.559,-3.6573,-3.6381,-3.4832,-3.4042,-3.2994,-3.1662,-2.9761,-2.8386,-2.7436,-2.6707,-2.613,-2.5703,-2.5703,-2.5703,-2.5703,-2.5703,-2.5683,-2.5657,-2.5551,-2.545,-2.5359,-2.5359,-2.5335,-2.5308,0.0,0.0,0.0,0.0,0.0,0.0,-4.1925,-4.2815,-4.2746,-4.0713,0.0,-3.8581,-3.8062,-3.6596,-3.5615,-3.5519,-3.6231,-3.7019,-3.7777,-3.793,-3.8642,-4.0112,-3.9496,-3.9152,-3.9228,-3.9334,-3.9874,0.0,0.0,0.0,0.0,0.0,0.0,0.0,0.0,0.0,0.0,-3.913,-3.8565,-3.768,-3.7796,-3.6892,-3.5481,-3.5365,-3.4314,-3.2891,-3.2776,-3.1731,-3.0404,-3.0404,-3.0404,-3.0404,-3.0404,-3.0404,-3.0404,-3.0404,-3.0404,-3.0404,-3.0404,-3.0404,-3.0617,-3.155,-3.2367,-3.3227,-3.4311,-3.5153,-3.577,-3.5954,-3.5898,-3.5859,-3.5976,-3.5949,0.0,0.0,0.0,0.0,0.0,0.0,0.0,0.0,0.0,0.0,-3.9034,-3.7026,-3.6365,-3.8046,-3.7475,-3.6992,0.0,0.0,-3.7505,-3.5839,-3.7239,-3.7311,-3.5796,-3.4823,-3.3952,-3.3189,-3.0053,-2.8494,-2.8337,-2.6755,-2.5977,-2.5859,-2.5742,-2.5703,-2.5703,-2.5703,-2.5659,-2.5587,-2.5564,-2.5451,-2.5308,-2.5308,-2.5308,-2.5308,0.0,0.0,0.0,0.0,0.0,-4.2383,-4.1763,-4.1713,-4.136,-4.0311,-3.9612,-3.8885,-3.8096,-3.7103,-3.6212,-3.5558,-3.6231,0.0,0.0,0.0,0.0,-3.843,-3.8296,-3.8234,-3.8231,-3.8998,-3.9846,0.0,0.0,0.0,0.0,0.0,0.0,0.0,0.0,0.0,-3.8238,-3.8238,0.0,-3.6,-3.6654,-3.6346,-3.5423,-3.4699,-3.3795,-3.2814,-3.216,-3.125,-3.0404,-3.0404,-3.0404,-3.0404,-3.0404,-3.0404,-3.0404,-3.0404,-3.0404,-3.0404,-3.0404,-3.0404,-3.0602,-3.1503,-3.1869,-3.2447,-3.401,-3.4551,-3.4976,-3.5768,-3.5347,-3.5082,-3.5859,-3.5996,-3.601,0.0,0.0,-3.6107,-3.6148,0.0,0.0,0.0,0.0,-3.5922,-3.8036,-3.718,-3.7219,-3.8931,-3.8286,-3.7536,-3.692,-3.8296,-3.8362,-3.6805,-3.7007,-3.7002,-3.6759,-3.4608,-3.3427,-3.3251,-3.1339,-3.0058,-2.9315,-2.8301,-2.7441,-2.6738,-2.6016,-2.5703,-2.5703,-2.5703,-2.5633,-2.5578,-2.6216,-2.5992,-2.5308,-2.5308,-2.5308,-2.5308,0.0,0.0,0.0,0.0,0.0,-4.1184,-4.0784,-4.0392,-4.0148,-4.0099,-3.9328,-3.8745,-3.8677,-3.7488,-3.6538,-3.6154,-3.6481,-3.6519,-3.6096,-3.6462,-3.6892,-3.7315,-3.7334,-3.7334,-3.7334,-3.7765,-3.8659,-3.9972,0.0,0.0,0.0,0.0,0.0,0.0,0.0,-3.9438,0.0,0.0,-3.7276,-3.6154,-3.6538,-3.6212,-3.5404,-3.4526,-3.366,-3.2795,-3.1987,-3.1135,-3.0404,-3.0404,-3.0404,-3.0404,-3.0404,-3.0404,-3.0404,-3.0404,-3.0404,-3.0404,-3.0404,-3.0404,-3.05,-3.0923,-3.1397,-3.1974,-3.2803,-3.3408,-3.3916,-3.4449,-3.458,-3.4884,-3.5839,-3.5973,-3.5918,-3.5812,-3.5765,-3.5721,-3.565,-3.5642,-3.5646,0.0,0.0,0.0,0.0,-3.7681,0.0,0.0,0.0,-3.8169,-3.7004,-3.8831,-3.8844,-3.6492,-3.7203,-3.702,-3.5763,-3.4605,-3.3585,-3.2706,-3.1034,-2.9766,-2.8906,-2.8027,-2.7148,-2.6309,-2.5879,-2.5957,-2.6367,-2.6295,-2.5969,-2.5539,-2.5848,-2.5707,-2.5346,-2.5808,-2.5962,-2.5904,0.0,-4.2727,0.0,0.0,-4.0965,-3.9955,-4.012,-3.9512,-3.9218,-3.9808,-3.8968,-3.8437,-3.8782,-3.7455,-3.645,-3.6286,-3.6324,-3.6096,-3.5463,-3.5479,-3.5788,-3.6423,-3.6442,-3.6442,-3.6442,-3.6442,-3.7296,-3.9015,-3.9207,-4.0065,0.0,0.0,0.0,0.0,0.0,0.0,0.0,-3.8027,-3.7238,-3.6442,-3.6442,-3.5942,-3.5135,-3.4257,-3.3391,-3.2545,-3.1718,-3.0981,-3.0404,-3.0404,-3.0404,-3.0404,-3.0404,-3.0404,-3.0404,-3.0404,-3.0404,-3.0404,-3.0404,-3.0404,-3.0404,-3.0404,-3.0923,-3.1484,-3.1729,-3.2314,-3.2882,-3.3183,-3.383,-3.4614,-3.5546,-3.5677,-3.5667,-3.5725,-3.571,-3.5644,-3.5636,-3.5476,-3.5454,0.0,0.0,0.0,-3.771,-3.8024,-3.839,0.0,-3.922,-3.8729,-3.7351,-3.9034,-3.8945,-3.6542,-3.7505,-3.7149,-3.5192,-3.4685,-3.3672,-3.2187,-3.0625,-2.9512,-2.8828,-2.7754,-2.6894,-2.623,-2.6055,-2.6367,-2.7011,-2.7234,-2.6719,-2.5804,-2.6022,-2.6,-2.5942,-2.6621,-2.689,-2.6774,0.0,0.0,0.0,0.0,-4.0965,-4.0139,-4.0875,-3.9711,-3.8844,-3.9152,-3.8657,-3.8052,-3.7383,-3.6503,-3.568,-3.4963,-3.5113,-3.5225,-3.513,-3.5369,-3.5538,-3.5615,-3.5615,-3.5615,-3.5615,-3.5615,-3.6442,-3.8123,-3.8911,-3.9746,-4.065,0.0,0.0,0.0,0.0,-3.8411,-3.6942,-3.6865,-3.6346,-3.5615,-3.5615,-3.5084,-3.4225,-3.3353,-3.2526,-3.1698,-3.0827,-3.0462,-3.0404,-3.0404,-3.0404,-3.0404,-3.0404,-3.0404,-3.0404,-3.0404,-3.0404,-3.0404,-3.0404,-3.0404,-3.0404,-3.0404,-3.0462,-3.0737,-3.1524,-3.1761,-3.2083,-3.2942,-3.3284,-3.3715,-3.4648,-3.4824,-3.5055,-3.5767,-3.5871,-3.5831,-3.5703,-3.5063,-3.4873,-3.5606,0.0,0.0,-3.6957,-3.7813,-3.8252,-3.8222,-3.894,-3.9041,-3.8226,-3.8391,-3.8457,-3.8359,-3.7676,-3.7225,-3.705,-3.4707,-3.3086,-3.2187,-3.123,-3.0742,-3.0605,-2.8945,-2.8125,-2.8008,-2.7226,-2.6914,-2.7109,-2.8489,-2.8124,-2.6823,-2.8198,-2.8299,-2.7659,-2.7761,-2.778,-2.778,-4.2451,-4.2304,-4.1992,-4.102,-4.0322,-3.9845,-3.968,-3.9095,-3.875,-3.8859,-3.796,-3.7476,-3.7845,-3.7139,-3.6298,-3.5488,-3.5947,-3.5951,-3.5145,-3.5198,-3.532,-3.5493,-3.55,-3.55,-3.55,-3.55,-3.6327,-3.8007,-3.8873,-3.9708,0.0,0.0,0.0,-3.8488,-3.7969,-3.7353,-3.6673,-3.6173,-3.5788,-3.55,-3.55,-3.4988,-3.4109,-3.3237,-3.241,-3.1583,-3.0712,-3.0404,-3.0404,-3.0404,-3.0404,-3.0404,-3.0404,-3.0404,-3.0404,-3.0404,-3.0404,-3.0404,-3.0404,-3.0404,-3.0404,-3.0404,-3.0404,-3.05,-3.0846,-3.0923,-3.1047,-3.1448,-3.2063,-3.2947,-3.4384,-3.4666,-3.4959,-3.5772,-3.5901,-3.5877,-3.5834,-3.5537,0.0,-3.5112,0.0,-3.4904,-3.5493,-3.6771,-3.7537,-3.7452,-3.9622,-4.0172,-3.8397,-3.8801,-3.8925,-3.8613,-3.7172,-3.6195,-3.5742,-3.418,-3.2734,-3.1426,-3.1074,-3.0625,-3.0098,-2.9394,-2.8789,-2.8301,-2.8476,-2.8262,-2.7851,-2.8924,-2.8683,-2.769,-2.8197,-2.8217,-2.8009,-2.8466,-2.8626,-2.8703,-4.2158,-4.1956,-4.1515,-4.0139,-3.9698,-3.9441,-3.9093,-3.8854,-3.8707,-3.8707,-3.7677,-3.7233,-3.8053,-3.7578,-3.6885,-3.6091,-3.6397,-3.6217,-3.5268,-3.5068,-3.507,-3.5266,-3.5254,-3.5254,-3.5254,-3.5254,-3.5828,-3.7031,-3.7882,-3.8624,-3.9276,-3.96,-3.8988,-3.7584,-3.6962,-3.6577,-3.6308,-3.5731,-3.55,-3.5481,-3.5212,-3.4603,-3.3718,-3.2872,-3.2045,-3.1231,-3.0615,-3.0404,-3.0404,-3.0404,-3.0404,-3.0404,-3.0404,-3.0404,-3.0404,-3.0404,-3.0404,-3.0404,-3.0404,-3.0404,-3.0404,-3.0404,-3.0404,-3.0404,-3.0404,-3.0404,-3.0488,-3.0829,-3.1459,-3.2518,-3.427,-3.4643,-3.498,-3.5806,-3.5939,-3.5939,-3.5939,-3.5477,-3.5114,-3.5056,-3.4607,-3.4472,-3.4934,-3.6261,-3.7086,-3.7027,-3.9706,-4.0347,-3.8072,-3.8809,-3.8964,-3.8242,-3.6985,-3.5929,-3.5098,-3.3965,-3.2695,-3.1289,-3.1016,-3.0586,-2.9961,-2.9726,-2.9258,-2.8711,-2.9336,-2.9258,-2.873,-2.9471,-2.9303,-2.8598,-2.8644,-2.869,-2.881,-2.9291,-2.9486,-2.9563,-4.1425,-4.1113,-4.0857,-4.0029,-3.9239,-3.8982,-3.9772,-3.9203,-3.8707,-3.8707,-3.7988,-3.7507,-3.7507,-3.7507,-3.7177,-3.6372,-3.5816,-3.5504,-3.5497,-3.4988,-3.4723,-3.4704,-3.4704,-3.4704,-3.4704,-3.4704,-3.4723,-3.4742,-3.5555,-3.6074,-3.6381,-3.7494,-3.7565,-3.6712,-3.6692,-3.625,-3.5519,-3.55,-3.55,-3.5423,-3.4564,-3.368,-3.2833,-3.2025,-3.1173,-3.0404,-3.0404,-3.0404,-3.0404,-3.0404,-3.0404,-3.0404,-3.0404,-3.0404,-3.0404,-3.0404,-3.0404,-3.0404,-3.0404,-3.0404,-3.0404,-3.0404,-3.0404,-3.0404,-3.0404,-3.0404,-3.0667,-3.1598,-3.184,-3.245,-3.4266,-3.4643,-3.498,-3.5859,-3.5996,-3.5996,-3.5996,-3.4465,-3.3978,-3.5689,-3.4366,-3.3996,-3.5728,-3.6618,0.0,0.0,-3.8727,-3.8961,-3.7201,-3.8061,-3.8203,-3.7344,-3.7285,-3.6855,-3.5996,-3.4277,-3.2988,-3.2168,-3.1309,-3.0898,-3.0859,-2.998,-2.959,-2.957,-2.9609,-2.959,-2.9648,-3.0375,-3.0206,-2.9553,-3.021,-3.046,-3.0466,-3.0403,-3.0385,-3.0385,-4.1407,-4.1535,-4.1332,-3.9405,-3.9313,-3.9423,-3.9129,-3.8854,-3.8707,-3.8707,-3.8487,-3.8322,-3.8322,-3.7841,-3.718,-3.6358,-3.6656,-3.6472,-3.5566,-3.5338,-3.5083,-3.4722,-3.4694,-3.4694,-3.4694,-3.4694,-3.4694,-3.4694,-3.5507,-3.5936,-3.6035,-3.6407,-3.6241,-3.5605,-3.5415,-3.5403,-3.5493,-3.5304,-3.4982,-3.4584,-3.4321,-3.3353,-3.2045,-3.1795,-3.1154,-3.0404,-3.0404,-3.0404,-3.0404,-3.0404,-3.0404,-3.0404,-3.0404,-3.0404,-3.0404,-3.0404,-3.0404,-3.0404,-3.0404,-3.0404,-3.0404,-3.0404,-3.0404,-3.0404,-3.0404,-3.0404,-3.0479,-3.0786,-3.0944,-3.1551,-3.332,-3.3734,-3.4297,-3.5762,-3.5508,-3.5117,-3.5117,-3.4074,-3.3506,-3.4066,-3.3609,-3.3463,-3.4062,-3.5437,-3.6308,-3.6344,-3.8511,-3.9285,-3.8046,-3.8373,-3.8476,-3.8203,-3.7031,-3.6289,-3.5996,-3.4277,-3.3008,-3.2187,-3.1328,-3.0898,-3.0898,-3.0605,-3.0488,-3.0488,-3.0488,-3.0488,-3.0508,-3.065,-3.0591,-3.0463,-3.0531,-3.0565,-3.0632,-3.1163,-3.1323,-3.1365,-4.1754,-4.1974,-4.1735,-3.9918,-4.0029,-4.0084,-3.9276,-3.9148,-3.9038,-3.8744,-3.8707,-3.8707,-3.8707,-3.8248,-3.7734,-3.7239,-3.7382,-3.7153,-3.6321,-3.5983,-3.5497,-3.4834,-3.4808,-3.4678,-3.4371,-3.4353,-3.4353,-3.4353,-3.4974,-3.5254,-3.5254,-3.538,-3.5266,-3.4944,-3.4889,-3.4981,-3.5187,-3.4886,-3.4492,-3.4007,-3.3461,-3.2622,-3.166,-3.1346,-3.0865,-3.0404,-3.0404,-3.0404,-3.0404,-3.0404,-3.0404,-3.0404,-3.0404,-3.0404,-3.0404,-3.0404,-3.0404,-3.0404,-3.0404,-3.0404,-3.0404,-3.0404,-3.0404,-3.0404,-3.0404,-3.0404,-3.0404,-3.0404,-3.0747,-3.1488,-3.293,-3.356,-3.4314,-3.5762,-3.5273,-3.4687,-3.4665,-3.3571,-3.3002,-3.361,-3.3372,-3.3439,-3.4104,-3.5212,-3.5913,-3.5951,-3.8105,-3.8846,-3.7563,-3.8201,-3.8301,-3.7637,-3.6562,-3.5996,-3.5996,-3.4277,-3.3144,-3.2637,-3.1465,-3.0898,-3.0898,-3.0898,-3.0898,-3.0918,-3.125,-3.1191,-3.0918,-3.1166,-3.1129,-3.0918,-3.1072,-3.1117,-3.12,-3.2023,-3.228,-3.2304,-4.2304,-4.2341,-4.2121,-4.1242,-4.115,-4.0912,-4.0102,-3.9953,-3.9625,-3.8891,-3.8726,-3.8707,-3.8707,-3.8707,-3.8707,-3.8707,-3.8025,-3.7566,-3.7492,-3.6758,-3.5917,-3.5041,-3.4949,-3.4564,-3.3825,-3.3807,-3.3807,-3.3807,-3.4056,-3.4164,-3.4183,-3.4497,-3.4624,-3.4579,-3.4822,-3.4784,-3.4527,-3.4179,-3.3894,-3.3535,-3.2211,-3.1648,-3.1525,-3.0712,-3.0404,-3.0404,-3.0404,-3.0404,-3.0404,-3.0404,-3.0404,-3.0404,-3.0404,-3.0404,-3.0404,-3.0404,-3.0404,-3.0404,-3.0404,-3.0404,-3.0404,-3.0404,-3.0404,-3.0404,-3.0404,-3.0404,-3.0404,-3.0404,-3.11,-3.2031,-3.3021,-3.393,-3.4829,-3.5761,-3.5176,-3.4568,-3.4432,-3.2957,-3.2476,-3.4037,-3.3602,-3.3815,-3.5436,-3.5778,-3.5914,-3.598,-3.7553,-3.7793,-3.6172,-3.7617,-3.7734,-3.6055,-3.5996,-3.5996,-3.5996,-3.4277,-3.334,-3.3203,-3.1719,-3.0957,-3.0898,-3.0957,-3.0957,-3.0957,-3.1816,-3.1738,-3.1055,-3.1875,-3.1719,-3.1055,-3.1745,-3.1978,-3.2029,-3.2959,-3.3261,-3.3221,-4.2415,-4.2782,-4.2763,-4.1352,-4.1625,-4.1754,-4.093,-4.0286,-3.9827,-3.9643,-3.9074,-3.8707,-3.8707,-3.8707,-3.8707,-3.8707,-3.8524,-3.8157,-3.7547,-3.6758,-3.5917,-3.5041,-3.4399,-3.399,-3.3807,-3.3807,-3.3807,-3.3807,-3.385,-3.3889,-3.3902,-3.3979,-3.3802,-3.3388,-3.3248,-3.316,-3.3067,-3.2581,-3.2307,-3.2147,-3.1618,-3.1123,-3.0692,-3.0481,-3.0404,-3.0404,-3.0404,-3.0404,-3.0404,-3.0404,-3.0404,-3.0404,-3.0404,-3.0404,-3.0404,-3.0404,-3.0404,-3.0404,-3.0404,-3.0404,-3.0404,-3.0404,-3.0404,-3.0404,-3.0404,-3.0404,-3.0404,-3.0404,-3.0626,-3.1301,-3.2902,-3.3421,-3.3911,-3.4863,-3.4234,-3.3382,-3.2709,-3.2165,-3.2191,-3.32,-3.3672,-3.4374,-3.5484,-3.5645,-3.6001,-3.6834,-3.7298,-3.7373,-3.7012,-3.7336,-3.706,-3.6035,-3.5996,-3.5996,-3.5996,-3.4277,-3.2754,-3.1504,-3.1758,-3.1543,-3.0918,-3.1582,-3.1523,-3.0957,-3.1816,-3.207,-3.1914,-3.2109,-3.207,-3.1914,-3.2089,-3.2078,-3.2163,-3.3702,-3.423,-3.4266,-4.2855,-4.3185,-4.3222,-4.2359,-4.2561,-4.258,-4.1772,-4.1277,-4.0726,-3.9992,-3.9515,-3.9111,-3.8744,-3.8707,-3.8707,-3.8707,-3.8707,-3.8505,-3.8065,-3.7309,-3.6468,-3.5642,-3.4784,-3.4192,-3.3807,-3.3807,-3.3807,-3.3807,-3.3807,-3.3605,-3.3256,-3.3256,-3.29,-3.226,-3.2236,-3.2173,-3.2022,-3.1607,-3.1336,-3.1173,-3.0841,-3.051,-3.0222,-3.0355,-3.0404,-3.0404,-3.0404,-3.0404,-3.0373,-3.026,-3.0215,-3.0196,-3.0114,-3.0085,-3.0107,-3.0189,-3.0305,-3.0404,-3.0404,-3.0404,-3.0404,-3.0404,-3.0404,-3.0404,-3.0404,-3.0404,-3.0404,-3.0404,-3.0742,-3.1483,-3.2893,-3.3529,-3.401,-3.4523,-3.3862,-3.297,-3.2038,-3.186,-3.2097,-3.2861,-3.3692,-3.4565,-3.5481,-3.5588,-3.5843,-3.6411,-3.6863,-3.6957,-3.6593,-3.69,-3.6752,-3.5988,-3.5949,-3.5754,-3.5363,-3.369,-3.2187,-3.0918,-3.1777,-3.1953,-3.1523,-3.2363,-3.248,-3.209,-3.2969,-3.3125,-3.2773,-3.3184,-3.3105,-3.2793,-3.3184,-3.3276,-3.337,-3.4731,-3.5204,-3.5203,-4.3351,-4.3515,-4.3515,-4.3515,-4.3515,-4.3276,-4.2598,-4.2378,-4.1809,-4.0432,-4.0047,-3.9643,-3.8964,-3.8781,-3.8707,-3.8707,-3.8707,-3.8707,-3.8707,-3.7826,-3.7015,-3.6321,-3.5334,-3.4491,-3.3807,-3.3807,-3.3807,-3.3807,-3.3678,-3.3275,-3.2601,-3.2472,-3.199,-3.1225,-3.1455,-3.1399,-3.109,-3.0803,-3.0611,-3.0426,-3.0097,-2.9977,-3.0028,-3.0305,-3.0367,-3.0349,-3.0349,-3.0407,-3.042,-3.0071,-3.0125,-3.0247,-2.9841,-2.978,-2.989,-2.9946,-3.0136,-3.0355,-3.0398,-3.0404,-3.0404,-3.0404,-3.0404,-3.0404,-3.0404,-3.0404,-3.0442,-3.0577,-3.1173,-3.2022,-3.3084,-3.3926,-3.4529,-3.4656,-3.3887,-3.2969,-3.2092,-3.198,-3.2206,-3.2833,-3.3795,-3.468,-3.5423,-3.5558,-3.5585,-3.5605,-3.6339,-3.6475,-3.5742,-3.6397,-3.6502,-3.5877,-3.5867,-3.5406,-3.4415,-3.3176,-3.207,-3.1113,-3.2109,-3.2519,-3.2402,-3.3223,-3.3516,-3.3457,-3.4316,-3.4277,-3.3652,-3.4394,-3.4258,-3.3672,-3.4414,-3.4663,-3.4724,-3.5662,-3.5952,-3.5917,-4.3391,-4.3515,-4.3515,-4.3515,-4.3515,-4.346,-4.3331,-4.2745,-4.2213,-4.1956,-4.0744,-3.9845,-3.9717,-3.9111,-3.8707,-3.8707,-3.8707,-3.8707,-3.8707,-3.7312,-3.6431,-3.6303,-3.4816,-3.3935,-3.3807,-3.3807,-3.3807,-3.3807,-3.3128,-3.2711,-3.2583,-3.1898,-3.1164,-3.0393,-3.0435,-3.0175,-2.9683,-2.9422,-2.951,-2.9821,-2.9769,-2.9845,-3.0028,-3.0305,-3.026,-3.0068,-3.0068,-3.0388,-3.0717,-2.9992,-3.0646,-3.1534,-3.0139,-3.0167,-3.0582,-2.9928,-2.9893,-3.0103,-3.0349,-3.0404,-3.0404,-3.0404,-3.0404,-3.0404,-3.0404,-3.0404,-3.0615,-3.1346,-3.1621,-3.2195,-3.3809,-3.4236,-3.4587,-3.5383,-3.4171,-3.305,-3.2837,-3.2753,-3.2762,-3.2897,-3.4314,-3.5346,-3.5481,-3.5508,-3.5547,-3.56,-3.5728,-3.5788,-3.57,-3.5778,-3.5766,-3.565,-3.5702,-3.5012,-3.3516,-3.3973,-3.3484,-3.2012,-3.3574,-3.3926,-3.3242,-3.4101,-3.4101,-3.3457,-3.4316,-3.4629,-3.4512,-3.4648,-3.4629,-3.4512,-3.4648,-3.4687,-3.4784,-3.5664,-3.5996,-3.5995,-4.3392,-4.3515,-4.3515,-4.3515,-4.3515,-4.3515,-4.3515,-4.3167,-4.2782,-4.2359,-4.1277,-4.0377,-3.9937,-3.9184,-3.8707,-3.8707,-3.8707,-3.8707,-3.8707,-3.7184,-3.6303,-3.6303,-3.4688,-3.3807,-3.3807,-3.3807,-3.3807,-3.3807,-3.344,-3.2797,-3.1953,-3.158,-3.0742,-2.9537,-2.9537,-2.9416,-2.9178,-2.9044,-2.9127,-2.9345,-2.9475,-2.9598,-2.9705,-2.9927,-3.022,-3.0492,-3.0492,-3.0945,-3.1469,-3.0977,-3.132,-3.1786,-3.0903,-3.0868,-3.1049,-3.0373,-3.0105,-3.0061,-3.0323,-3.0404,-3.0404,-3.0404,-3.0404,-3.0404,-3.0404,-3.075,-3.1077,-3.1,-3.2083,-3.3147,-3.3475,-3.4345,-3.4812,-3.4274,-3.3577,-3.2755,-3.173,-3.2356,-3.2891,-3.2891,-3.4442,-3.55,-3.55,-3.55,-3.5515,-3.554,-3.5546,-3.535,-3.4923,-3.4859,-3.4857,-3.4857,-3.4909,-3.4614,-3.3957,-3.3879,-3.3481,-3.2801,-3.4052,-3.4448,-3.4121,-3.5,-3.5176,-3.4824,-3.5234,-3.5391,-3.5391,-3.5391,-3.5391,-3.5391,-3.5391,-3.5391,-3.5449,-3.5859,-3.5996,-3.5996,-4.3214,-4.341,-4.3515,-4.3515,-4.3515,-4.3515,-4.3515,-4.3515,-4.3277,-4.2653,-4.1735,-4.0857,-4.0249,-3.9294,-3.8707,-3.8707,-3.8707,-3.8707,-3.8707,-3.7184,-3.6303,-3.6303,-3.4688,-3.3807,-3.3807,-3.3807,-3.3807,-3.3807,-3.3421,-3.2706,-3.1659,-3.1091,-3.0283,-2.9262,-2.9078,-2.9005,-2.9005,-2.9005,-2.9005,-2.901,-2.9289,-2.9402,-2.9414,-2.9616,-3.0169,-3.0829,-3.0829,-3.1438,-3.2171,-3.1827,-3.1952,-3.2159,-3.1581,-3.1525,-3.1526,-3.0746,-3.0189,-2.9935,-3.0235,-3.0355,-3.0404,-3.0404,-3.0558,-3.0692,-3.0692,-3.1365,-3.1795,-3.1115,-3.2699,-3.3994,-3.3333,-3.4343,-3.4886,-3.3699,-3.3081,-3.2347,-3.1158,-3.1929,-3.2622,-3.2622,-3.3968,-3.4904,-3.4904,-3.5077,-3.5192,-3.5192,-3.5192,-3.4911,-3.4244,-3.4013,-3.3994,-3.4186,-3.4446,-3.4546,-3.4455,-3.3984,-3.3709,-3.3614,-3.4495,-3.4946,-3.5019,-3.5684,-3.5996,-3.5996,-3.5996,-3.5996,-3.5996,-3.5996,-3.5996,-3.5996,-3.5996,-3.5996,-3.5996,-3.5996,-3.5996,-3.5996,-4.2635,-4.316,-4.3515,-4.3515,-4.3515,-4.3515,-4.3515,-4.3515,-4.3478,-4.3423,-4.2066,-4.1077,-4.1022,-3.9627,-3.8707,-3.8707,-3.8707,-3.8707,-3.8707,-3.7184,-3.6303,-3.6303,-3.4688,-3.3807,-3.3807,-3.3807,-3.3807,-3.3807,-3.2302,-3.1898,-3.2454,-3.0216,-2.95,-3.0081,-2.9335,-2.9005,-2.9005,-2.9005,-2.9005,-2.901,-2.9289,-2.9402,-2.9414,-2.9616,-3.0086,-3.0615,-3.0615,-3.1462,-3.2457,-3.1691,-3.2414,-3.3374,-3.1874,-3.1916,-3.221,-3.0674,-2.9854,-2.9532,-2.9924,-3.0209,-3.0404,-3.0404,-3.1,-3.1602,-3.1602,-3.2237,-3.2795,-3.2737,-3.3506,-3.4186,-3.4129,-3.4212,-3.4526,-3.5199,-3.334,-3.2018,-3.2622,-3.2179,-3.1795,-3.1795,-3.2564,-3.3083,-3.3083,-3.3814,-3.4302,-3.4302,-3.4302,-3.4263,-3.4205,-3.343,-3.3372,-3.4167,-3.4994,-3.5052,-3.4323,-3.5054,-3.5111,-3.4514,-3.5394,-3.5844,-3.5918,-3.5976,-3.5996,-3.5996,-3.5996,-3.5996,-3.5996,-3.5996,-3.5996,-3.5996,-3.5996,-3.5996,-3.5996,-3.5996,-3.5996,-3.5996,-4.2101,-4.2865,-4.3392,-4.305,-4.3268,-4.3331,-4.2818,-4.3167,-4.313,-4.2139,-4.148,-4.0912,-4.0414,-3.9368,-3.8707,-3.8707,-3.8707,-3.8707,-3.8707,-3.7661,-3.6372,-3.4816,-3.4137,-3.3807,-3.3807,-3.3807,-3.3807,-3.3807,-3.3183,-3.2797,-3.2564,-3.1146,-3.0393,-3.0173,-2.9354,-2.928,-2.9702,-2.9207,-2.9299,-2.9714,-2.9314,-2.9156,-2.9167,-2.9238,-3.0032,-3.1032,-3.0522,-3.1648,-3.322,-3.243,-3.2889,-3.3697,-3.3073,-3.2761,-3.2381,-3.1274,-3.0216,-2.9536,-3.0199,-3.0179,-3.0,-3.0122,-3.0398,-3.0681,-3.086,-3.1545,-3.2006,-3.1462,-3.2449,-3.3237,-3.2737,-3.3064,-3.3333,-3.3179,-3.2333,-3.1621,-3.1385,-3.1545,-3.1698,-3.1698,-3.241,-3.2891,-3.2891,-3.3199,-3.3391,-3.3391,-3.3391,-3.3179,-3.2679,-3.2814,-3.3295,-3.4167,-3.5045,-3.5354,-3.5046,-3.5367,-3.5441,-3.5279,-3.5613,-3.5841,-3.5996,-3.5996,-3.5996,-3.5996,-3.5996,-3.5996,-3.6035,-3.6582,-3.6816,-3.6855,-3.7402,-3.7617,-3.7559,-3.7012,-3.7148,-3.7539,-4.1512,-4.2111,-4.2503,-4.214,-4.2173,-4.214,-4.1735,-4.2153,-4.2151,-4.1207,-4.0875,-4.0506,-3.9955,-3.9184,-3.8707,-3.8707,-3.8707,-3.8707,-3.8707,-3.7698,-3.6229,-3.4266,-3.3935,-3.3807,-3.3807,-3.3807,-3.3807,-3.3807,-3.355,-3.3275,-3.2949,-3.188,-3.1237,-3.0913,-2.9849,-2.9824,-3.0522,-2.9721,-2.9702,-3.0173,-2.9879,-2.9592,-2.939,-2.9647,-3.0595,-3.1659,-3.087,-3.1806,-3.3311,-3.2504,-3.2761,-3.3421,-3.3421,-3.3041,-3.2491,-3.1935,-3.0775,-2.9823,-3.062,-3.0352,-2.9889,-2.9981,-3.0216,-3.0476,-3.0752,-3.1462,-3.1833,-3.0981,-3.1929,-3.2641,-3.1852,-3.216,-3.2333,-3.1795,-3.1468,-3.1077,-3.0481,-3.0904,-3.1288,-3.1288,-3.1775,-3.2122,-3.2122,-3.2352,-3.2526,-3.2526,-3.2526,-3.2275,-3.1737,-3.2468,-3.3295,-3.4167,-3.5045,-3.55,-3.55,-3.55,-3.555,-3.5679,-3.5689,-3.5792,-3.5973,-3.5996,-3.5996,-3.5996,-3.5996,-3.6152,-3.6445,-3.7051,-3.7461,-3.7773,-3.8379,-3.8594,-3.8535,-3.793,-3.8086,-3.8516,-4.0903,-4.0775,-4.0686,-4.0681,-4.0083,-3.9749,-4.0221,-4.0294,-4.0473,-4.1009,-4.0396,-3.9882,-3.9882,-3.9184,-3.8707,-3.8707,-3.8707,-3.8707,-3.8707,-3.7184,-3.5917,-3.5059,-3.4215,-3.3807,-3.3807,-3.3807,-3.3807,-3.3807,-3.2999,-3.3023,-3.3752,-3.2155,-3.1843,-3.2528,-3.0925,-3.065,-3.136,-3.0558,-3.021,-3.0283,-3.1085,-3.0907,-3.0301,-3.1103,-3.1898,-3.2491,-3.1678,-3.1916,-3.2472,-3.1659,-3.1935,-3.2601,-3.2601,-3.2601,-3.2583,-3.2601,-3.1445,-3.0375,-3.1195,-3.0797,-3.0161,-3.0035,-3.0654,-3.1362,-3.1623,-3.2314,-3.266,-3.1852,-3.2314,-3.2641,-3.1833,-3.1698,-3.1698,-3.1698,-3.0962,-3.0404,-3.0404,-3.0404,-3.0404,-3.0404,-3.0404,-3.0404,-3.0404,-3.1173,-3.1698,-3.1698,-3.1698,-3.1718,-3.1718,-3.2487,-3.3314,-3.4186,-3.5045,-3.55,-3.55,-3.55,-3.5534,-3.5591,-3.5675,-3.5786,-3.5903,-3.5973,-3.6016,-3.6016,-3.6016,-3.6504,-3.7305,-3.7324,-3.7832,-3.8613,-3.8613,-3.8613,-3.8613,-3.8613,-3.8613,-3.8613,-3.9648,-3.9761,-3.9787,-3.9371,-3.945,-3.9453,-3.9018,-3.9449,-3.9566,-3.8933,-3.9147,-3.9264,-3.908,-3.8836,-3.8707,-3.8707,-3.8707,-3.8707,-3.8707,-3.7184,-3.6174,-3.5917,-3.4559,-3.3807,-3.3807,-3.3807,-3.3807,-3.3807,-3.3568,-3.3568,-3.377,-3.2724,-3.2375,-3.2546,-3.1513,-3.1494,-3.2192,-3.1384,-3.1366,-3.1849,-3.1531,-3.1268,-3.1072,-3.1323,-3.1562,-3.1641,-3.0852,-3.1072,-3.1641,-3.0834,-3.1476,-3.2601,-3.2601,-3.221,-3.1861,-3.2417,-3.106,-2.9776,-3.1733,-3.0821,-2.9562,-3.0414,-3.0715,-3.0808,-3.0791,-3.0836,-3.0859,-3.0803,-3.0981,-3.1077,-3.0827,-3.0788,-3.0788,-3.0788,-3.0577,-3.0404,-3.0404,-3.0404,-3.0404,-3.0404,-3.0404,-3.0404,-3.0404,-3.0635,-3.0788,-3.0788,-3.1346,-3.2218,-3.3391,-3.3686,-3.4199,-3.5084,-3.5365,-3.55,-3.55,-3.55,-3.5534,-3.5611,-3.6285,-3.6688,-3.6803,-3.6872,-3.7246,-3.7793,-3.7187,-3.7402,-3.8262,-3.8867,-3.9277,-3.957,-4.0195,-4.043,-4.0351,-3.9746,-3.9902,-4.0332,-3.9044,-3.8946,-3.8903,-3.8837,-3.8633,-3.8381,-3.8093,-3.8204,-3.8157,-3.7685,-3.8062,-3.8294,-3.8121,-3.8118,-3.8185,-3.8366,-3.8382,-3.8353,-3.8215,-3.7125,-3.6255,-3.5811,-3.4816,-3.4137,-3.3807,-3.3807,-3.3807,-3.3807,-3.3807,-3.3807,-3.3788,-3.3311,-3.306,-3.3036,-3.2228,-3.232,-3.3023,-3.2228,-3.1971,-3.2137,-3.2284,-3.1966,-3.1433,-3.1751,-3.1861,-3.1733,-3.0595,-3.0503,-3.0852,-3.0356,-3.1274,-3.2656,-3.2981,-3.2742,-3.243,-3.2926,-3.1812,-3.0748,-3.2197,-3.1537,-3.0482,-3.0718,-3.0446,-3.0112,-3.0114,-2.9996,-2.9935,-3.0099,-3.0121,-3.0142,-3.0235,-3.0248,-3.0286,-3.0373,-3.0404,-3.0404,-3.0404,-3.0404,-3.0404,-3.0404,-3.0404,-3.0404,-3.0404,-3.0712,-3.1058,-3.1365,-3.1891,-3.2776,-3.4129,-3.4205,-3.4603,-3.5462,-3.55,-3.5654,-3.5962,-3.5962,-3.5997,-3.6045,-3.6988,-3.7487,-3.756,-3.7648,-3.7982,-3.845,-3.7923,-3.8196,-3.9037,-3.9564,-4.0003,-4.0384,-4.0912,-4.115,-4.1133,-4.0605,-4.0742,-4.1113,-3.8785,-3.8261,-3.799,-3.8582,-3.7642,-3.6928,-3.7284,-3.6761,-3.6519,-3.7076,-3.7133,-3.7152,-3.7192,-3.7209,-3.736,-3.779,-3.7842,-3.7741,-3.7485,-3.6868,-3.6061,-3.5023,-3.4851,-3.4444,-3.3766,-3.3775,-3.3807,-3.3807,-3.3807,-3.3807,-3.3807,-3.3807,-3.3807,-3.377,-3.3036,-3.3109,-3.3752,-3.2931,-3.2173,-3.1635,-3.3018,-3.2706,-3.1488,-3.221,-3.2454,-3.2179,-3.0742,-3.0155,-3.0118,-3.0265,-3.1329,-3.2729,-3.355,-3.3752,-3.3715,-3.377,-3.3183,-3.2509,-3.2583,-3.2491,-3.209,-3.0876,-2.9956,-2.9424,-2.9643,-2.9687,-2.9678,-2.9696,-2.9705,-2.9765,-2.9947,-2.9977,-3.0054,-3.0299,-3.0394,-3.0413,-3.0343,-3.0432,-3.0457,-3.0361,-3.045,-3.0519,-3.0519,-3.1288,-3.2141,-3.2968,-3.3026,-3.343,-3.4379,-3.4417,-3.4814,-3.5692,-3.5712,-3.6077,-3.6808,-3.6885,-3.6885,-3.6834,-3.7776,-3.8214,-3.8219,-3.8358,-3.8463,-3.8525,-3.8443,-3.8914,-3.97,-3.97,-4.0227,-4.0996,-4.0996,-4.1078,-4.1172,-4.1191,-4.1191,-4.1172,-3.7286,-3.7151,-3.6874,-3.6434,-3.6586,-3.6615,-3.6084,-3.5885,-3.5985,-3.6501,-3.6563,-3.6724,-3.7135,-3.7209,-3.7229,-3.7341,-3.7341,-3.7325,-3.7274,-3.5972,-3.51,-3.4846,-3.3685,-3.3129,-3.3335,-3.3652,-3.3807,-3.3807,-3.3807,-3.3807,-3.3807,-3.3807,-3.3807,-3.3788,-3.3623,-3.3642,-3.3752,-3.2931,-3.2491,-3.232,-3.2027,-3.1709,-3.1415,-3.1586,-3.1274,-3.0668,-3.0338,-2.9794,-2.9445,-3.0705,-3.1788,-3.2729,-3.355,-3.3366,-3.2968,-3.3623,-3.2779,-3.1806,-3.2417,-3.1684,-3.0644,-3.0366,-2.9678,-2.9185,-2.9607,-2.9579,-2.9513,-2.967,-2.9705,-2.9722,-2.9765,-2.9773,-2.9771,-2.984,-3.0389,-3.057,-2.9943,-3.059,-3.0851,-3.0178,-3.0868,-3.1429,-3.1429,-3.216,-3.3006,-3.3859,-3.3917,-3.4564,-3.6084,-3.6161,-3.6565,-3.743,-3.7469,-3.7546,-3.7719,-3.8392,-3.8392,-3.7719,-3.8677,-3.9121,-3.9127,-3.9265,-3.9661,-4.021,-3.9583,-3.9778,-4.0544,-4.0544,-4.0718,-4.0996,-4.0996,-4.1021,-4.1054,-4.1151,-4.1129,-4.1055,-3.688,-3.6795,-3.6795,-3.6721,-3.6738,-3.666,-3.6231,-3.5859,-3.5694,-3.5985,-3.6028,-3.6139,-3.6399,-3.644,-3.6542,-3.6803,-3.6823,-3.6941,-3.7173,-3.6169,-3.534,-3.4818,-3.4022,-3.3362,-3.2874,-3.3072,-3.3372,-3.3807,-3.3606,-3.3606,-3.3807,-3.3807,-3.3807,-3.3807,-3.3807,-3.3587,-3.3201,-3.2784,-3.2381,-3.199,-3.158,-3.1397,-3.136,-3.0962,-3.0797,-3.0723,-3.0338,-3.0173,-3.0265,-3.1109,-3.1935,-3.2674,-3.3091,-3.3201,-3.3256,-3.3678,-3.3201,-3.2467,-3.2118,-3.1971,-3.1549,-3.0014,-2.9886,-3.0109,-2.9965,-2.9569,-2.9357,-2.9828,-2.9617,-2.9407,-2.9523,-2.957,-2.9589,-2.9687,-3.0375,-3.0611,-2.9818,-3.0849,-3.1364,-3.0528,-3.129,-3.2103,-3.2654,-3.3204,-3.3872,-3.4757,-3.518,-3.5776,-3.6654,-3.7077,-3.7526,-3.7988,-3.8007,-3.82,-3.8623,-3.9073,-3.9265,-3.9207,-3.9693,-3.9914,-3.9934,-3.9996,-4.0264,-4.0637,-4.0206,-4.0264,-4.0657,-4.0657,-4.0738,-4.0863,-4.0863,-4.0873,-4.0914,-4.0988,-4.1017,-4.1023,-3.6705,-3.6711,-3.6965,-3.7432,-3.711,-3.6761,-3.6626,-3.6028,-3.56,-3.56,-3.56,-3.56,-3.56,-3.56,-3.5783,-3.6224,-3.6249,-3.644,-3.6902,-3.6258,-3.5486,-3.4602,-3.4321,-3.3688,-3.2613,-3.2386,-3.2695,-3.3578,-3.3317,-3.3361,-3.3694,-3.378,-3.3807,-3.3807,-3.3807,-3.3348,-3.2601,-3.2601,-3.2063,-3.1195,-3.1195,-3.1121,-3.0925,-3.0393,-3.0613,-3.114,-3.0595,-3.0834,-3.1397,-3.1397,-3.1935,-3.2619,-3.2748,-3.3256,-3.3807,-3.3807,-3.3807,-3.344,-3.1837,-3.2375,-3.2724,-2.9904,-3.0099,-3.0889,-3.0485,-2.9684,-2.9189,-2.9849,-2.9464,-2.9067,-2.9289,-2.9442,-2.9588,-2.9748,-3.0452,-3.0696,-2.9898,-3.1082,-3.1759,-3.0942,-3.1723,-3.276,-3.3917,-3.4347,-3.4819,-3.5442,-3.6385,-3.6923,-3.6923,-3.7757,-3.8296,-3.8411,-3.843,-3.8777,-3.9496,-3.9515,-3.9842,-4.0496,-4.0496,-4.0496,-4.0496,-4.0496,-4.0496,-4.0496,-4.0496,-4.0496,-4.0496,-4.0496,-4.0588,-4.0697,-4.0697,-4.0736,-4.0788,-4.0788,-4.0887,-4.1021,-3.5769,-3.6315,-3.6626,-3.6005,-3.64,-3.6575,-3.5876,-3.5667,-3.56,-3.56,-3.56,-3.56,-3.56,-3.56,-3.5644,-3.5694,-3.5717,-3.5739,-3.581,-3.4555,-3.3739,-3.3598,-3.2358,-3.2076,-3.2904,-3.1907,-3.1805,-3.2681,-3.3029,-3.3229,-3.3288,-3.3652,-3.3807,-3.3807,-3.3807,-3.3348,-3.2601,-3.2601,-3.172,-3.0356,-3.0356,-2.9941,-2.939,-2.9989,-3.0265,-3.0448,-3.1017,-3.1323,-3.1397,-3.1397,-3.1935,-3.2711,-3.3421,-3.3715,-3.3807,-3.3807,-3.3807,-3.344,-3.1837,-3.1562,-3.1439,-3.032,-2.9684,-2.9647,-3.0944,-3.0081,-2.9023,-2.9133,-2.9078,-2.9017,-2.9051,-2.9625,-3.0097,-3.0143,-3.0807,-3.1058,-3.0254,-3.1117,-3.1531,-3.074,-3.217,-3.3677,-3.4812,-3.5596,-3.5878,-3.5525,-3.6949,-3.7815,-3.7815,-3.8642,-3.9438,-4.015,-4.0169,-4.0227,-4.0342,-4.0342,-4.04,-4.0496,-4.0496,-4.0496,-4.0496,-4.0496,-4.0496,-4.0496,-4.0496,-4.0496,-4.0496,-4.0496,-4.0588,-4.0697,-4.0697,-4.0709,-4.0707,-4.0707,-4.0843,-4.0996,-3.5599,-3.5893,-3.6028,-3.565,-3.5887,-3.6011,-3.565,-3.56,-3.56,-3.56,-3.56,-3.56,-3.56,-3.56,-3.56,-3.56,-3.56,-3.56,-3.56,-3.4991,-3.4247,-3.344,-3.3169,-3.292,-3.2633,-3.2091,-3.2003,-3.2391,-3.268,-3.2809,-3.2809,-3.349,-3.368,-3.348,-3.3707,-3.3109,-3.1953,-3.2399,-3.1665,-3.021,-3.021,-3.0265,-3.0283,-2.9739,-3.0099,-3.0907,-3.1268,-3.1397,-3.1397,-3.1397,-3.1641,-3.2063,-3.2889,-3.344,-3.3807,-3.3807,-3.3807,-3.344,-3.1837,-3.2045,-3.232,-3.0632,-3.0613,-3.095,-3.0779,-3.0173,-2.9666,-2.9666,-2.9317,-2.9005,-2.9005,-2.9647,-3.021,-3.021,-3.1256,-3.1788,-3.098,-3.206,-3.2779,-3.2428,-3.325,-3.4044,-3.4557,-3.5086,-3.5486,-3.5701,-3.7003,-3.797,-3.8412,-3.9426,-4.0131,-4.0496,-4.0496,-4.0496,-4.0496,-4.0496,-4.0746,-4.1239,-4.1239,-4.1239,-4.12,-4.0727,-4.0766,-4.12,-4.0708,-4.0496,-4.0496,-4.0496,-4.053,-4.0582,-4.0582,-4.0582,-4.0589,-4.0667,-4.0761,-4.0848]},{"header":{"parameterUnit":"m.s-1","parameterCategory":1,"la1":30.6,"la2":28.766,"lo1":-90.7593,"lo2":-88.6598,"dy":0.0162,"dx":0.0183,"nx":116,"ny":114,"refTime":"2023-02-26T06:00:00:Z","depth":0,"parameterNumber":3,"parameterNumberName":"V-component_of_WINDS"},"data":[0.0,0.0,0.0,0.0,0.0,0.0,0.0,0.0,0.0,0.0,0.0,0.0,0.0,0.0,0.0,0.0,0.0,0.0,0.0,0.0,0.0,0.0,0.0,0.0,0.0,0.0,0.0,0.0,0.0,0.0,0.0,0.0,0.0,0.0,0.0,0.0,0.0,0.0,0.0,0.0,0.0,0.0,0.0,0.0,0.0,0.0,0.0,0.0,0.0,0.0,0.0,0.0,0.0,0.0,0.0,0.0,0.0,0.0,0.0,0.0,0.0,0.0,0.0,0.0,0.0,0.0,0.0,0.0,0.0,0.0,0.0,0.0,0.0,0.0,0.0,0.0,0.0,0.0,0.0,0.0,0.0,0.0,0.0,0.0,0.0,0.0,0.0,0.0,0.0,0.0,0.0,0.0,0.0,0.0,0.0,0.0,0.0,0.0,0.0,0.0,0.0,0.0,0.0,0.0,0.0,0.0,0.0,0.0,0.0,0.0,0.0,0.0,0.0,0.0,0.0,0.0,0.0,0.0,0.0,0.0,0.0,0.0,0.0,0.0,0.0,0.0,0.0,0.0,0.0,0.0,0.0,0.0,0.0,0.0,0.0,0.0,0.0,0.0,0.0,0.0,0.0,0.0,0.0,0.0,0.0,0.0,0.0,0.0,0.0,0.0,0.0,0.0,0.0,0.0,0.0,0.0,0.0,0.0,0.0,0.0,0.0,0.0,0.0,0.0,0.0,0.0,0.0,0.0,0.0,0.0,0.0,0.0,0.0,0.0,0.0,0.0,0.0,0.0,0.0,0.0,0.0,0.0,0.0,0.0,0.0,0.0,0.0,0.0,0.0,0.0,0.0,0.0,0.0,0.0,0.0,0.0,0.0,0.0,0.0,0.0,0.0,0.0,0.0,0.0,0.0,0.0,0.0,0.0,0.0,0.0,0.0,0.0,0.0,0.0,0.0,0.0,0.0,0.0,0.0,0.0,0.0,0.0,0.0,0.0,0.0,0.0,0.0,0.0,0.0,0.0,0.0,0.0,0.0,0.0,0.0,0.0,0.0,0.0,0.0,0.0,0.0,0.0,0.0,0.0,0.0,0.0,0.0,0.0,0.0,0.0,0.0,0.0,0.0,0.0,0.0,0.0,0.0,0.0,0.0,0.0,0.0,0.0,0.0,0.0,0.0,0.0,0.0,0.0,0.0,0.0,0.0,0.0,0.0,0.0,0.0,0.0,0.0,0.0,0.0,0.0,0.0,0.0,0.0,0.0,0.0,0.0,0.0,0.0,0.0,0.0,0.0,0.0,0.0,0.0,0.0,0.0,0.0,0.0,0.0,0.0,0.0,0.0,0.0,0.0,0.0,0.0,0.0,0.0,0.0,0.0,0.0,0.0,0.0,0.0,0.0,0.0,0.0,0.0,0.0,0.0,0.0,0.0,0.0,0.0,0.0,0.0,0.0,0.0,0.0,0.0,0.0,0.0,0.0,0.0,0.0,0.0,0.0,0.0,0.0,0.0,0.0,0.0,0.0,0.0,0.0,0.0,0.0,0.0,0.0,0.0,0.0,0.0,0.0,0.0,0.0,0.0,0.0,0.0,0.0,0.0,0.0,0.0,0.0,0.0,0.0,0.0,0.0,0.0,0.0,0.0,0.0,0.0,0.0,0.0,0.0,0.0,0.0,0.0,0.0,0.0,0.0,0.0,0.0,0.0,0.0,0.0,0.0,0.0,0.0,0.0,0.0,0.0,0.0,0.0,0.0,0.0,0.0,0.0,0.0,0.0,0.0,0.0,0.0,0.0,0.0,0.0,0.0,0.0,0.0,0.0,0.0,0.0,0.0,0.0,0.0,0.0,0.0,0.0,0.0,0.0,0.0,0.0,0.0,0.0,0.0,0.0,0.0,0.0,0.0,0.0,0.0,0.0,0.0,0.0,0.0,0.0,0.0,0.0,0.0,0.0,0.0,0.0,0.0,0.0,0.0,0.0,0.0,0.0,0.0,0.0,0.0,0.0,0.0,0.0,0.0,0.0,0.0,0.0,0.0,0.0,0.0,0.0,0.0,0.0,0.0,0.0,0.0,0.0,0.0,0.0,0.0,0.0,0.0,0.0,0.0,0.0,0.0,0.0,0.0,0.0,0.0,0.0,0.0,0.0,0.0,0.0,0.0,0.0,0.0,0.0,0.0,0.0,0.0,0.0,0.0,0.0,0.0,0.0,0.0,0.0,0.0,0.0,0.0,0.0,0.0,0.0,0.0,0.0,0.0,0.0,0.0,0.0,0.0,0.0,0.0,0.0,0.0,0.0,0.0,0.0,0.0,0.0,0.0,0.0,0.0,0.0,0.0,0.0,0.0,0.0,0.0,0.0,0.0,0.0,0.0,0.0,0.0,0.0,0.0,0.0,0.0,0.0,0.0,0.0,0.0,0.0,0.0,0.0,0.0,0.0,0.0,0.0,0.0,0.0,0.0,0.0,0.0,0.0,0.0,0.0,0.0,0.0,0.0,0.0,0.0,0.0,0.0,0.0,0.0,0.0,0.0,0.0,0.0,0.0,0.0,0.0,0.0,0.0,0.0,0.0,0.0,0.0,0.0,0.0,0.0,0.0,0.0,0.0,0.0,0.0,0.0,0.0,0.0,0.0,0.0,0.0,0.0,0.0,0.0,0.0,0.0,0.0,0.0,0.0,0.0,0.0,0.0,0.0,0.0,0.0,0.0,0.0,0.0,0.0,0.0,0.0,0.0,0.0,0.0,0.0,0.0,0.0,0.0,0.0,0.0,0.0,0.0,0.0,0.0,0.0,0.0,0.0,0.0,0.0,0.0,0.0,0.0,0.0,0.0,0.0,0.0,0.0,0.0,0.0,0.0,0.0,0.0,0.0,0.0,0.0,0.0,0.0,0.0,0.0,0.0,0.0,0.0,0.0,0.0,0.0,0.0,0.0,0.0,0.0,0.0,0.0,0.0,0.0,0.0,0.0,0.0,0.0,0.0,0.0,0.0,0.0,0.0,0.0,0.0,0.0,0.0,0.0,0.0,0.0,0.0,0.0,0.0,0.0,0.0,0.0,0.0,0.0,0.0,0.0,0.0,0.0,0.0,0.0,0.0,0.0,0.0,0.0,0.0,0.0,0.0,0.0,0.0,0.0,0.0,0.0,0.0,0.0,0.0,0.0,0.0,0.0,0.0,0.0,0.0,0.0,0.0,0.0,0.0,0.0,0.0,0.0,0.0,0.0,0.0,0.0,0.0,0.0,0.0,0.0,0.0,0.0,0.0,0.0,0.0,0.0,0.0,0.0,0.0,0.0,0.0,0.0,0.0,0.0,0.0,0.0,0.0,0.0,0.0,0.0,0.0,0.0,0.0,0.0,0.0,0.0,0.0,0.0,0.0,0.0,0.0,0.0,0.0,0.0,0.0,0.0,0.0,0.0,0.0,0.0,0.0,0.0,0.0,0.0,0.0,0.0,0.0,0.0,0.0,0.0,0.0,0.0,0.0,0.0,0.0,0.0,0.0,0.0,0.0,0.0,0.0,0.0,0.0,0.0,0.0,0.0,0.0,0.0,0.0,0.0,0.0,0.0,0.0,0.0,0.0,0.0,0.0,0.0,0.0,0.0,0.0,0.0,0.0,0.0,0.0,0.0,0.0,0.0,0.0,0.0,0.0,0.0,0.0,0.0,0.0,0.0,0.0,0.0,0.0,0.0,0.0,0.0,0.0,0.0,0.0,0.0,0.0,0.0,0.0,0.0,0.0,0.0,0.0,0.0,0.0,0.0,0.0,0.0,0.0,0.0,0.0,0.0,0.0,0.0,0.0,0.0,0.0,0.0,0.0,0.0,0.0,0.0,0.0,0.0,0.0,0.0,0.0,0.0,0.0,0.0,0.0,0.0,0.0,0.0,0.0,0.0,0.0,0.0,0.0,0.0,0.0,0.0,0.0,0.0,0.0,0.0,0.0,0.0,0.0,0.0,0.0,0.0,0.0,0.0,0.0,0.0,0.0,0.0,0.0,0.0,0.0,0.0,0.0,0.0,0.0,0.0,0.0,0.0,0.0,0.0,0.0,0.0,0.0,0.0,0.0,0.0,0.0,0.0,0.0,0.0,0.0,0.0,0.0,0.0,0.0,0.0,0.0,0.0,0.0,0.0,0.0,0.0,0.0,0.0,0.0,0.0,0.0,0.0,0.0,0.0,0.0,0.0,0.0,0.0,0.0,0.0,0.0,0.0,0.0,0.0,0.0,0.0,0.0,0.0,0.0,0.0,0.0,0.0,0.0,0.0,0.0,0.0,0.0,0.0,0.0,0.0,0.0,0.0,0.0,0.0,0.0,0.0,0.0,0.0,0.0,0.0,0.0,0.0,0.0,0.0,0.0,0.0,0.0,0.0,0.0,0.0,0.0,0.0,0.0,0.0,0.0,0.0,0.0,0.0,0.0,0.0,0.0,0.0,0.0,0.0,0.0,0.0,0.0,0.0,0.0,0.0,0.0,0.0,0.0,0.0,0.0,0.0,0.0,0.0,0.0,0.0,0.0,0.0,0.0,0.0,0.0,0.0,0.0,0.0,0.0,0.0,0.0,0.0,0.0,0.0,0.0,0.0,0.0,0.0,0.0,0.0,0.0,0.0,0.0,0.0,0.0,0.0,0.0,0.0,0.0,0.0,0.0,0.0,0.0,0.0,0.0,0.0,0.0,0.0,0.0,0.0,0.0,0.0,0.0,0.0,0.0,0.0,0.0,0.0,0.0,0.0,0.0,0.0,0.0,0.0,0.0,0.0,0.0,0.0,0.0,0.0,0.0,0.0,0.0,0.0,0.0,0.0,0.0,0.0,0.0,0.0,0.0,0.0,0.0,0.0,0.0,0.0,0.0,0.0,0.0,0.0,0.0,0.0,0.0,0.0,0.0,0.0,0.0,0.0,0.0,0.0,0.0,0.0,0.0,0.0,0.0,0.0,0.0,0.0,0.0,0.0,0.0,0.0,0.0,0.0,0.0,0.0,0.0,0.0,0.0,0.0,0.0,0.0,0.0,0.0,0.0,0.0,0.0,0.0,0.0,0.0,0.0,0.0,0.0,0.0,0.0,0.0,0.0,0.0,0.0,0.0,0.0,0.0,0.0,0.0,0.0,0.0,0.0,0.0,0.0,0.0,0.0,0.0,0.0,0.0,0.0,0.0,0.0,0.0,0.0,0.0,0.0,0.0,0.0,0.0,0.0,0.0,0.0,0.0,0.0,0.0,0.0,0.0,0.0,0.0,0.0,0.0,0.0,0.0,0.0,0.0,0.0,0.0,0.0,0.0,0.0,0.0,0.0,0.0,0.0,0.0,0.0,0.0,0.0,0.0,0.0,0.0,0.0,0.0,0.0,0.0,0.0,0.0,0.0,0.0,0.0,0.0,0.0,0.0,0.0,0.0,0.0,0.0,0.0,0.0,0.0,0.0,0.0,0.0,0.0,0.0,0.0,0.0,0.0,0.0,0.0,0.0,0.0,0.0,0.0,0.0,0.0,0.0,0.0,0.0,0.0,0.0,0.0,0.0,0.0,0.0,0.0,0.0,0.0,0.0,0.0,0.0,0.0,0.0,0.0,0.0,0.0,0.0,0.0,0.0,0.0,0.0,0.0,0.0,0.0,0.0,0.0,0.0,0.0,0.0,0.0,0.0,0.0,0.0,0.0,0.0,0.0,0.0,0.0,0.0,0.0,0.0,0.0,0.0,0.0,0.0,0.0,0.0,0.0,0.0,0.0,0.0,0.0,0.0,0.0,0.0,0.0,0.0,0.0,0.0,0.0,0.0,0.0,0.0,0.0,0.0,0.0,0.0,0.0,0.0,0.0,0.0,0.0,0.0,0.0,0.0,0.0,0.0,0.0,0.0,0.0,0.0,0.0,0.0,0.0,0.0,0.0,0.0,0.0,0.0,0.0,0.0,0.0,0.0,0.0,0.0,0.0,0.0,0.0,0.0,0.0,0.0,0.0,0.0,0.0,0.0,0.0,0.0,0.0,0.0,0.0,0.0,0.0,0.0,0.0,0.0,0.0,0.0,0.0,0.0,0.0,0.0,0.0,0.0,0.0,0.0,0.0,0.0,0.0,0.0,0.0,0.0,0.0,0.0,0.0,0.0,-0.6131,-0.7003,0.0,0.0,0.0,0.0,0.0,0.0,0.0,0.0,0.0,0.0,0.0,0.0,0.0,0.0,0.0,0.0,0.0,0.0,0.0,0.0,0.0,0.0,0.0,0.0,0.0,0.0,0.0,0.0,0.0,0.0,0.0,0.0,0.0,0.0,0.0,0.0,0.0,0.0,0.0,0.0,0.0,0.0,0.0,0.0,0.0,0.0,0.0,0.0,0.0,0.0,0.0,0.0,0.0,0.0,0.0,0.0,0.0,0.0,0.0,0.0,0.0,0.0,0.0,0.0,0.0,0.0,0.0,0.0,0.0,0.0,0.0,0.0,0.0,0.0,0.0,0.0,0.0,0.0,0.0,0.0,0.0,0.0,0.0,0.0,0.0,0.0,0.0,0.0,0.0,0.0,0.0,0.0,0.0,0.0,0.0,0.0,0.0,0.0,0.0,0.0,0.0,0.0,0.0,0.0,0.0,0.0,0.0,0.0,0.0,0.0,0.0,0.0,0.0,0.0,-0.615,-0.6905,0.0,0.0,0.0,0.0,0.0,0.0,0.0,0.0,0.0,0.0,0.0,0.0,0.0,0.0,0.0,0.0,0.0,0.0,0.0,0.0,0.0,0.0,0.0,0.0,0.0,0.0,0.0,0.0,0.0,0.0,0.0,0.0,0.0,0.0,0.0,0.0,0.0,0.0,0.0,0.0,0.0,0.0,0.0,0.0,0.0,0.0,0.0,0.0,0.0,0.0,0.0,0.0,0.0,0.0,0.0,0.0,0.0,0.0,0.0,0.0,0.0,0.0,0.0,0.0,0.0,0.0,0.0,0.0,0.0,0.0,0.0,0.0,0.0,0.0,0.0,0.0,0.0,0.0,0.0,0.0,0.0,0.0,0.0,0.0,0.0,0.0,0.0,0.0,0.0,0.0,0.0,0.0,0.0,0.0,0.0,0.0,0.0,0.0,0.0,0.0,0.0,0.0,0.0,0.0,0.0,0.0,0.0,0.0,-0.0578,-0.1126,-0.1358,-0.2416,-0.3509,-0.4678,-0.5895,-0.6567,-0.6873,-0.7691,0.0,0.0,0.0,0.0,0.0,0.0,0.0,0.0,0.0,0.0,0.0,0.0,0.0,0.0,0.0,0.0,0.0,0.0,0.0,0.0,0.0,0.0,0.0,0.0,0.0,0.0,0.0,0.0,0.0,0.0,0.0,0.0,0.0,0.0,0.0,0.0,0.0,0.0,0.0,0.0,0.0,0.0,0.0,0.0,0.0,0.0,0.0,0.0,0.0,0.0,0.0,0.0,0.0,0.0,0.0,0.0,0.0,0.0,0.0,0.0,0.0,0.0,0.0,0.0,0.0,0.0,0.0,0.0,0.0,0.0,0.0,0.0,0.0,0.0,0.0,0.0,0.0,0.0,0.0,0.0,0.0,0.0,0.0,0.0,0.0,0.0,0.9452,0.7245,0.0,0.0,0.0,0.0,0.0,0.0,0.0,0.0,0.0,0.0,0.0,0.0,0.0,0.3184,0.3116,0.3271,0.2749,0.1547,0.1401,0.0798,-0.0267,-0.1421,-0.2546,-0.3578,-0.478,0.0,-0.662,-0.7719,0.0,0.0,0.0,0.0,0.0,0.0,0.0,0.0,0.0,0.0,0.0,0.0,0.0,0.0,0.0,0.0,0.0,0.0,0.0,0.0,0.0,0.0,0.0,0.0,0.0,0.0,0.0,0.0,0.0,0.0,0.0,0.0,0.0,0.0,0.0,0.0,0.0,0.0,0.0,0.0,0.0,0.0,0.0,0.0,0.0,0.0,0.0,0.0,0.0,0.0,0.0,0.0,0.0,0.0,0.0,0.0,0.0,0.0,0.0,0.0,0.0,0.0,0.0,0.0,0.0,0.0,0.0,0.0,0.0,0.0,0.0,0.0,0.0,0.0,0.0,0.0,0.0,0.0,0.0,0.0,0.0,0.0,0.0,0.0,0.0,1.1284,1.0239,0.7483,0.6748,0.587,0.0,0.0,0.0,0.0,0.0,0.0,0.0,0.0,0.0,0.4208,0.4299,0.4009,0.3345,0.4002,0.3421,0.1672,0.1689,0.1111,0.0,-0.0563,-0.1719,-0.3401,-0.3908,-0.5043,-0.6558,-0.7024,-0.7521,-0.7996,0.0,0.0,0.0,0.0,-1.1539,-1.1676,0.0,0.0,0.0,0.0,0.0,0.0,0.0,0.0,0.0,0.0,0.0,0.0,0.0,0.0,0.0,0.0,0.0,0.0,0.0,0.0,0.0,0.0,0.0,0.0,0.0,0.0,0.0,0.0,0.0,0.0,0.0,0.0,0.0,0.0,0.0,0.0,0.0,0.0,0.0,0.0,0.0,0.0,0.0,0.0,0.0,0.0,0.0,0.0,0.0,0.0,0.0,0.0,0.0,0.0,0.0,0.0,0.0,0.0,0.0,0.0,0.0,0.0,0.0,0.0,0.0,0.0,0.0,0.0,0.0,0.0,0.0,0.0,0.0,0.0,0.0,0.0,0.0,1.2028,1.1132,0.856,0.8334,0.7769,0.0,0.0,0.0,0.0,0.0,0.0,0.6695,0.5819,0.5315,0.5349,0.5445,0.4989,0.4016,0.4897,0.4236,0.2069,0.2028,0.1307,0.0,0.0,-0.107,-0.2939,-0.3185,-0.4306,-0.6028,-0.6304,-0.686,-0.75,-0.7631,-0.8594,-0.9959,-1.0443,-1.1077,-1.1814,0.0,0.0,0.0,0.0,0.0,0.0,0.0,0.0,0.0,0.0,0.0,0.0,0.0,0.0,0.0,0.0,0.0,0.0,0.0,0.0,0.0,0.0,0.0,0.0,0.0,0.0,0.0,0.0,0.0,0.0,0.0,0.0,0.0,0.0,0.0,0.0,0.0,0.0,0.0,0.0,0.0,0.0,0.0,0.0,0.0,0.0,0.0,0.0,0.0,0.0,0.0,0.0,0.0,0.0,0.0,0.0,0.0,0.0,0.0,0.0,0.0,0.0,0.0,0.0,0.0,0.0,0.0,0.0,0.0,0.0,0.0,0.0,0.0,0.0,0.0,0.0,0.0,0.0,0.0,1.1912,1.1499,0.0,0.0,0.0,0.0,0.8319,0.7297,0.6692,0.6702,0.6515,0.6498,0.6602,0.6471,0.6465,0.6509,0.6561,0.5498,0.3318,0.3238,0.2084,0.0,0.0,-0.0622,-0.1747,-0.2581,-0.3548,-0.4681,-0.5841,-0.6221,-0.6183,-0.6993,-0.738,-0.7695,-0.9467,-1.0177,-1.0316,0.0,0.0,0.0,0.0,0.0,0.0,0.0,0.0,0.0,0.0,0.0,0.0,0.0,0.0,0.0,0.0,0.0,0.0,0.0,0.0,0.0,0.0,0.0,0.0,0.0,0.0,0.0,0.0,0.0,0.0,0.0,0.0,0.0,0.0,0.0,0.0,0.0,0.0,0.0,0.0,0.0,0.0,0.0,0.0,0.0,0.0,0.0,0.0,0.0,0.0,0.0,0.0,0.0,0.0,0.0,0.0,0.0,0.0,0.0,0.0,0.0,0.0,0.0,0.0,0.0,0.0,0.0,0.0,0.0,0.0,0.0,0.0,0.0,0.0,0.0,0.0,0.0,0.0,0.0,1.2552,1.2615,0.0,1.06,1.0234,1.0007,0.9715,0.8511,0.7846,0.796,0.7052,0.6497,0.646,0.6494,0.6359,0.6125,0.622,0.5186,0.3061,0.3061,0.1958,0.0,0.0,-0.0595,-0.162,-0.1919,-0.2928,-0.4345,-0.4663,-0.5243,-0.5914,-0.6212,-0.669,-0.7246,-0.7936,-0.8833,-0.9769,0.0,0.0,0.0,0.0,0.0,0.0,0.0,0.0,0.0,0.0,0.0,0.0,0.0,0.0,0.0,0.0,0.0,0.0,0.0,0.0,0.0,0.0,0.0,0.0,0.0,0.0,0.0,0.0,0.0,0.0,0.0,0.0,0.0,0.0,0.0,0.0,0.0,0.0,0.0,0.0,0.0,0.0,0.0698,0.0,0.0,0.0,0.0,0.0,0.0,0.0,0.0,0.0,0.0,0.0,0.0,0.0,0.0,0.0,0.0,0.0,0.0,0.0,0.0,0.0,0.0,0.0,0.0,0.0,0.0,0.0,0.0,0.0,0.0,0.0,0.0,0.0,0.0,0.0,1.5078,1.4008,1.4243,1.3893,1.2337,1.173,1.1321,1.0925,0.9722,0.8857,0.8551,0.7523,0.6745,0.6303,0.6289,0.6101,0.5803,0.5901,0.4919,0.2902,0.2902,0.1891,0.0,0.0,-0.0385,-0.1082,-0.1358,-0.2312,-0.364,-0.3855,-0.4546,-0.5504,-0.5504,-0.5843,-0.6408,-0.6695,-0.7481,-0.8461,0.0,0.0,0.0,0.0,0.0,0.0,0.0,0.0,0.0,0.0,0.0,0.0,0.0,0.0,0.0,0.0,0.0,0.0,0.0,0.0,0.0,0.0,0.0,0.0,0.0,0.0,0.0,0.0,0.0,0.0,0.0,0.0,0.0,0.0,0.0,0.0,0.0,0.0,0.0,0.0,0.0,0.0,0.217,0.0,0.0,0.0,0.0,0.0,0.0,0.0,0.0,0.0,0.0,0.0,0.0,0.0,0.0,0.0,0.0,0.0,0.0,0.0,0.0,0.0,0.0,0.0,0.0,0.0,0.0,0.0,0.0,0.0,0.0,0.0,0.0,0.0,1.5049,1.6301,1.7086,1.6513,1.6591,1.6301,1.5418,1.3861,1.2622,1.1987,1.0892,0.9673,0.8369,0.7973,0.7353,0.6398,0.5992,0.5796,0.5822,0.5789,0.4823,0.2927,0.2927,0.1927,0.0034,0.0033,0.0032,-0.0032,-0.0904,-0.1719,-0.2546,-0.3402,-0.4199,-0.4874,-0.4884,-0.4884,-0.5002,-0.583,-0.6181,-0.6442,0.0,0.0,0.0,0.0,0.0,0.0,0.0,0.0,0.0,0.0,0.0,0.0,0.0,0.0,0.0,0.0,0.0,0.0,0.0,0.0,0.0,0.0,0.0,0.0,0.0,0.0,0.0,0.0,0.0,0.0,0.0,0.0,0.0,0.0,0.0,0.0,0.0,0.0,0.0,0.0,0.0,0.0,0.3841,0.0,0.0,0.0,0.0,0.0,0.0,0.0,0.0,0.0,0.0,0.0,0.0,0.0,0.0,0.0,0.0,0.0,0.0,0.0,0.0,0.0,0.0,0.0,0.0,0.0,0.0,0.0,0.0,0.0,0.0,0.0,0.0,1.7644,1.6485,1.7106,1.7623,1.7409,1.7631,1.7251,1.6007,1.5267,1.4413,1.3203,1.1778,1.0773,1.0392,0.8609,0.7692,0.7956,0.6558,0.6008,0.6445,0.5931,0.5011,0.3688,0.3688,0.2737,0.0946,0.0938,0.0606,0.0,-0.0242,-0.1101,-0.2312,-0.2548,-0.3411,-0.4638,-0.4833,-0.485,-0.4781,-0.5012,-0.5706,-0.6708,0.0,0.0,0.0,0.0,0.0,0.0,0.0,0.0,0.0,0.0,0.0,0.0,0.0,0.0,0.0,0.0,0.0,0.0,0.0,0.0,0.0,0.0,0.0,0.0,0.0,0.0,0.0,0.0,0.0,0.0,0.0,0.0,0.0,0.0,0.0,0.0,0.0,0.0,0.0,0.0,0.0,0.0,0.6284,0.7075,0.7455,0.7632,0.7896,0.7542,0.688,0.6482,0.0,0.0,0.0,0.0,0.0,0.0,0.0,0.0,0.0,0.0,0.0,0.0,0.0,0.0,0.0,0.0,0.0,0.0,0.0,0.0,0.0,0.0,0.0,0.0,1.9229,2.0391,1.9745,1.9274,1.8904,1.8696,1.8434,1.7836,1.6863,1.5842,1.4838,1.3915,1.2505,1.1438,1.0903,0.9321,0.8413,0.8423,0.6952,0.6335,0.6687,0.5911,0.5002,0.3982,0.3613,0.2706,0.1287,0.0922,0.0467,0.0,0.0,-0.0835,-0.2207,-0.2193,-0.3121,-0.4508,0.0,0.0,0.0,0.0,-0.5893,-0.7182,0.0,0.0,0.0,0.0,0.0,0.0,0.0,0.0,0.0,0.0,0.0,0.0,0.0,0.0,0.0,0.0,0.0,0.0,0.0,0.0,0.0,0.0,0.0,0.0,0.0,0.0,0.0,0.0,0.0,0.0,0.0,0.0,0.0,0.0,0.0,0.0,0.0,0.0,0.0,0.0,0.0,0.0,0.9291,0.9672,0.9887,1.0066,1.0493,1.0208,0.9642,0.9945,0.0,0.0,0.0,0.0,0.0,0.0,0.0,0.0,0.0,0.0,0.0,0.0,0.0,0.0,0.0,0.0,0.0,0.0,0.0,0.0,0.0,0.0,0.0,0.0,2.2066,2.3514,2.3514,2.1958,2.0639,2.0139,1.9127,1.8285,1.7746,1.5983,1.4683,1.4171,1.3079,1.1857,1.0593,0.9982,0.0,0.0,0.0,0.6687,0.6687,0.5848,0.499,0.4148,0.3268,0.2366,0.1439,0.056,0.0091,0.0,0.0,-0.0838,-0.2202,-0.2202,-0.3121,-0.4491,-0.4491,-0.4491,-0.4598,-0.5355,-0.6443,-0.7589,0.0,0.0,0.0,0.0,0.0,0.0,0.0,0.0,0.0,0.0,0.0,0.0,0.0,0.0,0.0,0.0,0.0,0.0,0.0,0.0,0.0,0.0,0.0,0.0,0.0,0.0,0.0,0.0,0.0,0.0,0.0,0.0,0.0,0.0,0.0,0.0,0.0,0.0,0.0,0.0,0.0,0.0,1.2596,1.29,1.3022,1.3085,1.347,1.2954,1.2149,1.2539,1.1685,1.0449,1.0154,0.0,0.0,0.0,0.0,0.0,0.0,0.0,0.0,0.0,0.0,0.0,0.0,0.0,0.0,0.0,0.0,0.0,0.0,0.0,0.0,2.1744,2.2753,2.3514,2.3514,2.2816,2.1998,2.1183,2.023,1.909,1.7821,1.7074,1.5878,1.3938,1.3365,1.2551,1.1274,1.0261,0.9616,0.9416,0.7645,0.6687,0.6687,0.5848,0.5296,0.5123,0.4183,0.0,0.2386,0.1473,0.067,0.0,0.0,-0.0838,-0.2202,-0.2202,-0.3121,-0.4491,-0.4491,-0.4491,-0.4653,-0.5932,-0.6561,-0.6993,0.0,0.0,0.0,0.0,0.0,0.0,0.0,0.0,0.0,0.0,0.0,0.0,0.0,0.0,0.0,0.0,0.0,0.0,0.0,0.0,0.0,0.0,0.0,0.0,0.0,0.0,0.0,0.0,0.0,0.0,0.0,0.0,0.0,0.0,0.0,0.0,0.0,0.0,0.0,0.0,0.0,0.0,1.7799,1.655,1.5926,1.5827,1.6544,1.5839,1.4733,1.5692,1.472,1.3095,1.3129,1.2763,1.2107,0.0,0.0,0.0,0.0,0.0,0.0,0.0,0.0,0.0,0.0,0.0,0.0,0.0,0.0,1.9723,0.0,0.0,2.3187,2.3886,2.4555,2.4885,2.4577,2.391,2.2884,2.1303,2.0391,1.937,1.7988,1.7066,1.607,1.4891,1.3541,1.2483,1.1824,1.0751,0.9951,0.9527,0.8115,0.7144,0.6719,0.573,0.5284,0.5392,0.3943,0.3055,0.2642,0.1281,0.0404,0.0,0.0,-0.0838,-0.2258,-0.3037,-0.3818,-0.4491,-0.4491,-0.4708,-0.514,-0.6204,-0.6831,-0.7316,0.0,0.0,0.0,0.0,0.0,0.0,0.0,0.0,0.0,0.0,0.0,0.0,0.0,0.0,0.0,0.0,0.0,0.0,0.0,0.0,0.0,0.0,0.0,0.0,0.0,0.0,0.0,0.0,0.0,0.0,0.0,0.0,0.0,0.0,0.0,0.0,0.0,0.0,0.0,0.0,0.0,0.0,2.2922,2.058,1.9088,1.8314,1.9177,1.848,1.7355,1.8652,1.7782,1.6188,1.6456,1.5867,1.4898,1.3716,1.3606,0.0,0.0,0.0,0.0,0.0,0.0,0.0,0.0,0.0,2.0408,2.1783,2.1883,2.2227,2.3886,2.4466,2.4961,2.5804,2.601,2.5909,2.5415,2.4382,2.2891,2.0906,2.0212,1.9404,1.8115,1.6985,1.612,1.5703,1.3835,1.2513,1.2062,1.1175,1.029,0.9409,0.8474,0.7567,0.6719,0.5649,0.5192,0.5315,0.3571,0.2772,0.28,0.1033,0.0201,0.0196,-0.0252,-0.1174,-0.2508,-0.3929,-0.4491,-0.4491,-0.4491,-0.4842,-0.541,-0.6285,-0.6966,-0.7616,0.0,0.0,0.0,0.0,0.0,0.0,0.0,0.0,0.0,0.0,0.0,0.0,0.0,0.0,0.0,0.0,0.0,0.0,0.0,0.0,0.0,0.0,0.0,0.0,0.0,0.0,0.0,0.0,0.0,0.0,0.0,0.0,0.0,0.0,0.0,0.0,0.0,0.0,0.0,0.0,0.0,0.0,2.5818,2.5309,2.3135,2.0366,2.0431,2.018,1.9956,2.0661,2.0296,1.9579,1.9813,1.9033,1.7845,1.6875,0.0,1.5515,1.5522,1.7972,2.0862,2.2408,2.3949,2.587,0.0,0.0,2.7551,2.9975,2.9626,2.8742,2.8182,2.8127,2.7759,2.6612,2.5377,2.4518,2.4458,2.2886,2.1341,2.0305,2.0012,1.9404,1.8115,1.7857,1.6968,1.4976,1.457,1.3543,1.1587,1.1136,1.0548,0.9675,0.8592,0.7567,0.6719,0.5649,0.5106,0.512,0.4005,0.3477,0.3443,0.1739,0.0982,0.0866,-0.1087,-0.2425,-0.3234,-0.4125,-0.4491,-0.4491,-0.4491,-0.4546,-0.4763,-0.61,-0.6642,-0.6912,0.0,0.0,0.0,0.0,0.0,0.0,0.0,0.0,0.0,0.0,0.0,0.0,0.0,0.0,0.0,0.0,0.0,0.0,0.0,0.0,0.0,0.0,0.0,0.0,0.0,0.0,0.0,0.0,0.0,0.0,0.0,0.0,0.0,0.0,0.0,0.0,0.0,0.0,0.0,0.0,0.0,0.0,2.7548,2.6775,2.5321,2.3611,2.2717,2.2046,0.0,0.0,2.1111,2.0798,2.1074,2.0158,1.8968,1.9018,1.8621,0.0,2.013,2.3072,0.0,0.0,2.837,3.0466,3.1561,3.1158,3.0959,3.2385,3.1917,3.1244,3.116,2.9814,2.8586,0.0,2.6255,2.4515,2.3929,2.2615,2.1294,2.0104,1.9936,1.9404,1.8115,1.7793,1.7006,1.551,1.4757,1.3616,1.1961,1.1313,1.0515,0.9503,0.8998,0.8091,0.6719,0.6659,0.6096,0.5096,0.4601,0.4085,0.3542,0.1871,0.0866,0.0392,-0.0977,-0.173,-0.2091,-0.2843,-0.3428,-0.3846,-0.3846,-0.4125,-0.468,-0.6068,-0.6588,-0.6804,0.0,0.0,0.0,0.0,0.0,0.0,0.0,0.0,0.0,0.0,0.0,0.0,0.0,0.0,0.0,0.0,0.0,0.0,0.0,0.0,0.0,0.0,0.0,0.0,0.0,0.0,0.0,0.0,0.0,0.0,0.0,0.0,0.0,0.0,0.0,0.0,0.0,0.0,0.0,0.0,0.0,0.0,2.9349,2.8343,2.7348,2.6244,2.4273,2.3189,0.0,0.0,2.1339,2.1355,2.1506,2.0725,1.9813,2.0207,2.0557,2.135,2.3896,0.0,0.0,3.0027,3.2228,3.4227,3.4115,3.3986,3.407,3.4645,3.4181,3.3597,3.3355,3.165,3.005,2.9395,2.7107,2.4939,2.3531,2.2377,2.1201,1.9899,1.9729,1.9258,1.8031,1.7799,1.7191,1.5979,1.496,1.3721,1.2185,1.1558,1.079,0.9813,0.9542,0.8776,0.7437,0.7603,0.6937,0.5404,0.5255,0.4726,0.3783,0.2145,0.0783,-0.0336,-0.0866,-0.1202,-0.1452,-0.1981,-0.2676,-0.3372,-0.34,-0.3846,-0.4653,-0.585,-0.6421,-0.6804,0.0,0.0,0.0,0.0,0.0,0.0,0.0,0.0,0.0,0.0,0.0,0.0,0.0,0.0,0.0,0.0,0.0,0.0,0.0,0.0,0.0,0.0,0.0,0.0,0.0,0.0,0.0,0.0,0.0,0.0,0.0,0.0,0.0,0.0,0.0,0.0,0.0,0.0,0.0,0.0,0.0,0.0,3.1541,3.106,2.9692,2.7621,2.4373,0.0,0.0,0.0,2.1166,2.1537,2.1299,2.1044,0.0,2.0251,2.1521,0.0,0.0,0.0,3.1762,3.3127,3.511,3.6993,3.8139,3.8003,3.7789,3.8319,3.8007,3.6979,3.4757,3.4265,3.3018,2.9329,2.7501,2.5688,2.3256,2.1705,2.0471,1.9439,1.9304,1.8883,0.0,1.823,1.7787,1.5951,1.54,1.4198,1.2035,1.1879,1.1577,1.0969,1.0143,0.9553,0.921,0.8205,0.717,0.6169,0.6026,0.5446,0.4415,0.2871,0.0976,-0.1062,-0.109,-0.1507,-0.2174,-0.2202,-0.2649,-0.3314,-0.3372,-0.3846,-0.457,-0.5273,-0.5982,-0.6804,0.0,0.0,0.0,0.0,0.0,0.0,0.0,0.0,0.0,0.0,0.0,0.0,0.0,0.0,0.0,0.0,0.0,0.0,0.0,0.0,0.0,0.0,0.0,0.0,0.0,0.0,0.0,0.0,0.0,0.0,0.0,0.0,0.0,0.0,0.0,0.0,0.0,0.0,0.0,0.0,0.0,0.0,3.2049,2.9745,2.8141,2.6568,0.0,0.0,0.0,0.0,0.0,0.0,2.0141,0.0,0.0,2.1691,0.0,0.0,0.0,0.0,3.525,3.6525,3.8506,4.022,4.0631,4.056,4.0381,4.0171,3.8799,3.7199,3.5609,3.3978,3.2011,2.9352,2.7831,2.627,2.4118,2.2551,2.1465,2.1141,2.0534,0.0,0.0,0.0,0.0,1.5855,1.562,1.4788,1.2938,1.2254,1.1631,1.1009,1.0725,1.0157,0.9306,0.9283,0.8243,0.6186,0.5392,0.4556,0.3677,0.2649,0.1534,0.0335,-0.0168,-0.0504,-0.0727,-0.0727,-0.1452,-0.2559,-0.2505,-0.3311,-0.456,-0.5144,-0.5574,-0.6086,0.0,0.0,0.0,0.0,0.0,0.0,0.0,0.0,0.0,0.0,0.0,0.0,0.0,0.0,0.0,0.0,0.0,0.0,0.0,0.0,0.0,0.0,0.0,0.0,0.0,0.0,0.0,0.0,0.0,0.0,0.0,0.0,0.0,0.0,0.0,0.0,0.0,0.0,0.0,0.0,0.0,0.0,2.9371,2.7613,2.5539,0.0,0.0,0.0,0.0,0.0,0.0,0.0,0.0,0.0,0.0,0.0,0.0,0.0,0.0,3.4514,3.7205,3.8531,4.0203,4.168,4.2185,4.2225,4.1942,4.1153,3.9505,3.7699,3.6082,3.4452,3.2497,2.9876,2.8983,2.7756,2.5276,2.4107,2.3409,2.3167,2.2433,2.172,0.0,0.0,0.0,1.6635,1.6362,1.5422,1.3402,1.2741,1.1971,1.1048,1.0995,1.0536,0.958,0.9679,0.8512,0.6121,0.5027,0.4098,0.3317,0.2815,0.2202,0.148,0.0978,0.0643,0.0392,0.0392,-0.0472,-0.1834,-0.2008,-0.2859,-0.4084,-0.4673,-0.51,-0.5575,0.0,0.0,0.0,0.0,0.0,0.0,0.0,0.0,0.0,0.0,0.0,0.0,0.0,0.0,0.0,0.0,0.0,0.0,0.0,0.0,0.0,0.0,0.0,0.0,0.0,0.0,0.0,0.0,0.0,0.0,0.0,0.0,0.0,0.0,0.0,0.0,0.0,0.0,0.0,0.0,0.0,0.0,2.3829,2.4492,0.0,0.0,0.0,0.0,0.0,0.0,0.0,0.0,0.0,0.0,0.0,0.0,0.0,3.088,3.3753,3.5881,3.7674,3.9221,4.041,4.1561,4.2948,4.3033,4.2475,4.1343,4.0061,3.8385,0.0,0.0,3.4361,3.086,3.0847,3.0143,2.6812,2.6317,2.6064,0.0,0.0,0.0,0.0,0.0,0.0,1.8248,1.7533,1.6145,1.3599,1.3372,1.2618,1.1108,1.1008,1.0695,1.0127,0.9309,0.795,0.6079,0.5003,0.4153,0.3511,0.337,0.2926,0.2259,0.2204,0.1783,0.1087,0.1089,0.0219,-0.117,-0.1892,-0.2564,-0.3187,-0.3916,-0.4547,-0.5309,0.0,0.0,0.0,0.0,0.0,0.0,0.0,0.0,0.0,0.0,0.0,0.0,0.0,0.0,0.0,0.0,0.0,0.0,0.0,0.0,0.0,0.0,0.0,0.0,0.0,0.0,0.0,0.0,0.0,0.0,0.0,0.0,0.0,0.0,0.0,0.0,0.0,0.0,0.0,0.0,0.0,0.0,1.8809,0.0,0.0,0.0,0.0,0.0,0.0,0.0,0.0,0.0,0.0,0.0,2.5888,0.0,0.0,3.3025,3.5506,3.7381,3.9011,4.0666,4.1798,4.2824,4.3976,4.3572,4.2325,4.0149,3.8254,3.6124,0.0,0.0,0.0,3.0715,3.1642,0.0,3.0037,2.9353,0.0,2.7914,0.0,2.5808,2.4209,2.3203,0.0,0.0,1.8596,1.7162,1.5826,1.4185,1.2885,1.1924,1.1122,1.0526,1.009,0.8434,0.7485,0.7247,0.5384,0.4677,0.4937,0.3809,0.3204,0.2982,0.2426,0.1788,0.1105,0.1106,0.0219,-0.1166,-0.1691,-0.2389,-0.3177,-0.3704,-0.4125,-0.4662,0.0,0.0,0.0,0.0,0.0,0.0,0.0,0.0,0.0,0.0,0.0,0.0,0.0,0.0,0.0,0.0,0.0,0.0,0.0,0.0,0.0,0.0,0.0,0.0,0.0,0.0,0.0,0.0,0.0,0.0,0.0,0.0,0.0,0.0,0.0,0.0,0.0,0.0,0.0,0.0,0.0,0.0,0.0,0.0,0.0,0.0,0.0,0.0,0.0,0.0,0.0,2.2964,2.435,2.6257,2.8417,3.0679,0.0,3.4515,3.6452,3.8026,3.9415,4.0713,4.17,4.2455,4.2874,4.1843,4.0124,3.7667,3.5418,0.0,0.0,0.0,0.0,0.0,0.0,0.0,3.1664,3.0801,3.0193,0.0,2.8475,0.0,2.5827,2.4582,2.3062,0.0,1.9465,1.7859,1.6351,1.5019,1.3587,1.2056,1.1301,1.0383,0.9288,0.7999,0.7318,0.7208,0.5655,0.5136,0.546,0.434,0.3818,0.379,0.34,0.2785,0.2089,0.1716,0.0895,-0.0259,-0.1419,-0.2152,-0.2632,-0.3494,-0.39,-0.4161,0.0,0.0,0.0,0.0,0.0,0.0,0.0,0.0,0.0,0.0,0.0,0.0,0.0,0.0,0.0,0.0,0.0,0.0,0.0,0.0,0.0,0.0,0.0,0.0,0.0,0.0,0.0,0.0,0.0,0.0,0.0,0.0,0.0,0.0,0.0,0.0,0.0,0.0,0.0,0.0,0.0,0.0,0.0,0.0,0.0,0.0,0.0,0.0,0.0,0.0,2.5494,2.5091,2.6804,2.8531,3.0244,3.1767,3.3583,3.5438,3.6906,3.8136,3.9244,4.0146,4.0726,4.0929,4.0325,3.8474,3.6128,3.3537,0.0,2.9633,2.935,0.0,3.1295,3.1218,0.0,3.3081,3.2274,3.1517,3.1061,3.1103,2.949,2.7939,2.6817,2.5672,2.4069,2.1847,2.019,1.8363,1.6203,1.56,1.4179,1.1684,1.1204,1.0134,0.8287,0.7889,0.7423,0.6885,0.595,0.5542,0.5624,0.4842,0.4491,0.4491,0.4491,0.4088,0.3322,0.2532,0.1774,0.0891,-0.107,-0.1841,-0.1956,-0.319,-0.3728,-0.3865,0.0,0.0,0.0,0.0,0.0,0.0,0.0,0.0,0.0,0.0,-0.3537,-0.4051,0.0,0.0,0.0,0.0,0.0,0.0,0.0,0.0,0.0,0.0,0.0,0.0,0.0,0.0,0.0,0.0,0.0,0.0,0.0,0.0,0.0,0.0,0.0,0.0,0.0,0.0,0.0,0.0,0.0,0.0,0.0,0.0,0.0,0.0,0.0,0.0,0.0,0.0,2.7273,2.7742,2.9896,3.0849,3.1654,3.4062,3.4998,3.5634,3.7327,3.8138,3.8884,4.0403,3.9809,3.8442,3.6877,3.3653,0.0,0.0,0.0,2.3446,2.3123,2.509,0.0,2.9356,0.0,0.0,0.0,0.0,3.268,0.0,0.0,0.0,0.0,0.0,0.0,0.0,2.0749,1.868,1.7228,1.5405,1.3244,1.0647,0.9904,0.9274,0.8698,0.8047,0.7937,0.8401,0.6438,0.5814,0.6367,0.5089,0.4491,0.4491,0.4491,0.4059,0.3265,0.2509,0.1771,0.0945,-0.0513,-0.1382,-0.1884,-0.2626,-0.3269,-0.3949,0.0,0.0,0.0,0.0,0.0,0.0,0.0,-0.1519,-0.1341,-0.2712,-0.4137,-0.5035,-0.5047,-0.4211,0.0,0.0,0.0,0.0,0.0,0.0,0.0,0.0,0.0,0.0,0.0,0.0,0.0,0.0,0.0,0.0,0.0,0.0,0.0,0.0,0.0,0.0,0.0,0.0,0.0,0.0,0.0,0.0,0.0,0.0,0.0,0.0,0.0,0.0,0.0,0.0,2.5895,2.672,3.0346,3.1779,3.2386,3.3985,3.4629,3.5177,3.6696,3.7751,3.8533,3.9054,3.7414,3.5026,3.2617,0.0,0.0,0.0,0.0,1.8594,1.9853,0.0,0.0,0.0,0.0,0.0,0.0,0.0,0.0,0.0,0.0,0.0,0.0,0.0,0.0,2.3212,2.0973,1.9136,1.7766,1.5104,1.2785,1.099,1.0009,0.9278,0.8811,0.8454,0.8454,0.8785,0.6956,0.6258,0.6561,0.5144,0.445,0.4355,0.4457,0.4213,0.3694,0.264,0.1996,0.1507,-0.0235,-0.1306,-0.1977,-0.2579,-0.3311,-0.409,0.0,0.0,0.0,0.0,0.0,0.0,0.0,-0.2231,-0.1941,-0.2813,-0.4572,-0.5758,-0.5898,-0.543,-0.4535,0.0,0.0,0.0,0.0,0.0,0.0,0.0,0.0,0.0,0.0,0.0,0.0,0.0,0.0,0.0,0.0,0.0,0.0,0.0,0.0,0.0,0.0,0.0,0.0,0.0,0.0,0.0,0.0,0.0,0.0,0.0,0.0,0.0,0.0,0.0,2.2446,2.3639,2.7707,3.0186,3.1813,3.2838,3.3535,3.4281,3.5775,3.6873,3.7448,3.6807,3.4179,3.0838,2.7397,2.2187,0.0,0.0,1.404,1.3998,1.6496,0.0,0.0,0.0,0.0,0.0,0.0,0.0,0.0,0.0,0.0,0.0,0.0,0.0,0.0,2.293,2.0815,1.8892,1.7249,1.4591,1.2636,1.16,1.0558,0.9762,0.9237,0.9087,0.9008,0.9008,0.753,0.6831,0.6804,0.5523,0.4857,0.4722,0.4709,0.4613,0.435,0.284,0.2196,0.2006,0.0053,-0.1151,-0.1831,-0.2469,-0.3225,-0.3942,0.0,0.0,0.0,0.0,0.0,0.0,0.0,-0.2265,-0.1951,-0.2958,-0.4115,-0.5197,-0.614,-0.6728,-0.5974,0.0,0.0,0.0,0.0,0.0,0.0,0.0,0.0,0.0,0.0,0.0,0.0,0.0,0.0,0.0,0.0,0.0,0.0,0.0,0.0,0.0,0.0,0.0,0.0,0.0,0.0,0.0,0.0,0.0,0.0,0.0,0.0,0.0,0.0,0.0,0.0,1.8653,2.0085,2.4119,2.8756,3.1028,0.0,0.0,3.4956,3.5266,3.4807,3.3839,3.0294,2.5705,2.0692,0.0,0.0,0.8735,0.8319,0.8971,1.0735,1.2205,0.0,0.0,0.0,0.0,0.0,0.0,0.0,0.0,0.0,0.0,0.0,0.0,2.4355,2.3137,1.9939,1.6967,1.4594,1.3578,1.2698,1.1796,1.1082,1.0686,1.0618,1.0012,0.9718,0.9684,0.827,0.7589,0.7557,0.6777,0.6389,0.6342,0.5701,0.5397,0.5218,0.3083,0.2199,0.2049,0.0511,-0.0452,-0.1082,-0.1809,-0.2467,-0.3163,0.0,0.0,0.0,0.0,0.0,0.0,-0.3984,-0.3164,-0.2891,-0.3943,-0.5599,-0.6606,-0.6426,-0.661,-0.5783,0.0,0.0,0.0,0.0,0.0,0.0,0.0,0.0,0.0,0.0,0.0,0.0,0.0,0.0,0.0,0.0,0.0,0.0,0.0,0.0,0.0,0.0,0.0,0.0,0.0,0.0,0.0,0.0,0.0,0.0,0.0,0.0,0.0,0.0,0.0,0.0,0.0,1.4678,1.7263,0.0,0.0,2.8684,3.0071,3.2613,3.2954,3.2225,3.0639,2.5735,2.0391,1.7005,0.0,0.0,0.6774,0.6785,0.7481,0.9035,0.9773,1.112,0.0,0.0,0.0,0.0,0.0,0.0,0.0,0.0,0.0,0.0,0.0,2.2839,2.0616,1.8851,1.6967,1.4927,1.3876,1.2868,1.1832,1.1541,1.1216,1.0788,1.0141,0.9788,0.9788,0.8777,0.8098,0.7691,0.7196,0.6785,0.644,0.5615,0.5562,0.5888,0.3775,0.2892,0.2709,0.1235,-0.0027,-0.1111,-0.1759,-0.2213,-0.2607,0.0,0.0,0.0,0.0,0.0,-0.3474,-0.453,-0.3787,-0.3483,-0.4614,-0.639,-0.7158,-0.6124,-0.5735,-0.4724,-0.2839,0.0,0.0,0.0,0.0,0.0,0.0,0.0,0.0,0.0,0.0,0.0,0.0,0.0,0.0,0.0,0.0,0.0,0.0,0.0,0.0,0.0,0.0,0.0,0.0,0.0,0.0,0.0,0.0,0.0,0.0,0.0,0.0,0.0,0.0,0.0,0.0,0.0,0.0,0.0,0.0,2.4939,2.6792,2.9521,2.9718,2.8621,2.6414,2.1298,1.6143,0.0,0.0,0.6142,0.6139,0.6363,0.6914,0.8029,0.822,0.8888,0.0,0.0,0.0,0.0,0.0,0.0,0.0,0.0,0.0,0.0,2.3133,2.1517,1.9449,1.8452,1.7349,1.5976,1.4595,1.3372,1.2414,1.2218,1.1907,1.1434,1.0745,1.0389,1.0389,0.9673,0.8932,0.8196,0.7968,0.7527,0.6948,0.6119,0.6132,0.6618,0.4555,0.3663,0.3473,0.1958,0.061,-0.0529,-0.1211,-0.1635,-0.1965,0.0,0.0,0.0,0.0,0.0,0.0,-0.453,-0.3787,-0.3545,-0.4721,-0.5827,-0.6121,-0.5015,-0.4014,-0.2959,-0.172,0.0,0.0,0.0,0.0,0.0,0.0,0.0,0.0,0.0,0.0,0.3883,0.4897,0.381,0.0,0.0,0.0,0.0,0.0,0.0,0.0,0.0,0.0,0.0,0.0,0.0,0.0,0.0,0.0,0.0,0.0,0.0,0.0,0.0,0.0,0.0,0.0,0.0,0.0,0.0,0.0,2.1184,2.3304,2.5799,2.5428,2.3689,2.0908,1.7192,1.3323,0.0,0.0,0.6112,0.6446,0.659,0.679,0.7082,0.7136,0.7533,0.0,0.0,0.0,0.0,0.0,0.0,0.0,0.0,0.0,2.3283,2.1656,2.0704,2.0679,1.9083,1.7854,1.7327,1.5572,1.4338,1.3813,1.319,1.2881,1.2881,1.2163,1.1789,1.1765,1.1091,1.029,0.9385,0.9385,0.9022,0.8352,0.7601,0.7436,0.7524,0.5299,0.4399,0.4221,0.263,0.1619,0.0981,0.0106,-0.061,-0.1187,0.0,0.0,0.0,0.0,0.0,0.0,0.0,-0.3318,-0.3545,-0.4761,-0.5211,-0.5308,-0.5082,-0.3406,-0.2132,-0.1792,0.0,0.0,0.0,0.0,0.0,0.0,0.0,0.0,0.0,0.0,0.4027,0.5041,0.4849,0.3722,0.1754,0.0,0.0,0.0,0.0,0.0,0.0,0.0,0.0,0.0,0.0,0.0,0.0,0.0,0.0,0.0,0.0,0.0,0.0,0.0,0.0,0.0,0.0,0.0,0.0,0.0,0.0,0.0,2.0928,2.0436,1.9068,1.7425,1.3579,0.9774,0.8317,0.0,0.5497,0.6311,0.6678,0.6873,0.7061,0.7095,0.7193,0.7483,0.0,0.0,0.0,0.0,0.0,0.0,0.0,0.0,0.0,0.0,1.9397,1.9007,1.8473,1.7745,1.6806,1.6173,1.5403,1.4444,1.343,1.3113,1.3505,1.2365,1.1789,1.1789,1.1301,1.0565,0.97,1.0144,1.0003,0.9292,0.8196,0.8355,0.9173,0.6136,0.5043,0.5127,0.3422,0.2267,0.1501,0.0907,0.0507,0.019,0.0,0.0,0.0,0.0,0.0,0.0,0.0,-0.2773,-0.2966,-0.4123,-0.4277,-0.4193,-0.3883,-0.2635,-0.1639,-0.1154,0.0,0.0,0.0,0.0,0.0,0.0,0.0,0.0,0.0,0.351,0.4327,0.5795,0.5525,0.4376,0.2413,-0.0445,-0.2387,0.0,0.0,0.0,0.0,0.0,0.0,0.0,0.0,0.0,-0.2913,0.0,0.0,0.0,0.0,0.0,0.0,0.0,0.0,0.0,0.0,0.0,0.0,0.0,0.0,0.0,0.0,1.5748,1.4971,1.386,1.0857,0.0,0.0,0.0,0.0,0.6381,0.6709,0.6888,0.6991,0.6706,0.6577,0.0,0.0,0.0,0.0,0.0,0.0,0.0,0.0,0.0,0.0,2.0283,1.9443,1.8856,1.8631,1.8092,1.7177,1.6659,1.6089,1.54,1.4212,1.3766,1.4143,1.3082,1.2464,1.2278,1.1813,1.0983,0.9939,1.0532,1.0406,0.9714,0.9119,0.9299,0.0,0.7349,0.6182,0.5805,0.4297,0.3099,0.2182,0.182,0.1515,0.1171,0.0,0.0,0.0,0.0,0.0,0.0,0.0,-0.2151,-0.1991,-0.3033,-0.318,-0.2811,-0.1911,-0.1731,-0.1202,-0.0093,0.0,0.0,0.0,0.0,0.0,0.0,0.0,0.0,0.0,0.353,0.4699,0.6933,0.599,0.4879,0.354,0.0089,-0.2271,-0.3712,-0.5983,0.0,0.0,0.0,0.0,0.0,0.0,-0.2969,0.0,0.0,0.0,0.0,0.0,0.0,0.0,0.0,0.0,0.0,0.0,0.0,0.0,0.0,0.0,0.0,0.0,0.0,0.0,0.0,0.0,0.0,0.0,0.0,0.0,0.0,0.0,0.0,0.0,0.0,0.0,0.0,0.0,0.0,0.0,0.0,0.0,0.0,0.0,0.0,2.0732,2.0668,2.0407,1.9749,1.9221,1.8694,1.8116,1.7068,1.6489,1.6491,1.5411,1.4812,1.4766,1.4167,1.3641,1.3207,1.2531,1.1535,1.0252,1.0673,1.0458,0.9844,1.0278,1.0246,0.9793,0.8709,0.7554,0.6318,0.5206,0.4035,0.2996,0.2887,0.2435,0.1797,0.0,0.0,0.0,0.0,0.0,0.0,0.0,0.0,0.0,0.0,-0.2072,-0.1948,-0.1828,-0.0994,-0.0326,0.0,0.0,0.0,0.0,0.0,0.0,0.0,0.0,0.0,0.0,0.3714,0.494,0.7441,0.7083,0.5853,0.3695,0.1851,-0.0672,-0.3653,-0.5124,-0.6335,0.0,0.0,0.0,0.0,-0.3206,-0.2169,0.0,0.0,0.0,0.0,0.0,0.0,0.0,0.0,0.0,0.0,0.0,0.0,0.0,0.0,0.3262,0.0,0.0,0.0,0.0,0.0,0.0,0.0,0.0,0.0,0.0,0.0,0.0,0.0,0.0,0.0,0.0,0.0,0.0,0.0,0.0,0.0,0.0,0.0,2.1546,2.0814,2.0088,1.9649,1.9181,1.8606,1.8468,1.7942,1.6939,1.7065,1.6965,1.6513,1.6216,1.5854,1.5387,1.4778,1.4436,1.4314,1.3029,1.2145,1.1624,1.1486,1.1206,1.0868,1.1075,1.0933,1.0429,0.8711,0.754,0.6758,0.572,0.4784,0.4069,0.4176,0.35,0.2477,0.0,0.0,0.0,0.0,0.0,0.0,0.0,0.0,0.0,0.0,0.0,0.0,0.0,0.0,0.0,0.0,0.0,0.0,0.0,0.0,0.0,0.0,0.0,0.0,0.3636,0.3695,0.4929,0.739,0.7305,0.6026,0.369,0.2382,0.0179,-0.2862,-0.4671,-0.5881,-0.6456,-0.5823,-0.4936,-0.3865,-0.247,0.0,0.0,0.0,0.0,0.0,0.0,0.0,0.0,0.0,0.0,0.0,0.0,0.0,0.0,0.0,0.2763,0.0,0.0,0.0,0.0,0.0,0.0,0.0,0.0,0.0,0.0,0.0,0.0,0.0,0.0,0.0,0.0,0.0,0.0,0.0,0.0,0.0,0.0,0.0,2.0494,2.0501,0.0,1.9813,1.948,1.8618,1.8342,1.7827,1.6961,1.6961,1.6835,1.65,1.65,1.6324,1.603,1.541,1.488,1.4418,1.3303,1.2456,1.1865,1.1865,1.1695,1.1397,1.1672,1.1205,1.0199,0.9026,0.7862,0.6752,0.6085,0.5414,0.4797,0.4616,0.4096,0.341,0.0,0.0,0.0,0.0,0.0,0.0,0.0,0.0,0.0,0.0,0.0,0.0,0.0,0.0,0.0,0.0,0.0,0.0,0.0,0.0,0.0,0.0,0.0,0.1157,0.3625,0.3631,0.4811,0.7196,0.7176,0.6045,0.3891,0.2691,0.0714,-0.1882,-0.4261,-0.523,-0.515,-0.5195,-0.3866,-0.1823,-0.1751,0.0,0.0,0.0,0.0,0.0,0.0,0.0,0.0,0.0,0.0,0.0,0.0,0.0,0.0,0.0,0.0,0.0,0.0,0.0,0.0,0.0,0.0,0.0,0.0,0.0,0.0,0.0,0.0,0.0,0.0,0.0,0.0,0.0,0.0,0.0,0.0,0.0,0.0,0.0,1.9542,0.0,1.9736,2.0282,2.0175,1.8969,1.8468,1.7928,1.731,1.6785,1.65,1.65,1.65,1.6457,1.6358,1.5864,1.5176,1.4312,1.3486,1.2655,1.1836,1.2096,1.1999,1.1702,1.2038,1.1315,0.9851,0.9498,0.8341,0.6775,0.6504,0.6014,0.5367,0.487,0.4561,0.4212,0.0,0.0,0.0,0.0,0.0,0.0,0.0,0.0,0.0,0.0,0.0,0.0,0.0,0.0,0.0,0.0,0.0,0.0,0.0,0.0,0.0,0.0,0.0,0.122,0.3873,0.3831,0.5076,0.7709,0.7587,0.6829,0.5439,0.4096,0.1588,-0.1882,-0.3254,-0.3969,-0.3975,-0.286,-0.2223,-0.1855,-0.0755,0.0,0.0,0.0,0.0,0.0,0.0,0.0,0.0,0.0,0.0,0.0,0.0,0.0,0.0,0.0,0.0,0.0,0.4893,0.0,0.0,0.0,0.0,0.0,0.0,0.0,0.0,0.0,0.0,0.0,0.0,0.0,0.0,0.0,0.0,0.0,0.0,0.0,1.8144,1.9324,0.0,1.9724,1.9196,1.9623,1.9485,1.8405,1.8254,1.7752,1.6688,1.655,1.65,1.65,1.65,1.6259,1.5742,1.5654,1.553,1.5359,1.3839,1.3011,1.2859,1.2407,1.2164,1.2106,1.2174,1.1599,1.0584,0.9908,0.8865,0.7673,0.7409,0.6784,0.605,0.5959,0.5286,0.4099,0.0,0.0,0.0,0.0,0.0,0.0,0.0,0.0,0.0,0.0,0.0,0.0,0.0,0.0,0.0,0.0,0.0,0.0,0.0,0.0,0.0,-0.1058,-0.107,0.043,0.3703,0.3701,0.4961,0.7573,0.7509,0.6889,0.5761,0.3736,0.1192,-0.1823,-0.244,-0.2725,-0.2708,-0.212,-0.1549,-0.0857,0.0,0.0,0.0,0.0,0.0,0.0,0.0,0.0,0.0,0.0,0.0,0.0,0.0,0.0,0.0,0.0,0.0,0.0,0.4154,0.6337,0.0,0.0,0.0,0.0,0.0,0.0,0.0,0.0,0.0,0.0,0.0,0.0,0.0,0.0,0.0,0.0,1.701,1.7749,1.8315,0.0,0.0,1.9371,1.9447,1.9384,1.9033,1.8267,1.7928,1.74,1.6538,1.65,1.65,1.65,1.65,1.638,1.6095,1.5764,1.5264,1.463,1.3848,1.3302,1.2973,1.2687,1.2428,1.2171,1.1668,1.0893,0.9926,0.9071,0.8396,0.7844,0.741,0.719,0.7006,0.606,0.5151,0.4121,0.0,0.0,0.0,0.0,0.0,0.0,0.0,0.0,0.0,0.0,0.0,0.0,0.0,0.0,0.0,0.0,0.0,0.0,0.0,0.0,-0.2013,-0.2013,-0.1976,-0.0194,0.3607,0.3636,0.487,0.7475,0.7441,0.6889,0.5776,0.3547,0.1265,-0.0931,-0.1337,-0.1456,-0.1374,-0.1499,-0.0958,0.0,0.0,0.0,0.0,0.0,0.0,0.0,0.0,0.0,0.0,0.0,0.0,0.0,0.0,0.0,0.0,0.0,0.1511,0.3228,0.3414,0.5625,0.0,0.0,0.0,0.0,0.0,0.0,0.0,0.0,0.0,0.0,0.0,0.0,0.0,0.0,0.0,1.7769,1.8093,1.8538,1.8768,1.8538,1.8907,1.9334,1.9761,1.9309,1.877,1.8242,1.7689,1.7137,1.6525,1.65,1.65,1.65,1.65,1.6423,1.6281,1.582,1.5073,1.4003,1.3862,1.3481,1.2881,1.2725,1.2436,1.2053,1.109,1.0212,0.9443,0.8573,0.8255,0.8244,0.7494,0.7404,0.7489,0.5883,0.4908,0.4164,0.0,0.0,0.0,0.0,0.0,0.0,0.0,0.0,0.0,0.0,0.0,0.0,0.0,0.0,0.0,0.0,0.0,0.0,0.0,0.0,-0.2013,-0.2013,-0.1976,-0.0148,0.3899,0.3739,0.496,0.778,0.7648,0.7035,0.5948,0.4506,0.3089,0.1665,0.0396,-0.0149,-0.0147,-0.015,-0.0101,0.0,0.0,0.0,0.0,0.0,0.0,0.0,0.0,0.0,0.0,0.0,0.0,0.0,0.0,0.0,0.0,0.0,0.0,0.2109,0.2929,0.5017,0.0,0.0,0.0,0.0,0.0,0.0,0.0,0.0,0.0,0.0,0.0,0.0,0.0,0.0,0.0,1.9194,1.9925,0.0,1.9425,1.9643,1.9722,1.9761,1.9798,1.9309,1.877,1.8242,1.7689,1.7137,1.6525,1.65,1.65,1.65,1.65,1.6238,1.5676,1.561,1.5276,1.4629,1.4073,1.3481,1.2881,1.2187,1.1855,1.1776,1.0691,1.0211,1.0091,0.9384,0.9305,0.9462,0.8294,0.7522,0.6915,0.5733,0.4925,0.4239,0.0,0.0,0.0,0.0,0.0,0.0,0.0,0.0,0.0,0.0,0.0,0.0,0.0,0.0,0.0,0.0,0.0,0.0,0.0,0.0,-0.3265,-0.3265,-0.4042,-0.2588,0.1402,0.2892,0.4552,0.654,0.7411,0.7213,0.5958,0.4626,0.3284,0.1937,0.0591,0.0,0.0,0.0,0.0,0.0,0.0,0.0,0.0,0.0,0.0,0.0,0.0,0.0,0.0,0.0,0.0,0.0,0.0,0.0,0.0,0.0,0.0,0.2023,0.3002,0.4444,0.0,0.0,0.0,0.0,0.0,0.0,0.0,0.0,0.0,0.0,0.0,0.0,0.0,0.0,1.8561,1.9412,2.0385,2.033,2.0106,1.9848,1.9798,1.9673,1.9321,1.8807,1.8292,1.7739,1.7174,1.6748,1.65,1.65,1.65,1.65,1.65,1.6402,1.6173,1.6173,1.5678,1.4698,1.4097,1.3246,1.2212,1.1922,1.1566,1.114,1.0555,1.01,0.9672,0.9207,0.9041,0.9036,0.8585,0.7724,0.6657,0.5846,0.483,0.3672,0.0,0.0,0.0,0.0,0.0,0.0,0.0,0.0,0.0,0.0,0.0,0.0,0.0,0.0,0.0,0.0,0.0,0.0,0.0,-0.3032,-0.4005,-0.3983,-0.5307,-0.4714,-0.1953,0.0911,0.3325,0.5224,0.668,0.7094,0.6603,0.5275,0.3895,0.2563,0.1228,0.0395,0.0,0.0,0.0,0.0,0.0,0.0,0.0,0.0,0.0,0.0,0.0,0.0,0.0,0.0,0.0,0.0,0.0,0.0,0.0,0.0,0.0,0.0,0.2561,0.3568,0.0,0.0,0.0,0.0,0.0,0.0,0.0,0.0,0.0,0.0,0.0,0.0,0.0,0.0,1.8265,1.9302,2.0204,2.043,2.0373,2.0131,2.0283,2.0188,1.9633,1.905,1.8504,1.7911,1.7316,1.693,1.6752,1.6752,1.668,1.6522,1.65,1.65,1.65,1.65,1.5876,1.4698,1.4283,1.3273,1.1789,1.1591,1.1116,1.045,1.0069,0.9627,0.9202,0.8953,0.876,0.8602,0.858,0.7772,0.6492,0.5682,0.448,0.3136,0.0,0.0,0.0,0.0,0.0,0.0,0.0,0.0,0.0,0.0,0.0,0.0,0.0,0.0,0.0,0.0,0.0,0.0,0.0,-0.2487,-0.3985,-0.4013,-0.5275,-0.6029,-0.5979,-0.2215,0.117,0.4009,0.5324,0.6709,0.7988,0.6631,0.5272,0.3962,0.2611,0.1273,0.0,0.0,0.0,0.0,0.0,0.0,0.0,0.0,0.0,0.0,0.0,0.0,0.0,0.0,0.0,0.0,0.0,0.0,0.0,0.0,0.0,0.0243,0.1303,0.0,0.0,0.0,0.0,0.0,0.0,0.0,0.0,0.0,0.0,0.0,0.0,0.0,0.0,1.4756,1.7009,1.8893,1.9483,1.9813,2.0197,2.0716,2.1328,2.1438,2.0836,2.0238,1.9617,1.8927,1.8397,1.7867,1.7353,1.7312,1.7055,1.6522,1.65,1.65,1.65,1.6488,1.5876,1.4698,1.4698,1.3666,1.1765,1.1091,1.044,0.9762,0.908,0.8811,0.8804,0.8804,0.8637,0.8402,0.8323,0.7604,0.6452,0.5162,0.3845,0.2698,0.0,0.0,0.0,0.0,0.0,0.0,0.0,0.0,0.0,0.0,0.0,0.0,0.0,0.0,0.0,0.0,0.0,0.0,0.0,-0.2518,-0.3985,-0.4013,-0.6168,-0.6983,-0.6029,-0.3006,0.0731,0.5273,0.5741,0.6697,0.7988,0.6631,0.5289,0.3941,0.2598,0.1263,0.0048,0.0913,0.0775,0.0098,0.0937,0.0748,0.0,0.0,0.0,0.0,0.0,0.0,0.0,0.0,0.0,0.0,0.0,0.0,0.0,0.0,0.0,0.0248,0.1308,0.0,0.0,0.0,0.0,0.0,0.0,0.0,0.0,0.0,0.0,0.0,0.0,0.0,0.0,1.4535,1.5982,1.7173,1.7872,1.8725,1.9351,1.9498,2.003,2.0122,1.9525,1.9292,1.8955,1.8389,1.8183,1.8027,1.7867,1.7504,1.7229,1.7076,1.6689,1.65,1.65,1.6073,1.5466,1.4698,1.426,1.3014,1.1091,1.0889,1.0192,0.9106,0.9387,0.9237,0.8804,0.8804,0.8758,0.8625,0.8078,0.7286,0.6355,0.5462,0.3884,0.22,0.0,0.0,0.0,0.0,0.0,0.0,0.0,0.0,0.0,0.0,0.0,0.0,0.0,0.0,0.0,0.0,0.0,0.0,0.0,0.0,-0.4021,-0.4016,-0.6588,-0.7132,-0.5222,-0.3626,-0.0197,0.5085,0.5156,0.6184,0.7988,0.7182,0.577,0.3959,0.3152,0.1771,0.0094,0.127,0.1374,0.0767,0.1497,0.1372,0.0648,0.0,0.0,0.0,0.0,0.0,0.0,0.0,0.0,0.0,0.0,0.0,0.0,0.0,0.0,0.0203,0.0,0.0,0.0,0.0,0.0,0.0,0.0,0.0,0.0,0.0,0.0,0.0,0.0,1.3028,0.0,1.411,1.5154,1.6065,1.6777,1.7951,1.8892,1.932,1.9877,2.007,1.9675,1.9623,1.9373,1.8784,1.8727,1.8631,1.8438,1.7907,1.7524,1.7312,1.6774,1.65,1.65,1.5908,1.5298,1.4698,1.4097,1.288,1.1191,1.0914,1.0064,0.8831,0.9237,0.9185,0.8804,0.8804,0.8804,0.8699,0.767,0.6902,0.6278,0.5254,0.3837,0.2424,0.0,0.0,0.0,0.0,0.0,0.0,0.0,0.0,0.0,0.0,0.0,0.0,0.0,0.0,0.0,0.0,0.0,0.0,0.0,0.0,-0.4004,-0.4005,-0.6554,-0.6728,-0.4066,-0.4016,-0.1401,0.4005,0.3998,0.538,0.7968,0.0,0.659,0.413,0.0,0.2624,0.0415,0.1519,0.1981,0.1942,0.1978,0.192,0.1658,0.048,0.0,0.0,0.0,0.0,0.0,0.0,0.0,0.0,0.0,0.0,0.0,-0.0174,-0.0166,0.0,0.0,0.0,0.0,0.0,0.0,0.0,0.0,0.0,0.0,0.0,0.0,0.0,1.31,1.3395,1.3639,1.3639,1.4563,1.5443,1.5986,1.7283,1.8599,1.9602,2.033,2.0697,2.062,2.0598,2.0363,1.9753,1.9708,1.9479,1.9006,1.8419,1.7887,1.7394,1.6816,1.65,1.65,1.5842,1.5231,1.4686,1.4027,1.3044,1.1789,1.1116,1.0064,0.8804,0.8804,0.8804,0.8804,0.8725,0.8699,0.8566,0.7074,0.6431,0.6153,0.4733,0.3752,0.3101,0.0,0.0,0.0,0.0,0.0,0.0,0.0,0.0,0.0,0.0,0.0,0.0,0.0,0.0,0.0,0.0,0.0,0.0,0.0,0.0,-0.3978,-0.3988,-0.6552,-0.6728,-0.4066,-0.4016,-0.1442,0.3834,0.3924,0.0,0.0,0.0,0.0,0.5227,0.0,0.3484,0.2831,0.3102,0.3222,0.3226,0.3194,0.263,0.1676,0.0477,0.0,0.0,0.0,0.0,0.0,0.0,0.0,0.0,0.0,-0.141,-0.1414,-0.1409,0.0,0.0,0.0,0.0,0.0,0.0,0.0,0.0,0.0,0.0,0.0,0.0,0.0,0.0,1.3936,1.3978,1.3997,1.3997,1.4464,1.4876,1.5,1.6445,1.7765,1.8404,1.9004,1.9478,1.9878,1.9932,1.9872,1.9708,1.9708,1.9639,1.953,1.8612,1.8046,1.7927,1.6993,1.65,1.65,1.5421,1.4835,1.4686,1.361,1.2638,1.1789,1.1116,1.0064,0.8804,0.8804,0.8804,0.8752,0.8182,0.7943,0.7803,0.6303,0.5707,0.5591,0.4736,0.3959,0.3316,0.0,0.0,0.0,0.0,0.0,0.0,0.0,0.0,0.0,0.0,0.0,0.0,0.0,0.0,0.0,0.0,0.0,0.0,0.0,0.0,0.0,0.0,-0.6297,-0.6077,-0.4066,-0.3386,-0.0788,0.3813,0.0,0.0,0.0,0.0,0.0,0.5575,0.0,0.428,0.3659,0.4196,0.4446,0.44,0.3855,0.3217,0.2483,0.0657,0.0,0.0,0.0,0.0,0.0,0.0,0.0,0.0,0.0,0.0,-0.1912,-0.2494,0.0,0.0,0.0,0.0,0.0,0.0,0.0,0.0,0.0,0.0,0.0,0.0,0.0,1.3174,1.3545,1.3564,1.353,1.353,1.3946,1.4376,1.4663,1.573,1.6878,1.7973,1.8361,1.8836,1.9621,1.9708,1.9708,1.9708,1.9708,1.9584,1.9332,1.8535,1.7987,1.7727,1.693,1.65,1.65,1.5287,1.4698,1.4686,1.3478,1.2353,1.1291,1.0644,0.9762,0.8804,0.8804,0.8804,0.8752,0.7996,0.7696,0.7557,0.6086,0.5515,0.5433,0.4732,0.4245,0.3836,0.0,0.0,0.0,0.0,0.0,0.0,0.0,0.0,0.0,0.0,0.0,0.0,0.0,0.0,0.0,0.0,0.0,0.0,0.0,0.0,0.0,0.0,-0.5777,-0.5122,-0.4016,-0.2664,-0.0097,0.0,0.0,0.0,0.0,0.0,0.0,0.6136,0.0,0.5037,0.4239,0.5043,0.5492,0.5581,0.4372,0.3787,0.3343,0.1148,0.0186,0.0,0.0,0.0,0.0,0.0,0.0,0.0,0.0,0.0,-0.2318,0.0,0.0,0.0,0.0,0.0,0.0,0.0,0.0,0.0,0.0,0.0,0.0,0.0,1.094,1.1826,1.2634,1.2629,1.2603,1.2868,1.3319,1.3886,1.4606,1.5208,1.6198,1.7773,1.8046,1.8496,1.946,1.9639,1.9708,1.9708,1.9603,1.9369,1.893,1.8302,1.7767,1.7312,1.6774,1.65,1.65,1.5287,1.4698,1.4686,1.3478,1.223,1.0939,1.0287,0.9536,0.8804,0.8804,0.8804,0.8725,0.7857,0.7503,0.7369,0.5896,0.5324,0.5273,0.4708,0.4491,0.4385,0.0,0.0,0.0,0.0,0.0,0.0,0.0,0.0,0.0,0.0,0.0,0.0,0.0,0.0,0.0,0.0,0.0,0.0,0.0,0.0,0.0,0.0,-0.487,-0.4166,-0.4016,-0.2664,-0.0145,0.0,0.0,0.0,0.0,0.0,0.0,0.8352,0.0,0.0,0.0,0.5758,0.5983,0.6782,0.5625,0.4516,0.3451,0.0,0.0,0.0,0.0,0.0,0.0,0.0,0.0,0.0,0.0,0.0,0.0,0.0,0.0,0.0,0.0,0.0,0.0,0.0,0.0,0.0,0.0,0.0,0.0,0.0,0.9677,1.0933,1.1795,1.1366,1.1344,1.2685,1.2919,1.3348,1.4537,1.5208,1.6058,1.7258,1.7827,1.8341,1.8949,1.9424,1.9708,1.9708,1.9262,1.8987,1.8893,1.7947,1.7374,1.7312,1.6774,1.65,1.65,1.5287,1.4698,1.4686,1.3478,1.2476,1.1641,1.0965,0.9987,0.8804,0.8804,0.8804,0.8699,0.7321,0.675,0.6615,0.5199,0.4625,0.4625,0.4543,0.4491,0.447,0.0,0.0,0.0,0.0,0.0,0.0,0.0,0.0,0.0,0.0,0.0,0.0,0.0,0.0,0.0,0.0,0.0,0.0,0.0,0.0,0.0,0.0,0.0,-0.325,-0.4007,-0.1945,0.0,0.0,0.0,0.0,0.0,0.9744,1.0025,0.0,0.0,0.0,0.0,0.0,0.0,0.7007,0.5849,0.0,0.0,0.0,0.0,0.0,0.0,0.0,0.0,0.0,0.0,-0.0221,-0.1428,0.0,0.0,0.0,0.0,0.0,0.0,0.0,0.0,0.0,0.0,0.0,0.0,0.0,0.0,0.7976,0.7951,0.8118,0.9436,0.9483,0.9665,1.0748,1.1365,1.2143,1.3443,1.4481,1.5531,1.6646,1.7572,1.8322,1.8855,1.9387,1.9584,1.9262,1.9024,1.8631,1.8046,1.7565,1.7146,1.6858,1.6616,1.6337,1.6008,1.513,1.4363,1.3681,1.3162,1.2329,1.1241,1.0939,1.0261,0.9335,0.8956,0.8804,0.8699,0.7208,0.6588,0.6453,0.5062,0.4491,0.4491,0.4491,0.4491,0.4422,0.0,0.0,0.0,0.0,0.0,0.0,0.0,0.0,0.0,0.0,0.0,0.0,0.0,0.0,0.0,0.0,0.0,0.0,0.0,0.0,0.0,0.0,0.0,-0.2135,-0.3473,-0.1201,0.0,0.0,0.0,0.0,0.8873,0.9821,1.0728,0.0,1.0222,0.0,0.0,0.0,0.0,0.0,0.0,0.0,0.0,0.0,0.0,0.0,0.0,0.0,0.0,0.0,0.0,0.0,0.0,0.0,0.0,0.0,0.0,0.0,0.0,0.0,0.0,0.0,0.0,0.0,0.0,0.0,0.0,0.0,0.6009,0.5518,0.6473,0.7082,0.7795,0.8906,0.9928,1.1099,1.258,1.376,1.4903,1.6068,1.7197,1.8098,1.865,1.9314,1.9479,1.8949,1.8765,1.8302,1.7353,1.7167,1.6909,1.6522,1.65,1.6216,1.561,1.4846,1.3954,1.2905,1.2715,1.2073,1.104,1.0686,1.0261,0.9762,0.908,0.8804,0.8699,0.7208,0.6588,0.6453,0.5062,0.4491,0.446,0.4267,0.4322,0.4349,0.0,0.0,0.0,0.0,0.0,0.0,0.0,0.0,0.0,0.0,0.0,0.0,0.0,0.0,0.0,0.0,0.0,0.0,0.0,0.0,0.0,0.0,0.0,0.0,0.0,0.0,0.0,0.0,0.0,0.0,0.7622,0.8824,1.0573,1.266,1.1201,0.9932,0.889,0.0,0.0,0.0,0.0,0.0,0.0,0.0,0.0,0.0,0.0,0.0,0.0,0.0,0.0,0.0,0.0,0.0,0.0,0.0,0.0,0.0,0.0,0.0,0.0,0.0,0.0,0.0,0.0,0.0,0.0,0.3396,0.3898,0.4232,0.318,0.4144,0.5744,0.7826,0.923,1.0698,1.2545,1.3392,1.4295,1.5499,1.6587,1.7477,1.8072,1.9095,1.9479,1.8949,1.8438,1.7907,1.7333,1.6816,1.6543,1.65,1.65,1.6216,1.561,1.4423,1.3529,1.2881,1.2187,1.1814,1.169,1.044,0.984,0.9762,0.908,0.8804,0.8699,0.7208,0.6588,0.6453,0.5062,0.4491,0.4405,0.3649,0.3846,0.4294,0.0,0.0,0.0,0.0,0.0,0.0,0.0,0.0,0.0,0.0,0.0,0.0,0.0,0.0,0.0,0.0,0.0,0.0,0.0,0.0,0.0,0.0,0.0,0.0,0.0,0.0,0.0,0.0,0.0,0.3369,0.5289,0.7063,0.8855,1.0583,1.0799,1.096,1.1037,1.0308,0.0,0.0,0.0,0.0,0.0,0.0,0.0,0.0,0.0,0.0,0.0,0.0,0.0,0.0,0.0,0.0,0.0,0.0,0.0,0.0,0.0,0.0,0.0,0.0,0.0,0.0,0.0,0.0,0.2734,0.2871,0.2745,0.2472,0.192,0.2666,0.3948,0.5751,0.7002,0.8522,1.0703,1.2246,1.3619,1.4869,1.6012,1.6928,1.7524,1.8263,1.8458,1.7907,1.7706,1.7353,1.6816,1.6595,1.65,1.65,1.65,1.602,1.5028,1.3836,1.3104,1.2881,1.2153,1.1566,1.1141,1.0218,0.9562,0.9106,0.8388,0.8103,0.8017,0.702,0.6312,0.5792,0.4869,0.4491,0.446,0.4181,0.4267,0.4349,0.0,0.0,0.0,0.0,0.0,0.0,0.0,0.0,0.0,0.0,0.0,0.0,0.0,0.0,0.0,0.0,0.0,0.0,0.0,0.0,0.0,0.0,0.0,0.0,0.0,0.0,0.0,0.0,0.0,0.0,0.0,0.0,0.647,0.8609,0.9385,1.0508,0.0,0.0,0.0,0.8869,0.0,0.0,0.5527,0.0,0.0,0.0,0.0,0.0,0.0,0.0,0.0,0.0,0.0,0.0,0.0,0.0,0.0,0.0,0.0,0.0,0.0,0.0,0.0,0.0,0.0,0.0,0.1678,0.1877,0.1489,0.097,0.052,0.0868,0.1847,0.3675,0.5291,0.7028,0.9071,1.0996,1.2704,1.4029,1.513,1.6117,1.6912,1.7477,1.7578,1.7037,1.7175,1.698,1.6238,1.6402,1.6402,1.6194,1.6194,1.5622,1.4399,1.361,1.3104,1.2881,1.1907,1.1241,1.0771,0.9865,0.9211,0.8752,0.8023,0.7696,0.7616,0.6637,0.5955,0.5433,0.4759,0.4491,0.446,0.4211,0.4125,0.3959,0.0,0.0,0.0,0.0,0.0,0.0,0.0,0.0,0.0,0.0,0.0,0.0,0.0,0.0,0.0,0.0,0.0,0.0,0.0,0.0,0.0,0.0,0.0,0.0,0.0,0.0,0.0,0.0,0.0,0.0,0.0,0.0,0.3652,0.0,0.7088,0.8408,1.0611,0.0,1.0994,0.89,0.0,0.7822,0.6613,0.0,0.0,0.0,0.0844,0.004,0.0,0.0,0.0,0.0,0.0,0.0,0.0,0.0,0.0,0.0,0.0,0.0,0.0,0.0,0.0,0.0,0.0,0.0,0.1251,0.0158,0.0038,-0.0145,-0.1125,-0.1323,-0.0564,0.1704,0.4181,0.6323,0.7821,0.9694,1.1468,1.2991,1.4005,1.5037,1.6241,1.6818,1.6923,1.6403,1.6917,1.6782,1.5678,1.6173,1.6238,1.5654,1.5588,1.5016,1.3839,1.3802,1.3457,1.2856,1.1459,1.0788,1.0745,0.9413,0.8804,0.8752,0.7996,0.767,0.7557,0.6113,0.5483,0.5406,0.4759,0.4491,0.4405,0.3707,0.3372,0.3093,0.0,0.0,0.0,0.0,0.0,0.0,0.0,0.0,0.0,0.0,0.0,0.0,0.0,0.0,0.0,0.0,0.0,0.0,0.0,0.0,0.0,0.0,0.0,0.0,0.0,0.0,0.0,0.0,0.0,0.0,0.0,0.0,0.0,0.0,0.6342,0.7935,0.9492,1.1472,0.0,0.0,0.9919,0.8597,0.0,0.0,0.0,0.0,0.0,0.0661,0.0,0.0,0.0,0.0,0.0,0.0,0.0,0.0,0.0,0.0,-0.0367,0.0,0.0,0.0,0.0,0.0,0.0,0.0,0.0123,-0.0928,-0.111,-0.117,-0.1464,-0.1501,-0.1309,-0.0648,0.1571,0.3979,0.6192,0.788,0.9848,1.2387,1.323,1.4129,1.5473,1.5485,1.5437,1.5591,1.5753,1.5939,1.6102,1.635,1.6423,1.6259,1.5399,1.4789,1.4445,1.3586,1.2793,1.208,1.1216,1.0542,1.0038,0.9185,0.8804,0.8725,0.7456,0.6912,0.6831,0.5896,0.5218,0.4759,0.457,0.4491,0.446,0.4267,0.3818,0.3176,0.0,0.0,0.0,0.0,0.0,0.0,0.0,0.0,0.0,0.0,0.0,0.0,0.0,0.0,0.0,0.0,0.0,0.0,0.0,0.0,0.0,0.0,0.0,0.0,0.0,0.0,0.0,0.0,0.0,0.0,0.0,0.0,0.0,0.0,0.0,0.0,0.0,0.0,0.0,0.0,0.9634,0.0,0.0,0.5313,0.4416,0.0,0.0,0.0,0.0587,0.0154,0.0,0.0,0.0,0.0,0.0,0.0,0.0,0.0,0.0,0.0,0.0,0.0,0.0,0.0,0.0,0.0,-0.0164,-0.0815,-0.1232,-0.148,-0.1472,-0.1479,-0.1601,-0.1994,-0.0538,0.1225,0.2981,0.5122,0.7555,1.0343,1.1778,1.3245,1.5035,1.5007,1.4963,1.521,1.5444,1.5796,1.6268,1.6201,1.6008,1.5766,1.531,1.4721,1.3954,1.3491,1.2774,1.1789,1.1116,1.044,0.9788,0.9113,0.8619,0.8262,0.7101,0.6421,0.6091,0.5382,0.4838,0.4491,0.4491,0.4491,0.446,0.4153,0.3539,0.2702,0.0,0.0,0.0,0.0,0.0,0.0,0.0,0.0,0.0,0.0,0.0,0.0,0.0,0.0,0.0,0.0,0.0,0.0,0.0,0.0,0.0,0.0,0.0,0.0,0.0,0.0,0.0,0.0,0.0,0.0,0.0,0.0,0.0,0.0,0.0,0.0,0.0,0.0,0.0,0.8657,0.8488,0.7826,0.0,0.0,0.4881,0.4626,0.2641,0.1802,0.145,0.0353,0.0,0.0,0.0,0.0,0.0,0.0,0.0,0.0,0.0,0.0,0.0,0.0,0.0,0.0,0.0,0.0,-0.0041,-0.0158,-0.0775,-0.1326,-0.1322,-0.1325,-0.1644,-0.2601,-0.2189,-0.1554,-0.0887,0.1928,0.4842,0.7293,0.975,1.2166,1.4417,1.4777,1.4892,1.4944,1.5575,1.604,1.623,1.5798,1.5312,1.4776,1.5164,1.4584,1.292,1.3362,1.2914,1.1566,1.0965,1.0338,0.9666,0.8975,0.8321,0.7643,0.6831,0.6118,0.546,0.4787,0.4491,0.4491,0.4491,0.4432,0.4294,0.3652,0.2785,0.1756,0.0,0.0,0.0,0.0,0.0,0.0,0.0,0.0,0.0,0.0,0.0,0.0,0.0,0.0,0.0,0.0,0.0,0.0,0.0,0.0,0.0,0.0,0.0,0.0,0.0,0.0,0.0,0.0,0.0,0.0,0.0,0.0,0.0,0.0,0.0,0.0,0.0,0.0,0.0,0.7347,0.829,0.0,0.668,0.6307,0.5574,0.468,0.4265,0.301,0.145,0.0353,0.0,0.0,0.0,0.0,0.0,0.0,0.0,0.0,0.0,0.0,0.0,0.0,0.0,0.0,0.0,0.0,-0.0249,-0.1095,-0.1426,-0.1534,-0.1555,-0.1531,-0.1906,-0.2992,-0.2965,-0.2744,-0.2614,-0.0103,0.2397,0.4186,0.7176,0.9837,1.171,1.2751,1.3488,1.3849,1.5059,1.5785,1.5807,1.5516,1.5293,1.5185,1.4515,1.3724,1.2841,1.2404,1.1507,1.0192,1.0064,0.964,0.8982,0.8235,0.783,0.7616,0.6303,0.5624,0.546,0.4787,0.4491,0.4491,0.4491,0.4098,0.3511,0.3428,0.2142,0.039,0.0,0.0,0.0,0.0,0.0,0.0,0.0,0.0,0.0,0.0,0.0,0.0,0.0,0.0,0.0,0.0,0.0,0.0,0.0,0.0,0.0,0.0,0.0,0.0,0.0,0.0,0.0,0.0,0.0,0.0,0.0,0.0,0.0,0.0,0.0,0.0,0.0,0.0,0.7014,0.6965,0.7467,0.0,0.6569,0.6463,0.6041,0.5431,0.4882,0.3361,0.145,0.0353,0.0,0.0,0.0,0.0,0.0,0.0,0.0,0.0,0.0,0.0,0.0,0.0,0.0,0.0,0.0,0.0,-0.0162,-0.071,-0.0799,-0.0798,-0.0788,-0.1236,-0.1933,-0.3028,-0.4018,-0.4995,-0.6031,-0.3559,-0.0903,0.112,0.421,0.7262,0.9949,1.1594,1.297,1.4076,1.4449,1.4792,1.5104,1.438,1.3939,1.3939,1.3341,1.2704,1.2068,1.1554,1.0788,0.9788,0.9436,0.8895,0.8235,0.7482,0.6961,0.6546,0.5814,0.5074,0.4388,0.4067,0.3707,0.34,0.379,0.368,0.3204,0.251,0.1308,-0.0111,0.0,0.0,0.0,0.0,0.0,0.0,0.0,0.0,0.0,0.0,0.0,0.0,0.0,0.0,0.0,0.0,0.0,0.0,0.0,0.0,0.0249,0.0,0.0251,0.0251,0.0,0.0,0.0,0.0,0.0,0.0,0.0,0.0,0.0,0.0,0.0,0.0,0.0,0.0,0.0,0.6832,0.0,0.661,0.6497,0.6354,0.63,0.6141,0.4844,0.3322,0.1684,0.0432,0.0,0.0,0.0,0.0,0.0,0.0,0.0,0.0,0.0,0.0,0.0,0.0,0.0,0.0,0.0,0.0,0.0,0.0,0.0,0.0,0.0,0.0,0.0,-0.3288,0.0,0.0,0.0,-0.6704,0.0,-0.186,0.1369,0.4679,0.7951,1.0347,1.2315,1.3823,1.3783,1.3857,1.4269,1.3181,1.2564,1.2564,1.2253,1.1771,1.11,1.0697,1.011,0.9399,0.8639,0.8013,0.745,0.6718,0.6064,0.5483,0.521,0.4415,0.3287,0.3204,0.2788,0.2258,0.2926,0.3037,0.2702,0.1367,0.0334,-0.0612,0.0,0.0,0.0,0.0,0.0,0.0,0.0,0.0,0.0,0.0,0.0,0.0,0.0,0.0,0.0,0.0,0.0,0.0,0.1434,0.0,0.0,0.0049,0.113,0.1228,0.0049,0.0,0.0,0.0,0.0,0.0,0.0,0.0,0.0,0.0,0.6711,0.0,0.0,0.0,0.7658,0.0,0.6709,0.661,0.0,0.6354,0.63,0.6025,0.4021,0.3124,0.2617,0.0,0.0,0.0,0.0,0.0,0.0,0.0,0.0,0.0,0.0,0.0,0.0,0.0,0.0,0.0,0.0,0.0,0.0,0.0,0.0,0.0,0.0,0.0,0.0,0.0,0.0,0.0,-0.7828,-0.764,-0.6502,-0.4585,-0.0841,0.2397,0.4412,0.8035,1.0537,1.1202,1.2856,1.376,1.3547,1.2829,1.2406,1.2406,1.2007,1.1323,1.0423,0.9725,0.8897,0.7931,0.7203,0.6799,0.6696,0.595,0.5569,0.5429,0.4113,0.3453,0.3259,0.2591,0.2286,0.2202,0.2313,0.1924,0.1256,0.0418,-0.0752,-0.2062,0.0,0.0,0.0,0.0,0.0,0.0,0.0,0.0,0.0,0.0,0.0,0.0,0.0,0.0,0.0,0.0,0.0,0.3607,0.0,0.0,0.0,0.1194,0.1691,0.1394,0.005,0.0,0.0,0.0,0.0,0.0,0.0,0.0,0.0,0.0,0.7215,0.0,0.9008,0.0,0.8128,0.0,0.0,0.0,0.0,0.5649,0.5354,0.5157,0.3632,0.3085,0.2773,0.0,0.0,0.0,0.0,0.0,0.0,0.0,0.0,0.0,0.0,0.0,0.0,0.0,0.0,0.0,0.0,0.0,0.0,0.0,0.0,0.0,0.0,0.0,0.0,0.0,-0.5848,0.0,0.0,0.0,-0.6954,-0.4938,0.0,-0.1064,0.202,0.4843,0.6992,0.8333,1.0283,1.1546,1.1927,1.1854,1.1745,1.1595,1.1243,1.0552,0.9444,0.8893,0.8146,0.7218,0.6365,0.5955,0.5923,0.48,0.4278,0.4223,0.3146,0.2425,0.2009,0.1703,0.1312,0.0923,0.0923,0.1006,0.095,-0.0195,-0.131,-0.2313,0.0,0.0,0.0,0.0,0.0,0.0,0.0,0.0,0.0,0.0,0.0,0.0,0.7628,0.7614,0.0,0.0,0.5615,0.5101,0.0,0.0,0.3766,0.2437,0.2835,0.2243,0.0489,0.0499,0.0352,0.0,0.0,0.0,0.0,0.0,0.0,0.0,0.0,0.9099,0.9474,0.0,0.8531,0.7903,0.7044,0.6361,0.5825,0.5315,0.496,0.4608,0.3826,0.3357,0.2812,0.1058,0.0432,0.0392,0.0079,0.0,0.0,0.0,0.0,0.0,0.0,0.0,0.0,0.0,0.0,0.0,0.0,0.0,0.0,0.0,-0.1034,0.0,0.0,0.0,0.0,0.0,0.0,-0.7585,0.0,-0.7341,0.0,0.0,0.0,0.0,-0.0431,0.1666,0.3519,0.5093,0.7347,0.9141,1.0282,1.0492,1.0595,1.0708,1.0197,0.9462,0.8496,0.7971,0.7318,0.6592,0.5714,0.5152,0.4855,0.384,0.3262,0.3037,0.2232,0.1591,0.109,0.0895,0.0476,0.0,0.0,0.0336,0.0615,-0.0866,-0.173,-0.2343,0.0,0.7988,0.0,0.0,0.0,0.0,0.0,0.0,0.0,0.0,0.0,0.0,0.0,0.0,0.0,0.0,0.0,0.5089,0.5045,0.0,0.4983,0.0,0.0,0.4514,0.0,0.1794,0.0,0.0,0.0,0.0,0.0,0.0,0.0,0.0,0.0,0.9042,0.7339,0.9314,0.8899,0.6951,0.6759,0.5907,0.4844,0.0,0.5589,0.4688,0.4647,0.0,0.2929,0.1919,0.1568,0.1372,0.0314,0.0,0.0,0.0,0.0,0.0,0.0,0.0,0.0,0.0,0.0,0.0,0.0,0.0,0.0,0.0,-0.1508,-0.288,0.0,0.0,0.0,0.0,0.0,0.0,0.0,0.0,0.0,0.0,0.0,0.0,0.0,-0.1173,0.0635,0.1432,0.4493,0.707,0.8768,0.8634,0.8924,0.9898,0.8845,0.8112,0.773,0.6876,0.6245,0.5829,0.5085,0.4257,0.337,0.3317,0.2926,0.2202,0.1452,0.1118,0.1034,0.0336,0.0028,0.0,0.0,0.0028,-0.014,-0.1619,-0.2174,-0.2425,0.0,0.0,0.0,0.0,0.0,0.0,0.0,0.8382,0.0,0.0,0.7841,0.0,0.0,0.7356,0.7234,0.0,0.0,0.6499,0.6596,0.6875,0.0,0.0,0.5574,0.464,0.0,0.0,0.0,0.0,0.0,0.0,0.0,0.0,0.0,0.0,0.0,0.9103,0.0,0.0,0.0,0.0,0.0,0.6172,0.5616,0.0,0.5573,0.4574,0.4574,0.4262,0.3684,0.2682,0.231,0.2274,0.1902,0.1848,0.1895,0.1816,0.1849,0.1775,0.1067,0.0856,0.0727,0.0146,0.0,0.0,0.0,0.0,0.0,0.0,-0.1069,-0.2258,-0.295,0.0,0.0,0.0,0.0,0.0,0.0,0.0,0.0,0.0,0.0,0.0,0.0,-0.4082,-0.2752,-0.2,0.1276,0.3991,0.5782,0.7805,0.8994,0.916,0.9477,0.8866,0.718,0.6789,0.6132,0.5191,0.4855,0.4206,0.3287,0.2788,0.2174,0.1424,0.0699,0.0364,0.0364,0.0112,0.0,0.0,0.0,-0.0308,-0.0838,-0.1842,-0.2202,-0.2425,0.9998,0.0,0.0,0.0,0.0,0.0,0.0,0.0,0.0,0.0,0.7689,0.0,0.7316,0.0,0.7153,0.0,0.6991,0.7085,0.7278,0.7431,0.0,0.6173,0.6415,0.5241,0.0,0.0,0.0,0.0,0.0,0.0609,0.0,0.0,0.0,0.0,0.0,0.0,0.911,0.0,0.8306,0.0,0.0,0.6376,0.0,0.0,0.5515,0.4464,0.4878,0.467,0.4102,0.3447,0.323,0.3157,0.283,0.2755,0.2811,0.2717,0.2756,0.2691,0.1978,0.1803,0.158,0.069,0.0479,0.0375,0.0076,0.0,0.0,0.0,-0.0802,-0.1731,-0.2448,0.0,0.0,0.0,0.0,0.0,0.0,-0.3669,0.0,0.0,0.0,0.0,0.0,-0.5981,-0.5073,-0.4152,-0.1256,0.1471,0.3801,0.6263,0.7861,0.844,0.87,0.8092,0.6581,0.6415,0.5898,0.5074,0.4596,0.3899,0.2978,0.2188,0.1396,0.0671,0.0196,0.0,0.0,0.0,0.0,-0.0028,-0.028,-0.0671,-0.1202,-0.1924,-0.2538,-0.3151,0.0,0.0,0.0,0.0,1.0877,0.0,0.0,0.0,0.7756,0.0,0.7461,0.7309,0.7102,0.6967,0.6825,0.6715,0.6841,0.6943,0.7078,0.7282,0.0,0.0,0.7434,0.6331,0.3566,0.0,0.0,0.0,0.0,0.0,0.0,0.0,0.0,0.0,0.783,0.0,0.6968,0.8241,0.8037,0.6852,0.6756,0.6519,0.6289,0.6296,0.546,0.4434,0.559,0.5252,0.4267,0.4267,0.4267,0.4087,0.3144,0.2822,0.2825,0.282,0.2822,0.2846,0.277,0.275,0.2559,0.1622,0.1344,0.1068,0.0271,0.0038,0.0,0.0,-0.0642,-0.1294,-0.1554,0.0,0.0,0.0,0.0,0.0,0.0,0.0,0.0,0.0,0.0,0.0,0.0,-0.6866,-0.6357,-0.5084,-0.3102,0.0,0.0,0.401,0.5586,0.7668,0.6685,0.6081,0.5993,0.5706,0.5484,0.5326,0.4244,0.3271,0.2402,0.1505,0.07,0.0,0.0,0.0,0.0,0.0,0.0,-0.0084,-0.0811,-0.1146,-0.1284,-0.2009,-0.3204,-0.4491,1.2711,1.3926,1.4513,0.0,1.1502,0.9934,0.0,0.0,0.0,0.0,0.7443,0.7272,0.6967,0.6906,0.6825,0.6715,0.6841,0.0,0.0,0.0,0.0,0.7102,0.7434,0.674,0.4946,0.4173,0.3008,0.1339,0.0,0.0,0.3151,0.0,0.0,0.0,0.0,0.0,0.677,0.7215,0.7084,0.6597,0.6671,0.6454,0.6101,0.6255,0.5854,0.531,0.5699,0.5515,0.5098,0.5098,0.5098,0.503,0.4789,0.4786,0.4848,0.4748,0.4789,0.4697,0.3886,0.3652,0.3472,0.2695,0.1897,0.1283,0.1212,0.057,0.0,0.0,-0.0192,-0.0605,-0.1442,-0.2025,0.0,0.0,0.0,0.0,0.0,0.0,0.0,-0.3254,0.0,-0.5505,-0.678,-0.6627,-0.6408,-0.6258,-0.4742,-0.2455,0.0618,0.2515,0.4496,0.6606,0.7208,0.7015,0.5993,0.518,0.463,0.4348,0.3329,0.235,0.1438,0.1222,0.0687,0.0,0.0,0.0,0.0,0.0,0.0,-0.0084,-0.0811,-0.1758,-0.276,-0.2954,-0.3649,-0.4491,1.3632,0.0,0.0,1.4829,0.0,0.0,1.0637,0.9469,0.0,0.7406,0.7741,0.0,0.6897,0.6715,0.6603,0.6515,0.6644,0.0,0.6824,0.0,0.0,0.7095,0.7248,0.6674,0.529,0.4678,0.0,0.2458,0.0,0.0,0.439,0.0,0.0,0.0,0.0,0.697,0.0,0.6849,0.679,0.658,0.6664,0.6471,0.0,0.6265,0.6057,0.5691,0.5772,0.561,0.5395,0.5395,0.5395,0.5395,0.5395,0.5453,0.5508,0.5419,0.5457,0.5366,0.4776,0.4619,0.4414,0.3602,0.2954,0.2376,0.1652,0.1067,0.0579,0.0078,0.0,-0.0193,-0.0782,-0.1293,0.0,0.0,0.0,0.0,0.0,0.0,0.0,0.0,-0.501,-0.6001,-0.682,-0.6525,-0.6422,-0.6678,-0.5442,-0.3548,0.0,0.1259,0.3415,0.5518,0.6284,0.6251,0.5439,0.4331,0.3723,0.3503,0.2473,0.1705,0.1168,0.0787,0.0399,0.0,0.0,0.0,0.0,0.0,-0.0196,-0.0588,-0.1675,-0.2815,-0.3818,-0.3818,-0.4098,-0.4491,0.0,0.0,0.0,0.0,0.0,0.0,1.1874,1.0576,0.9135,0.7546,0.0,0.8157,0.684,0.6494,0.632,0.6303,0.6429,0.6569,0.6661,0.6688,0.6814,0.7028,0.692,0.6376,0.5339,0.5135,0.4587,0.0,0.0,0.0,0.0,0.0,0.0,0.0,0.0,0.0,0.0,0.6856,0.68,0.6644,0.6664,0.6505,0.6296,0.6276,0.6051,0.58,0.5779,0.5631,0.5395,0.5395,0.5395,0.5395,0.5395,0.5395,0.5395,0.5395,0.5395,0.5395,0.5395,0.5395,0.5192,0.4399,0.4189,0.3749,0.2099,0.1727,0.1484,0.0431,0.0196,0.0156,0.0039,-0.0745,0.0,0.0,0.0,0.0,0.0,0.0,0.0,0.0,0.0,0.0,-0.6839,-0.6529,-0.6453,-0.6709,-0.5726,-0.4174,0.0,0.0,0.2335,0.444,0.4737,0.4788,0.4474,0.3315,0.2747,0.2721,0.1641,0.112,0.1113,0.035,0.0,0.0,0.0,0.0,0.0,0.0,-0.0504,-0.1397,-0.2856,-0.386,-0.4491,-0.4491,-0.4491,-0.4491,0.0,0.0,0.0,0.0,0.0,1.3211,1.2968,1.0788,0.9075,0.866,0.779,0.7119,0.676,0.6542,0.6426,0.631,0.6429,0.0,0.0,0.0,0.0,0.6776,0.6753,0.6656,0.6441,0.5437,0.4981,0.0,0.0,0.0,0.0,0.0,0.0,0.0,0.0,0.0,0.6742,0.6742,0.0,0.6388,0.6504,0.645,0.6286,0.6118,0.5959,0.5786,0.5671,0.5545,0.5395,0.5395,0.5395,0.5395,0.5395,0.5395,0.5395,0.5395,0.5395,0.5395,0.5395,0.5395,0.5396,0.5343,0.4656,0.402,0.395,0.3289,0.2407,0.1523,0.1312,0.1034,0.0156,-0.0157,-0.0629,0.0,0.0,-0.2169,-0.2964,0.0,0.0,0.0,0.0,-0.4411,-0.6536,-0.6556,-0.6563,-0.6865,-0.6579,-0.5025,-0.1975,-0.0585,0.113,0.3301,0.438,0.442,0.3378,0.2344,0.1825,0.1815,0.0752,0.023,0.0224,0.0062,0.0,0.0,0.0,0.0,0.0,0.0,-0.0783,-0.2097,-0.3161,-0.3942,-0.4491,-0.4491,-0.4491,-0.4491,0.0,0.0,0.0,0.0,0.0,1.393,1.3894,1.2109,1.0289,0.9074,0.8854,0.8324,0.695,0.661,0.6484,0.6416,0.6474,0.648,0.6405,0.647,0.6505,0.658,0.6583,0.6583,0.6583,0.6024,0.5864,0.6197,0.0,0.0,0.0,0.0,0.0,0.0,0.0,0.691,0.0,0.0,0.6573,0.6416,0.6484,0.6426,0.6282,0.6088,0.5935,0.5783,0.564,0.5525,0.5395,0.5395,0.5395,0.5395,0.5395,0.5395,0.5395,0.5395,0.5395,0.5395,0.5395,0.5395,0.5412,0.5487,0.5148,0.4743,0.4319,0.388,0.3154,0.173,0.1434,0.1142,0.0195,-0.0471,-0.1176,-0.219,-0.2854,-0.3361,-0.3865,-0.3943,-0.3904,0.0,0.0,0.0,0.0,-0.58,0.0,0.0,0.0,-0.5577,-0.279,-0.1144,0.0508,0.2272,0.3459,0.3524,0.2344,0.1284,0.0769,0.0749,0.0237,0.0,0.0,0.0,0.0,0.0,0.0,0.0,-0.0058,-0.0832,-0.156,-0.2319,-0.3575,-0.4244,-0.4498,-0.458,-0.4607,-0.4597,0.0,1.5551,0.0,0.0,1.491,1.4543,1.4603,1.3509,1.1943,0.9879,1.0169,0.9806,0.7758,0.7323,0.7168,0.7094,0.6896,0.6731,0.6613,0.6416,0.6351,0.6463,0.6467,0.6467,0.6467,0.6467,0.6576,0.6836,0.6869,0.7065,0.0,0.0,0.0,0.0,0.0,0.0,0.0,0.6705,0.6566,0.6467,0.6467,0.6378,0.6235,0.604,0.5888,0.5739,0.5593,0.5498,0.5395,0.5395,0.5395,0.5395,0.5395,0.5395,0.5395,0.5395,0.5395,0.5395,0.5395,0.5395,0.5395,0.5395,0.5487,0.5339,0.453,0.4434,0.4001,0.2284,0.1588,0.102,0.0155,-0.0701,-0.1596,-0.2616,-0.3478,-0.41,-0.4336,-0.4356,-0.4039,0.0,0.0,0.0,-0.4588,-0.4753,-0.5267,0.0,-0.6563,-0.5659,-0.3555,-0.1491,0.0127,0.1236,0.2335,0.2394,0.1267,0.0416,0.0,0.0,0.0,0.0,0.0,0.0,0.0,0.0,0.0,0.0,-0.0118,-0.1666,-0.2279,-0.2428,-0.4005,-0.4614,-0.4604,-0.4694,-0.4741,-0.4721,0.0,0.0,0.0,0.0,1.491,1.4609,1.4928,1.4356,1.347,1.2157,1.1085,1.0196,0.9668,0.9483,0.9311,0.9042,0.8187,0.7688,0.7668,0.6795,0.6306,0.632,0.632,0.632,0.632,0.632,0.6467,0.6722,0.6861,0.6964,0.7122,0.0,0.0,0.0,0.0,0.6773,0.6555,0.6542,0.645,0.632,0.632,0.6186,0.5996,0.5881,0.5735,0.5589,0.547,0.5405,0.5395,0.5395,0.5395,0.5395,0.5395,0.5395,0.5395,0.5395,0.5395,0.5395,0.5395,0.5395,0.5395,0.5395,0.5405,0.542,0.5452,0.5458,0.5189,0.4154,0.251,0.103,0.0151,-0.0076,-0.0497,-0.1562,-0.1841,-0.2192,-0.3124,-0.326,-0.3204,-0.3115,0.0,0.0,-0.3355,-0.3641,-0.4147,-0.5202,-0.5429,-0.4967,-0.3639,-0.1425,-0.0126,0.0126,0.1192,0.1259,0.0162,0.0038,0.0,0.0,0.0,0.0,0.0,0.0,0.0,0.0,0.0,0.0,-0.0148,-0.193,-0.2584,-0.2642,-0.4372,-0.4958,-0.4877,-0.4864,-0.4867,-0.4867,1.5451,1.5398,1.5284,1.493,1.4676,1.4502,1.4442,1.4278,1.3913,1.3428,1.2106,1.0879,1.014,0.9908,0.9726,0.9426,0.9213,0.8714,0.7872,0.7442,0.6945,0.6338,0.63,0.63,0.63,0.63,0.6446,0.6702,0.6854,0.6957,0.0,0.0,0.0,0.6787,0.6695,0.6586,0.6508,0.6419,0.6351,0.63,0.63,0.6169,0.5976,0.5861,0.5715,0.5569,0.545,0.5395,0.5395,0.5395,0.5395,0.5395,0.5395,0.5395,0.5395,0.5395,0.5395,0.5395,0.5395,0.5395,0.5395,0.5395,0.5395,0.5412,0.5474,0.5487,0.523,0.428,0.2594,0.1187,0.0863,0.034,-0.0343,-0.1445,-0.1607,-0.1723,-0.2152,-0.2212,0.0,-0.1303,0.0,-0.1105,-0.2287,-0.2491,-0.2995,-0.4102,-0.5041,-0.4888,-0.3486,-0.144,-0.0212,0.0,0.1055,0.1066,0.0,0.0,0.0,0.0,0.0,0.0,0.0,0.0,0.0,0.0,0.0,0.0,-0.0122,-0.1864,-0.2226,-0.1876,-0.412,-0.4627,-0.4186,-0.4796,-0.5015,-0.5029,1.5344,1.5271,1.511,1.4609,1.4449,1.4355,1.4229,1.4142,1.4088,1.4088,1.3019,1.2008,1.1272,1.1087,1.0882,1.0605,1.0394,0.9874,0.8875,0.846,0.7936,0.7215,0.7173,0.7173,0.7173,0.7173,0.7289,0.745,0.7578,0.7551,0.7368,0.7116,0.6875,0.6627,0.6559,0.6491,0.6443,0.634,0.63,0.6296,0.6248,0.6101,0.5945,0.5796,0.565,0.5542,0.5433,0.5395,0.5395,0.5395,0.5395,0.5395,0.5395,0.5395,0.5395,0.5395,0.5395,0.5395,0.5395,0.5395,0.5395,0.5395,0.5395,0.5395,0.5395,0.5395,0.5136,0.4196,0.2787,0.1633,0.1346,0.0605,-0.0229,-0.1016,-0.1137,-0.1137,-0.1137,-0.089,-0.046,0.0382,0.0415,0.0075,-0.0724,-0.1425,-0.2146,-0.2995,-0.3954,-0.4018,-0.2913,-0.1228,-0.0213,0.0,0.0726,0.0784,0.0,0.0,0.0,0.0,0.0,0.0,0.0,0.0,0.0,0.0,0.0,0.0,-0.0125,-0.1545,-0.176,-0.1405,-0.3739,-0.4256,-0.3825,-0.4836,-0.5199,-0.5213,1.5129,1.5015,1.4921,1.4569,1.4282,1.4188,1.4476,1.4269,1.4088,1.4088,1.378,1.3559,1.3559,1.3559,1.3439,1.3194,1.194,1.1194,1.115,0.9991,0.9263,0.9258,0.9258,0.9258,0.9258,0.9258,0.9263,0.9268,0.9402,0.8952,0.7982,0.7118,0.6624,0.6515,0.6511,0.6433,0.6303,0.63,0.63,0.6286,0.6095,0.5939,0.5789,0.5647,0.5532,0.5395,0.5395,0.5395,0.5395,0.5395,0.5395,0.5395,0.5395,0.5395,0.5395,0.5395,0.5395,0.5395,0.5395,0.5395,0.5395,0.5395,0.5395,0.5395,0.5395,0.5395,0.5132,0.4195,0.3311,0.2411,0.1459,0.0605,0.0,0.0,0.0,0.0,0.0,0.0714,0.1335,0.1558,0.1388,0.1373,0.156,-0.0479,0.0,0.0,-0.1818,-0.1829,-0.1828,-0.0664,0.0,0.0,0.0,0.0,0.0,0.0,0.0,0.0,0.0,0.0,0.0,0.0,0.0,0.0,0.0,0.0,-0.0065,-0.0961,-0.1319,-0.1484,-0.3309,-0.401,-0.4112,-0.5054,-0.5392,-0.5392,1.5122,1.5169,1.5044,1.4342,1.4309,1.4349,1.4242,1.4142,1.4088,1.4088,1.4008,1.3948,1.3948,1.3726,1.3487,1.3233,1.2981,1.238,1.1257,1.0804,1.0226,0.9344,0.9296,0.9296,0.9296,0.9296,0.9296,0.9296,0.9431,0.9336,0.9026,0.8741,0.8159,0.7406,0.8095,0.7606,0.6338,0.7022,0.6839,0.6098,0.6013,0.5881,0.565,0.5606,0.5528,0.5395,0.5395,0.5395,0.5395,0.5395,0.5395,0.5395,0.5395,0.5395,0.5395,0.5395,0.5395,0.5395,0.5395,0.5395,0.5395,0.5395,0.5395,0.5395,0.5395,0.5395,0.5306,0.5014,0.3765,0.2622,0.2293,0.1031,0.0,0.0,0.0,0.0,0.0,0.0743,0.139,0.1562,0.2056,0.2193,0.1636,0.0928,0.0198,-0.0515,-0.0588,-0.0943,-0.1744,-0.067,0.0,0.0,0.0,0.0,0.0,0.0,0.0,0.0,0.0,0.0,0.0,0.0,0.0,0.0,0.0,0.0,-0.0067,-0.0936,-0.0935,-0.0598,-0.2403,-0.3111,-0.322,-0.4206,-0.4996,-0.5566,1.5197,1.5277,1.519,1.4529,1.4569,1.4589,1.4295,1.4249,1.4208,1.4102,1.4088,1.4088,1.4088,1.3921,1.3734,1.3554,1.356,1.3157,1.2153,1.1996,1.1534,1.065,1.06,1.0561,1.0426,1.0421,1.0421,1.0421,1.0111,0.9984,0.9984,0.9604,0.9038,0.8389,0.8618,0.8237,0.7399,0.7217,0.69,0.6533,0.6051,0.5752,0.5583,0.5562,0.5477,0.5395,0.5395,0.5395,0.5395,0.5395,0.5395,0.5395,0.5395,0.5395,0.5395,0.5395,0.5395,0.5395,0.5395,0.5395,0.5395,0.5395,0.5395,0.5395,0.5395,0.5395,0.5395,0.5395,0.4219,0.3101,0.2772,0.1502,0.0374,0.0039,0.0,0.0114,0.0454,0.1246,0.2055,0.2608,0.3103,0.322,0.2796,0.2077,0.1333,0.0667,0.0208,-0.0339,-0.1066,-0.0417,0.0,0.0,0.0,0.0,0.0,0.0,0.0,0.0,0.0,0.0,0.0,0.0,0.0,0.0,0.0,0.0,-0.0034,-0.0578,-0.0475,-0.0135,-0.1594,-0.2415,-0.2833,-0.3436,-0.425,-0.5044,1.5398,1.5411,1.5331,1.5062,1.5028,1.4941,1.4596,1.4492,1.4422,1.4155,1.4095,1.4088,1.4088,1.4088,1.4088,1.4088,1.3793,1.3626,1.36,1.3333,1.3073,1.2797,1.2764,1.2623,1.2311,1.2305,1.2305,1.2305,1.1354,1.0895,1.0901,0.9933,0.948,0.9346,0.8481,0.8471,0.901,0.707,0.6704,0.7281,0.6152,0.5652,0.5559,0.545,0.5395,0.5395,0.5395,0.5395,0.5395,0.5395,0.5395,0.5395,0.5395,0.5395,0.5395,0.5395,0.5395,0.5395,0.5395,0.5395,0.5395,0.5395,0.5395,0.5395,0.5395,0.5395,0.5395,0.5395,0.4648,0.372,0.2853,0.1927,0.1026,0.0156,0.0038,0.0377,0.1202,0.216,0.3234,0.4368,0.4386,0.4414,0.4665,0.2934,0.1764,0.161,0.0655,0.0082,0.0,0.0082,0.0082,0.0,0.0,0.0,0.0,0.0,0.0,0.0,0.0,0.0,0.0,0.0,0.0,0.0,0.0,0.0,0.0,0.0,0.0,-0.0068,-0.0901,-0.1851,-0.2767,-0.2666,-0.3239,-0.3969,1.5438,1.5571,1.5565,1.5102,1.515,1.5197,1.4948,1.4663,1.4496,1.4429,1.4222,1.4088,1.4088,1.4088,1.4088,1.4088,1.4021,1.3888,1.362,1.3333,1.3073,1.2797,1.2563,1.2371,1.2305,1.2305,1.2305,1.2305,1.207,1.1959,1.1922,1.17,1.1064,1.0168,1.0683,0.9704,0.7672,0.8578,0.7831,0.6067,0.6433,0.612,0.5446,0.5409,0.5395,0.5395,0.5395,0.5395,0.5395,0.5395,0.5395,0.5395,0.5395,0.5395,0.5395,0.5395,0.5395,0.5395,0.5395,0.5395,0.5395,0.5395,0.5395,0.5395,0.5395,0.5395,0.5395,0.5395,0.4645,0.3739,0.2879,0.1934,0.0999,0.0152,0.056,0.1056,0.1285,0.2779,0.4024,0.4445,0.5145,0.5329,0.475,0.4258,0.3308,0.1729,0.1384,0.0856,0.004,0.0774,0.0849,0.0039,0.0,0.0,0.0,0.0,0.0,0.0,0.0,0.0,0.0,0.0,0.0,0.0,0.0,0.0,0.0,0.0,0.0,-0.0035,-0.021,-0.0875,-0.1686,-0.1803,-0.2431,-0.3186,1.5598,1.5718,1.5732,1.5418,1.5491,1.5498,1.5204,1.5023,1.4823,1.4556,1.4382,1.4235,1.4102,1.4088,1.4088,1.4088,1.4088,1.4015,1.3854,1.3533,1.3273,1.2973,1.2703,1.2445,1.2305,1.2305,1.2305,1.2305,1.2305,1.2231,1.2104,1.2104,1.1651,1.0872,1.0943,1.026,0.9069,0.91,0.847,0.7448,0.6979,0.6485,0.5943,0.5557,0.5395,0.5395,0.5395,0.5395,0.5458,0.5848,0.5976,0.6075,0.647,0.6601,0.6502,0.6108,0.5719,0.5395,0.5395,0.5395,0.5395,0.5395,0.5395,0.5395,0.5395,0.5395,0.5395,0.5395,0.5041,0.446,0.3566,0.2639,0.1894,0.1394,0.1293,0.1584,0.2416,0.3489,0.444,0.5021,0.5638,0.5862,0.5461,0.5002,0.4242,0.3105,0.2578,0.2018,0.1438,0.1974,0.1806,0.0746,0.0745,0.0741,0.0733,0.0257,0.0,0.0,0.0,0.0,0.0,0.0,0.0,0.0,0.0,0.0,0.0,0.0,0.0,0.0,0.0,-0.0581,-0.1384,-0.1023,-0.146,-0.223,1.5778,1.5784,1.5784,1.5784,1.5784,1.5698,1.5504,1.5424,1.5217,1.4716,1.4576,1.4429,1.4182,1.4115,1.4088,1.4088,1.4088,1.4088,1.4088,1.3768,1.3427,1.322,1.2904,1.2596,1.2305,1.2305,1.2305,1.2305,1.2258,1.2111,1.1906,1.1859,1.1643,1.1288,1.0448,1.043,1.0971,0.9271,0.8886,0.9302,0.7574,0.6817,0.6588,0.5719,0.5491,0.5591,0.5591,0.5704,0.5948,0.6666,0.6955,0.7122,0.7787,0.8014,0.7904,0.712,0.6268,0.5557,0.5428,0.5395,0.5395,0.5395,0.5395,0.5395,0.5395,0.5395,0.5402,0.5426,0.5532,0.5323,0.4429,0.3641,0.3097,0.2994,0.2295,0.2269,0.3869,0.4281,0.4777,0.5679,0.5959,0.6115,0.6286,0.5473,0.4882,0.4727,0.3859,0.3271,0.3127,0.3264,0.2953,0.2077,0.1919,0.1739,0.1615,0.0688,0.0175,0.0,0.0,0.0,0.0,0.0,0.0,0.0,0.0,0.0,0.0,0.0,0.0,0.0,0.0,-0.0567,-0.125,-0.035,-0.0588,-0.1215,1.6008,1.5784,1.5784,1.5784,1.5784,1.5764,1.5718,1.5558,1.5364,1.5271,1.483,1.4502,1.4456,1.4235,1.4088,1.4088,1.4088,1.4088,1.4088,1.3581,1.326,1.3213,1.2672,1.2351,1.2305,1.2305,1.2305,1.2305,1.2058,1.1946,1.1899,1.161,1.1343,1.1062,1.089,1.039,0.9645,1.0059,0.9482,0.8235,0.7907,0.7372,0.6588,0.5719,0.5848,0.6494,0.6494,0.712,0.7908,0.7826,0.8104,0.8413,0.8111,0.8154,0.8266,0.7914,0.7177,0.633,0.5591,0.5395,0.5395,0.5395,0.5395,0.5395,0.5395,0.5395,0.5433,0.5562,0.5576,0.5351,0.4601,0.4355,0.4055,0.3407,0.3554,0.3912,0.4359,0.5078,0.563,0.5764,0.6051,0.6272,0.6296,0.6141,0.567,0.4766,0.4545,0.4038,0.3163,0.3958,0.4392,0.4219,0.3359,0.2448,0.161,0.1446,0.0913,0.0,0.0,0.0,0.0,0.0,0.0,0.0,0.0,0.0,0.0,0.0,0.0,0.0,0.0,-0.0114,-0.0228,-0.0078,-0.0118,-0.0236,1.6062,1.5784,1.5784,1.5784,1.5784,1.5784,1.5784,1.5712,1.5571,1.5418,1.5023,1.4696,1.4536,1.4262,1.4088,1.4088,1.4088,1.4088,1.4088,1.3534,1.3213,1.3213,1.2625,1.2305,1.2305,1.2305,1.2305,1.2305,1.2171,1.1937,1.163,1.1455,1.1189,1.0787,1.0787,1.0489,1.0047,1.0428,1.0136,0.9358,0.8871,0.8452,0.7994,0.7116,0.7151,0.7603,0.7603,0.8039,0.8653,0.9029,0.9315,0.9529,0.9744,0.9918,0.9864,0.9141,0.7856,0.6527,0.562,0.5395,0.5395,0.5395,0.5395,0.5395,0.5395,0.5457,0.5515,0.5501,0.5657,0.5696,0.5265,0.4865,0.4622,0.4664,0.4421,0.4385,0.4919,0.5451,0.58,0.58,0.6112,0.63,0.63,0.63,0.6103,0.5589,0.555,0.5283,0.4675,0.5132,0.5404,0.5404,0.448,0.3447,0.2412,0.2406,0.1901,0.0859,0.0855,0.0564,0.0,0.0,0.0,0.0,0.0,0.0,0.0,0.0,0.0,0.0,0.0,0.0,0.0,0.0,0.0,0.0,1.648,1.6015,1.5784,1.5784,1.5784,1.5784,1.5784,1.5784,1.5752,1.5524,1.519,1.4921,1.4649,1.4302,1.4088,1.4088,1.4088,1.4088,1.4088,1.3534,1.3213,1.3213,1.2625,1.2305,1.2305,1.2305,1.2305,1.2305,1.2164,1.1904,1.1523,1.1316,1.1022,1.0687,1.062,1.0593,1.0593,1.0593,1.0593,1.0523,0.9658,0.9306,0.9204,0.8318,0.8296,0.8695,0.8695,0.9052,0.9606,1.0188,1.0498,1.0682,1.1222,1.1435,1.1319,1.0288,0.8728,0.7083,0.598,0.5557,0.5395,0.5395,0.5423,0.5446,0.5446,0.5566,0.5606,0.5521,0.5766,0.5956,0.5878,0.5401,0.5214,0.5828,0.5129,0.4762,0.5389,0.563,0.5752,0.5752,0.5989,0.6194,0.6194,0.6224,0.6245,0.6245,0.6245,0.6156,0.6,0.5959,0.5956,0.599,0.5379,0.4548,0.3469,0.346,0.2838,0.1615,0.1581,0.103,0.0,0.0,0.0,0.0,0.0,0.0,0.0,0.0,0.0,0.0,0.0,0.0,0.0,0.0,0.0,0.0,1.7824,1.6622,1.5784,1.5784,1.5784,1.5784,1.5784,1.5784,1.5771,1.5751,1.5311,1.5001,1.4981,1.4472,1.4088,1.4088,1.4088,1.4088,1.4088,1.3534,1.3213,1.3213,1.2625,1.2305,1.2305,1.2305,1.2305,1.2305,1.1757,1.161,1.1852,1.1035,1.0774,1.0949,1.0713,1.0593,1.0593,1.0593,1.0593,1.0523,0.9658,0.9306,0.9204,0.8318,0.8663,0.9616,0.9616,1.0489,1.1613,1.1378,1.1678,1.2065,1.1562,1.1617,1.1724,1.1089,1.0061,0.8748,0.7046,0.6009,0.5395,0.5395,0.5501,0.5572,0.5572,0.5684,0.5783,0.5772,0.5908,0.599,0.5979,0.5956,0.5971,0.6207,0.5841,0.5574,0.5752,0.5674,0.5606,0.5606,0.5742,0.5833,0.5833,0.5962,0.601,0.601,0.601,0.6003,0.5993,0.5895,0.5884,0.5986,0.6131,0.5669,0.4595,0.4576,0.3574,0.1582,0.1584,0.1056,0.0,0.0,0.0,0.0,0.0,0.0,0.0,0.0,0.0,0.0,0.0,0.0,0.0,0.0,0.0,0.0,1.891,1.721,1.6062,1.685,1.6339,1.5718,1.5585,1.5712,1.5698,1.5337,1.5149,1.4941,1.471,1.4329,1.4088,1.4088,1.4088,1.4088,1.4088,1.3707,1.3194,1.2672,1.2425,1.2305,1.2305,1.2305,1.2305,1.2305,1.2078,1.1937,1.1893,1.1336,1.1062,1.0982,1.072,1.0693,1.0847,1.0667,1.07,1.0815,1.0309,1.011,1.0079,0.9748,1.0085,1.0723,1.0584,1.1207,1.2091,1.1804,1.1971,1.2265,1.2037,1.1924,1.1826,1.1383,1.0331,0.9206,0.8695,0.7805,0.6892,0.6334,0.6254,0.6138,0.5615,0.5562,0.5644,0.5583,0.5722,0.5861,0.5772,0.583,0.5878,0.585,0.5701,0.5576,0.5569,0.5562,0.5589,0.5589,0.5715,0.58,0.58,0.5854,0.5888,0.5888,0.5888,0.585,0.5762,0.5786,0.5871,0.5986,0.6179,0.6115,0.5708,0.5681,0.4627,0.2544,0.2529,0.1643,0.0,0.0,0.0,0.0,0.0,0.0,0.0,0.0,0.0,0.0,0.0,0.0,0.0,0.0,0.0,0.0,2.0079,1.8256,1.7011,1.7942,1.7254,1.6388,1.5864,1.5918,1.5812,1.51,1.4928,1.4743,1.4543,1.4262,1.4088,1.4088,1.4088,1.4088,1.4088,1.3721,1.3186,1.2472,1.2351,1.2305,1.2305,1.2305,1.2305,1.2305,1.2211,1.2111,1.2033,1.1603,1.1369,1.129,1.0901,1.0855,1.1109,1.0854,1.0847,1.0982,1.0875,1.0807,1.0734,1.0827,1.1136,1.1523,1.1236,1.1577,1.2124,1.183,1.1924,1.2164,1.2164,1.2067,1.1866,1.1623,1.0747,0.9906,1.0171,0.9606,0.8571,0.706,0.6733,0.6547,0.5665,0.5583,0.5613,0.5498,0.563,0.5755,0.5616,0.5671,0.5701,0.5606,0.5549,0.5515,0.5409,0.5484,0.5552,0.5552,0.5603,0.5664,0.5664,0.5705,0.5735,0.5735,0.5735,0.5691,0.5596,0.5725,0.5871,0.5986,0.6179,0.63,0.63,0.63,0.5392,0.3593,0.3279,0.2189,0.051,0.0157,0.0,0.0,0.0,0.0,0.0,0.0,0.0,0.0,0.0,0.0,0.0,0.0,0.0,0.0,2.1293,1.9942,1.881,1.8916,1.8532,1.7853,1.6763,1.6587,1.625,1.5129,1.4703,1.4516,1.4516,1.4262,1.4088,1.4088,1.4088,1.4088,1.4088,1.3534,1.3073,1.2804,1.2496,1.2305,1.2305,1.2305,1.2305,1.2305,1.2011,1.206,1.2285,1.1703,1.159,1.1879,1.1256,1.1156,1.1375,1.1122,1.0995,1.1022,1.1275,1.1249,1.1029,1.1282,1.161,1.1866,1.153,1.1617,1.1859,1.1523,1.1623,1.1906,1.1906,1.1906,1.1899,1.1906,1.1484,1.1056,1.1315,1.1209,1.0312,0.7419,0.6831,0.6702,0.579,0.5698,0.5759,0.5616,0.5698,0.5755,0.5613,0.5589,0.5589,0.5589,0.5494,0.5395,0.5395,0.5395,0.5395,0.5395,0.5395,0.5395,0.5395,0.5532,0.5589,0.5589,0.5589,0.5593,0.5593,0.5728,0.5874,0.599,0.6179,0.63,0.63,0.63,0.5747,0.4686,0.3632,0.2581,0.1568,0.0471,0.0,0.0,0.0,0.0,0.0,0.0,0.0,0.0,0.0,0.0,0.0,0.0,0.0,0.0,2.1977,2.0096,1.8659,1.9522,1.8869,1.8032,1.7525,1.7615,1.7204,1.5681,1.5568,1.5269,1.4321,1.4135,1.4088,1.4088,1.4088,1.4088,1.4088,1.3534,1.3166,1.3073,1.2579,1.2305,1.2305,1.2305,1.2305,1.2305,1.2218,1.2218,1.2291,1.1911,1.1784,1.1886,1.147,1.1463,1.1717,1.1423,1.1416,1.1631,1.1476,1.1342,1.1309,1.1362,1.1449,1.1516,1.1229,1.1309,1.1516,1.1223,1.1456,1.1906,1.1906,1.1724,1.1597,1.1839,1.1343,1.0874,1.155,1.1256,1.0251,0.8363,0.8374,0.8255,0.5985,0.5959,0.6243,0.5605,0.5498,0.5515,0.547,0.5463,0.5463,0.5463,0.5426,0.5395,0.5395,0.5395,0.5395,0.5395,0.5395,0.5395,0.5395,0.5436,0.5463,0.5463,0.5562,0.5681,0.5888,0.5902,0.603,0.6186,0.6276,0.63,0.63,0.63,0.5747,0.4688,0.3614,0.2565,0.1567,0.0483,0.0,0.0,0.0,0.0,0.0,0.0,0.0,0.0,0.0,0.0,0.0,0.0,0.0,0.0,2.2372,2.0981,1.9929,2.0813,2.0111,1.9188,1.8579,1.853,1.7996,1.6533,1.6451,1.6255,1.545,1.5352,1.5186,1.4776,1.4734,1.4483,1.3956,1.3973,1.3736,1.3079,1.2672,1.2425,1.2305,1.2305,1.2305,1.2305,1.2305,1.2305,1.2298,1.2124,1.2074,1.2024,1.173,1.1764,1.206,1.173,1.1637,1.1697,1.175,1.1595,1.1402,1.1557,1.1597,1.155,1.1136,1.1102,1.1229,1.1049,1.1383,1.1926,1.2004,1.1917,1.1804,1.1984,1.1618,1.1229,1.1759,1.1517,1.0757,0.9282,0.9236,0.8991,0.6918,0.6822,0.7083,0.6535,0.6437,0.6338,0.598,0.5914,0.5818,0.5458,0.5395,0.5395,0.5395,0.5395,0.5395,0.5395,0.5395,0.5395,0.5395,0.545,0.5511,0.5566,0.5623,0.5779,0.5979,0.5993,0.6101,0.6293,0.63,0.6327,0.6381,0.6381,0.6064,0.5387,0.4378,0.3568,0.2956,0.1891,0.1409,0.1427,0.1407,0.1417,0.1406,0.1425,0.1135,0.0705,0.0714,0.0404,0.0,0.0,0.0,0.0,2.2393,2.209,2.1934,2.2275,2.1678,2.084,1.9824,1.9392,1.8758,1.7585,1.7464,1.7423,1.7293,1.7302,1.6927,1.5944,1.582,1.5296,1.4015,1.4849,1.4707,1.3182,1.303,1.2835,1.2415,1.2335,1.2305,1.2305,1.2305,1.2305,1.2305,1.2305,1.2305,1.2291,1.2024,1.2051,1.2285,1.2027,1.171,1.1475,1.2017,1.1904,1.1422,1.1724,1.1852,1.1752,1.1189,1.0975,1.0962,1.1015,1.1403,1.1953,1.2211,1.2285,1.2271,1.2291,1.2078,1.1873,1.1899,1.1866,1.1482,1.0144,0.9625,0.9172,0.8221,0.8059,0.8091,0.8027,0.7994,0.7767,0.6948,0.6817,0.656,0.5752,0.5667,0.5671,0.5624,0.5572,0.5542,0.5524,0.5472,0.5416,0.5416,0.5552,0.5667,0.5813,0.5823,0.5895,0.6023,0.603,0.6139,0.6334,0.6337,0.6402,0.6532,0.6545,0.6545,0.6495,0.5561,0.5116,0.5074,0.4074,0.3619,0.3582,0.3617,0.3619,0.3604,0.3604,0.2901,0.179,0.179,0.1121,0.0135,0.0045,0.009,0.0135,2.1473,2.1395,2.1289,2.1035,2.1123,2.1033,2.0467,2.0303,1.9844,1.8749,1.863,1.831,1.7415,1.7302,1.7212,1.6968,1.6968,1.6814,1.6498,1.6204,1.5857,1.5469,1.4954,1.4276,1.3426,1.2666,1.2305,1.2305,1.2305,1.2305,1.2305,1.2305,1.2305,1.2298,1.2238,1.2245,1.2285,1.2027,1.1866,1.1764,1.1657,1.1502,1.1395,1.1496,1.1383,1.1162,1.1042,1.0881,1.0754,1.1176,1.157,1.1953,1.2211,1.2144,1.204,1.2238,1.1931,1.1577,1.1839,1.1571,1.1116,1.0791,1.051,0.9907,0.835,0.8517,0.8812,0.8124,0.7994,0.7929,0.7767,0.7735,0.7665,0.7474,0.7612,0.7693,0.7466,0.7027,0.6663,0.6449,0.5895,0.5542,0.5542,0.5671,0.582,0.5932,0.5942,0.6095,0.6363,0.6376,0.6447,0.66,0.6607,0.662,0.6651,0.677,0.677,0.6651,0.5608,0.5107,0.5064,0.404,0.3601,0.3606,0.3594,0.3611,0.3592,0.3592,0.2892,0.179,0.179,0.1657,0.1299,0.0359,0.0583,0.1254,2.1239,2.119,2.119,2.1201,2.1211,2.1112,2.0918,2.0703,2.0401,1.9844,1.9766,1.952,1.8948,1.8868,1.8669,1.8149,1.8109,1.7868,1.7334,1.7446,1.7141,1.6236,1.5865,1.5292,1.4422,1.3911,1.323,1.2305,1.2732,1.2732,1.2305,1.2305,1.2305,1.2305,1.2305,1.2225,1.2084,1.1973,1.1826,1.1643,1.1455,1.1389,1.1375,1.1269,1.1209,1.1182,1.1042,1.0982,1.1015,1.1323,1.1623,1.1933,1.2044,1.2084,1.2104,1.2258,1.2084,1.1817,1.169,1.1637,1.1483,1.0961,1.0914,1.0699,0.9664,0.9679,0.9823,0.9512,0.9338,0.9096,0.871,0.8619,0.8484,0.8059,0.821,0.831,0.8025,0.7942,0.782,0.7541,0.7296,0.697,0.6532,0.6154,0.5973,0.6129,0.6203,0.6308,0.6504,0.6579,0.6617,0.6698,0.6702,0.6736,0.681,0.6846,0.6879,0.6869,0.6331,0.6054,0.6057,0.5488,0.5256,0.526,0.5249,0.5256,0.5262,0.5262,0.4596,0.353,0.353,0.3172,0.2592,0.1969,0.1746,0.1612,2.1191,2.1142,2.1288,2.1611,2.1426,2.1171,2.1093,2.0801,2.0605,2.0605,2.0605,2.0605,2.0605,2.0605,2.0245,1.9362,1.9274,1.8868,1.7948,1.8624,1.8374,1.6783,1.6601,1.6204,1.5556,1.5621,1.4728,1.2806,1.3419,1.331,1.2556,1.2378,1.2305,1.2305,1.2305,1.2138,1.1906,1.1906,1.167,1.1315,1.1315,1.1289,1.1256,1.1062,1.1142,1.1295,1.1136,1.1223,1.1389,1.1389,1.1623,1.1913,1.196,1.2104,1.2305,1.2305,1.2305,1.2171,1.1549,1.1784,1.1911,1.0921,1.0955,1.1243,1.1096,1.0841,1.066,1.0901,1.076,1.0364,0.9658,0.9566,0.9365,0.8636,0.8732,0.8802,0.8538,0.8803,0.892,0.8654,0.876,0.851,0.7636,0.6832,0.6336,0.6289,0.6457,0.6552,0.6552,0.6658,0.6753,0.6773,0.6776,0.6837,0.692,0.6923,0.698,0.7095,0.7095,0.7095,0.7095,0.7095,0.7095,0.7095,0.7095,0.7095,0.7095,0.7095,0.6428,0.5403,0.5403,0.4776,0.3927,0.3927,0.2994,0.1657,2.0703,2.0967,2.1093,2.084,2.1016,2.1064,2.0713,2.0644,2.0605,2.0605,2.0605,2.0605,2.0605,2.0605,2.0527,2.0401,2.0362,2.0323,2.0157,1.96,1.9137,1.8912,1.8168,1.7507,1.6947,1.7369,1.6689,1.4807,1.4063,1.3637,1.3491,1.2666,1.2305,1.2305,1.2305,1.2138,1.1906,1.1906,1.1584,1.1049,1.1049,1.0935,1.0734,1.0915,1.1015,1.1082,1.1289,1.1362,1.1389,1.1389,1.1623,1.1946,1.2164,1.2271,1.2305,1.2305,1.2305,1.2171,1.1549,1.1449,1.1443,1.1035,1.0841,1.0827,1.1263,1.0949,1.06,1.064,1.062,1.0561,1.0466,1.06,1.0732,1.06,1.0834,1.0884,1.0639,1.0223,0.9828,0.9545,0.9262,0.8709,0.7837,0.7729,0.734,0.6384,0.6515,0.6668,0.6668,0.6814,0.691,0.7034,0.7038,0.7048,0.7068,0.7068,0.7078,0.7095,0.7095,0.7095,0.7095,0.7095,0.7095,0.7095,0.7095,0.7095,0.7095,0.7095,0.6428,0.5403,0.5403,0.5314,0.5179,0.5179,0.3753,0.179,2.0761,2.0723,2.0801,2.0635,2.0772,2.0791,2.0635,2.0605,2.0605,2.0605,2.0605,2.0605,2.0605,2.0605,2.0605,2.0605,2.0605,2.0605,2.0605,2.0253,1.9822,1.9307,1.915,1.872,1.7996,1.8203,1.7922,1.7087,1.5369,1.4522,1.4522,1.2981,1.2592,1.3062,1.2519,1.2051,1.163,1.1832,1.1564,1.0995,1.0995,1.1015,1.1022,1.0861,1.0955,1.1249,1.1342,1.1389,1.1389,1.1389,1.1516,1.167,1.1971,1.2171,1.2305,1.2305,1.2305,1.2171,1.1549,1.1663,1.1764,1.1149,1.1142,1.1303,1.1202,1.0982,1.0834,1.0834,1.0707,1.0593,1.0593,1.0827,1.0995,1.0995,1.1376,1.157,1.1276,1.1274,1.1287,1.1166,1.0484,0.9883,0.9502,0.9033,0.856,0.8242,0.7781,0.7639,0.7815,0.7307,0.7031,0.7095,0.7095,0.7095,0.7095,0.7095,0.7139,0.7272,0.7272,0.7272,0.7265,0.7136,0.7142,0.7265,0.7132,0.7095,0.7095,0.7095,0.6782,0.6337,0.6337,0.6337,0.6293,0.5625,0.4734,0.3708]}]]